Darstellungsparameter: Aktuell verwendete Einstellungen:
Skalierung der Graphiken ... ?
xyx+y,   Skalierungsfaktor:      Skalierung: Modus: x, Faktor: 1
Darstellungszeitraum ... ?
Vom - - bis: - -   Zeitraum: 25.04.2010 - 24.04.2020
Min/Max/Avg-Anzeige ... ?
Zeige MMA aktuell
Zeige MMA Monat
Zeige MMA alles
Zeige --A aktuell
Zeige --A Monat
Zeige --A alles
Keine MMA-Anzeige
MMA:
Keine MMA-Graphiken
MMA-Basis: 25.04.2010 - 24.04.2020
Quicknavigation für Darstellung... ?
Tage:      1T, 2T, 3T, 5T -1T -2T -3T -5T +1T +2T +3T +5T
Wochen: 1W, 2W, 3W -1W -2W -3W +1W +2W +3W
Monate: 1M, 3M, 6M -1M -3M -6M +1M +3M +6M
Jahre:    1J, 3J, 5J, 10J -1J -3J -5J -10J +1J +3J +5J +10J
Nutze für die Darstellung ... ?
Originaldaten oder ...
Mittelwerte Minima Maxima auf...
Stundenbasis Tagesbasis Wochenbasis
Monatsbasis Jahresbasis      Datenbasis: Mittelwerte auf Stundenbasis
Darstellen als:
Statistik (Auto) Statistik J:M      Darstellung:
Zur Graphik,    zurück zur Übersicht aller Sensoren.
 
Tabellarische Datenbersicht: ?
 
Sensor: Nr:Datum:Temp:Feuchte:
Aussen-T/F 1 05-02-2012 20:00:00 0 C 20.0000 %
2 05-02-2012 21:00:00 -9.76667 C 45.3333 %
3 05-02-2012 22:00:00 -12.61667 C 54.6667 %
4 05-02-2012 23:00:00 -12.48333 C 56.6667 %
5 06-02-2012 00:00:00 -12.2 C 58.6667 %
6 06-02-2012 01:00:00 -12.26667 C 58.8333 %
7 06-02-2012 02:00:00 -12.8 C 59.0000 %
8 06-02-2012 03:00:00 -13.71667 C 60.1667 %
9 06-02-2012 04:00:00 -14.31667 C 61.5000 %
10 06-02-2012 05:00:00 -14.66667 C 63.1667 %
11 06-02-2012 06:00:00 -15.65 C 63.1667 %
12 06-02-2012 07:00:00 -15.65 C 65.5000 %
13 06-02-2012 08:00:00 -15.86667 C 65.3333 %
14 06-02-2012 09:00:00 -14.83333 C 66.5000 %
15 06-02-2012 10:00:00 -13.55 C 65.6667 %
16 06-02-2012 11:00:00 -11.65 C 63.6667 %
17 06-02-2012 12:00:00 -8.6 C 49.5000 %
18 06-02-2012 13:00:00 -7.6 C 35.0000 %
19 06-02-2012 14:00:00 -5.86667 C 28.1667 %
20 06-02-2012 15:00:00 -5.21667 C 20.0000 %
21 06-02-2012 16:00:00 -5.11667 C 22.8333 %
22 06-02-2012 17:00:00 -9.1 C 39.1667 %
23 06-02-2012 18:00:00 -10.76667 C 41.0000 %
24 06-02-2012 19:00:00 -11.56667 C 46.6667 %
25 06-02-2012 20:00:00 -12.23333 C 49.3333 %
Sensor: Nr:Datum:Temp:Feuchte:
Aussen-T/F 26 06-02-2012 21:00:00 -12.35 C 50.1667 %
27 06-02-2012 22:00:00 -13.13333 C 51.5000 %
28 06-02-2012 23:00:00 -13.83333 C 48.3333 %
29 07-02-2012 00:00:00 -14.48333 C 46.5000 %
30 07-02-2012 01:00:00 -14.73333 C 45.5000 %
31 07-02-2012 02:00:00 -14.93333 C 42.6667 %
32 07-02-2012 03:00:00 -16.15 C 41.0000 %
33 07-02-2012 04:00:00 -16.88333 C 41.8333 %
34 07-02-2012 05:00:00 -17.65 C 43.8333 %
35 07-02-2012 06:00:00 -18.41667 C 45.6667 %
36 07-02-2012 07:00:00 -18.8 C 48.0000 %
37 07-02-2012 08:00:00 -17.95 C 53.8333 %
38 07-02-2012 09:00:00 -17.3 C 54.3333 %
39 07-02-2012 10:00:00 -15.28333 C 48.8333 %
40 07-02-2012 11:00:00 -12.18333 C 37.1667 %
41 07-02-2012 12:00:00 -8.9 C 23.5000 %
42 07-02-2012 13:00:00 -6.7 C 21.6667 %
43 07-02-2012 14:00:00 -5.38333 C 30.0000 %
44 07-02-2012 15:00:00 -5.36667 C 37.1667 %
45 07-02-2012 16:00:00 -5.98333 C 51.0000 %
46 07-02-2012 17:00:00 -6.75 C 61.5000 %
47 07-02-2012 18:00:00 -7.25 C 57.8333 %
48 07-02-2012 19:00:00 -7.78333 C 65.3333 %
49 07-02-2012 20:00:00 -7.93333 C 70.0000 %
50 07-02-2012 21:00:00 -7.9 C 64.3333 %
Sensor: Nr:Datum:Temp:Feuchte:
Aussen-T/F 51 07-02-2012 22:00:00 -7.66667 C 54.0000 %
52 07-02-2012 23:00:00 -7.61667 C 51.8333 %
53 08-02-2012 00:00:00 -7.63333 C 52.5000 %
54 08-02-2012 01:00:00 -7.35 C 51.5000 %
55 08-02-2012 02:00:00 -7.4 C 52.6667 %
56 08-02-2012 03:00:00 -7.48333 C 53.6667 %
57 08-02-2012 04:00:00 -8.03333 C 56.0000 %
58 08-02-2012 05:00:00 -9.3 C 61.1667 %
59 08-02-2012 06:00:00 -9.41667 C 63.3333 %
60 08-02-2012 07:00:00 -9.1 C 63.6667 %
61 08-02-2012 08:00:00 -8.46667 C 61.5000 %
62 08-02-2012 09:00:00 -7.31667 C 55.3333 %
63 08-02-2012 10:00:00 -6.38333 C 52.0000 %
64 08-02-2012 11:00:00 -5.1 C 48.5000 %
65 08-02-2012 12:00:00 -3.5 C 45.1667 %
66 08-02-2012 13:00:00 -3.63333 C 45.1667 %
67 08-02-2012 14:00:00 -2.33333 C 43.5000 %
68 08-02-2012 15:00:00 -1.75 C 42.1667 %
69 08-02-2012 16:00:00 -0.95 C 40.8333 %
70 08-02-2012 17:00:00 -5.48333 C 58.1667 %
71 08-02-2012 18:00:00 -6.7 C 61.0000 %
72 08-02-2012 19:00:00 -7.48333 C 64.8333 %
73 08-02-2012 20:00:00 -7.56667 C 62.8333 %
74 08-02-2012 21:00:00 -9.06667 C 65.5000 %
75 08-02-2012 22:00:00 -10.08333 C 68.6667 %
Sensor: Nr:Datum:Temp:Feuchte:
Aussen-T/F 76 08-02-2012 23:00:00 -9.91667 C 71.0000 %
77 09-02-2012 00:00:00 -11.36667 C 69.5000 %
78 09-02-2012 01:00:00 -12.2 C 69.8333 %
79 09-02-2012 02:00:00 -12.7 C 70.6667 %
80 09-02-2012 03:00:00 -13.3 C 70.3333 %
81 09-02-2012 04:00:00 -13.61667 C 70.0000 %
82 09-02-2012 05:00:00 -13.83333 C 70.3333 %
83 09-02-2012 06:00:00 -14.23333 C 69.0000 %
84 09-02-2012 07:00:00 -14.25 C 69.0000 %
85 09-02-2012 08:00:00 -13.51667 C 69.1667 %
86 09-02-2012 09:00:00 -9.81667 C 73.5000 %
87 09-02-2012 10:00:00 -8.66667 C 69.5000 %
88 09-02-2012 11:00:00 -6.73333 C 61.8333 %
89 09-02-2012 12:00:00 -5.35 C 57.0000 %
90 09-02-2012 13:00:00 -4.71667 C 61.3333 %
91 09-02-2012 14:00:00 -4.55 C 67.3333 %
92 09-02-2012 15:00:00 -4.13333 C 71.8333 %
93 09-02-2012 16:00:00 -3.81667 C 73.8333 %
94 09-02-2012 17:00:00 -4.9 C 76.6667 %
95 09-02-2012 18:00:00 -6.18333 C 80.1667 %
96 09-02-2012 19:00:00 -6.51667 C 81.3333 %
97 09-02-2012 20:00:00 -8.31667 C 79.1667 %
98 09-02-2012 21:00:00 -8.46667 C 79.0000 %
99 09-02-2012 22:00:00 -8.18333 C 80.1667 %
100 09-02-2012 23:00:00 -9.71667 C 78.0000 %
Sensor: Nr:Datum:Temp:Feuchte:
Aussen-T/F 101 10-02-2012 00:00:00 -11.05 C 74.8333 %
102 10-02-2012 01:00:00 -11.18333 C 74.8333 %
103 10-02-2012 02:00:00 -9.71667 C 77.3333 %
104 10-02-2012 03:00:00 -8.76667 C 78.5000 %
105 10-02-2012 04:00:00 -8.5 C 78.8333 %
106 10-02-2012 05:00:00 -8.63333 C 79.0000 %
107 10-02-2012 06:00:00 -7.88333 C 79.5000 %
108 10-02-2012 07:00:00 -8.36667 C 78.5000 %
109 10-02-2012 08:00:00 -9.26667 C 75.6667 %
110 10-02-2012 09:00:00 -8.66667 C 75.0000 %
111 10-02-2012 10:00:00 -6.45 C 65.8333 %
112 10-02-2012 11:00:00 -5.68333 C 54.3333 %
113 10-02-2012 12:00:00 -3.3 C 44.6667 %
114 10-02-2012 13:00:00 -3 C 38.8333 %
115 10-02-2012 14:00:00 -2.16667 C 36.8333 %
116 10-02-2012 15:00:00 -2.45 C 35.3333 %
117 10-02-2012 16:00:00 -0.68333 C 27.6667 %
118 10-02-2012 17:00:00 -5.46667 C 42.3333 %
119 10-02-2012 18:00:00 -8.05 C 55.6667 %
120 10-02-2012 19:00:00 -8.63333 C 60.6667 %
121 10-02-2012 20:00:00 -8.55 C 54.1667 %
122 10-02-2012 21:00:00 -8.45 C 47.5000 %
123 10-02-2012 22:00:00 -10.01667 C 49.0000 %
124 10-02-2012 23:00:00 -10.3 C 48.8333 %
125 11-02-2012 00:00:00 -11.86667 C 55.0000 %
Sensor: Nr:Datum:Temp:Feuchte:
Aussen-T/F 126 11-02-2012 01:00:00 -12.41667 C 57.6667 %
127 11-02-2012 02:00:00 -13.28333 C 59.1667 %
128 11-02-2012 03:00:00 -13.48333 C 60.6667 %
129 11-02-2012 04:00:00 -14.06667 C 62.0000 %
130 11-02-2012 05:00:00 -14.23333 C 65.0000 %
131 11-02-2012 06:00:00 -14.31667 C 65.8333 %
132 11-02-2012 07:00:00 -14.41667 C 66.3333 %
133 11-02-2012 08:00:00 -14.75 C 66.5000 %
134 11-02-2012 09:00:00 -12.58333 C 67.1667 %
135 11-02-2012 10:00:00 -10.58333 C 60.1667 %
136 11-02-2012 11:00:00 -8.38333 C 52.1667 %
137 11-02-2012 12:00:00 -4.51667 C 35.6667 %
138 11-02-2012 13:00:00 -3.78333 C 26.0000 %
139 11-02-2012 14:00:00 -2.86667 C 23.0000 %
140 11-02-2012 15:00:00 -1.8 C 20.0000 %
141 11-02-2012 16:00:00 0.33333 C 20.0000 %
142 11-02-2012 17:00:00 -5.55 C 38.3333 %
143 11-02-2012 18:00:00 -8.21667 C 52.0000 %
144 11-02-2012 19:00:00 -9.06667 C 54.5000 %
145 11-02-2012 20:00:00 -9.48333 C 54.8333 %
146 11-02-2012 21:00:00 -11.23333 C 61.6667 %
147 11-02-2012 22:00:00 -12.21667 C 65.3333 %
148 11-02-2012 23:00:00 -13.05 C 67.1667 %
149 12-02-2012 00:00:00 -13.63333 C 68.1667 %
150 12-02-2012 01:00:00 -14.23333 C 69.8333 %
Sensor: Nr:Datum:Temp:Feuchte:
Aussen-T/F 151 12-02-2012 02:00:00 -14.61667 C 70.3333 %
152 12-02-2012 03:00:00 -14.6 C 70.1667 %
153 12-02-2012 04:00:00 -14.9 C 68.6667 %
154 12-02-2012 05:00:00 -13.46667 C 70.1667 %
155 12-02-2012 06:00:00 -13.01667 C 70.8333 %
156 12-02-2012 07:00:00 -12.8 C 70.5000 %
157 12-02-2012 08:00:00 -11.66667 C 70.5000 %
158 12-02-2012 09:00:00 -10.23333 C 65.8333 %
159 12-02-2012 10:00:00 -10.13333 C 64.3333 %
160 12-02-2012 11:00:00 -8.1 C 62.8333 %
161 12-02-2012 12:00:00 -3.61667 C 50.0000 %
162 12-02-2012 13:00:00 -1.71667 C 30.1667 %
163 12-02-2012 14:00:00 -1.33333 C 27.3333 %
164 12-02-2012 15:00:00 -1.03333 C 27.8333 %
165 12-02-2012 16:00:00 -1.75 C 30.5000 %
166 12-02-2012 17:00:00 -2.58333 C 41.0000 %
167 12-02-2012 18:00:00 -2.83333 C 42.0000 %
168 12-02-2012 19:00:00 -3.05 C 46.6667 %
169 12-02-2012 20:00:00 -3.06667 C 46.8333 %
170 12-02-2012 21:00:00 -3.1 C 45.6667 %
171 12-02-2012 22:00:00 -3.16667 C 47.1667 %
172 12-02-2012 23:00:00 -3.2 C 47.3333 %
173 13-02-2012 00:00:00 -3.2 C 48.3333 %
174 13-02-2012 01:00:00 -3.28333 C 50.1667 %
175 13-02-2012 02:00:00 -3.3 C 53.5000 %
Sensor: Nr:Datum:Temp:Feuchte:
Aussen-T/F 176 13-02-2012 03:00:00 -3.31667 C 56.0000 %
177 13-02-2012 04:00:00 -3.33333 C 56.0000 %
178 13-02-2012 05:00:00 -3.25 C 55.0000 %
179 13-02-2012 06:00:00 -3.11667 C 54.5000 %
180 13-02-2012 07:00:00 -2.91667 C 55.5000 %
181 13-02-2012 08:00:00 -2.36667 C 54.1667 %
182 13-02-2012 09:00:00 -1.53333 C 52.3333 %
183 13-02-2012 10:00:00 -1.03333 C 61.0000 %
184 13-02-2012 11:00:00 -1.13333 C 74.5000 %
185 13-02-2012 12:00:00 -0.48333 C 77.1667 %
186 13-02-2012 13:00:00 0.25 C 77.1667 %
187 13-02-2012 14:00:00 0.58 C 77.4000 %
188 13-02-2012 15:00:00 0.75714 C 77.1429 %
189 13-02-2012 16:00:00 0.42 C 80.8000 %
190 13-02-2012 17:00:00 0.3 C 84.8333 %
191 13-02-2012 18:00:00 -0.11667 C 87.0000 %
192 13-02-2012 19:00:00 -0.25 C 88.0000 %
193 13-02-2012 20:00:00 -0.1 C 89.0000 %
194 13-02-2012 21:00:00 0.23333 C 89.0000 %
195 13-02-2012 22:00:00 0.28333 C 90.1667 %
196 13-02-2012 23:00:00 0.2 C 91.5000 %
197 14-02-2012 00:00:00 0.03333 C 92.0000 %
198 14-02-2012 01:00:00 0.1 C 92.8333 %
199 14-02-2012 02:00:00 0 C 92.5000 %
200 14-02-2012 03:00:00 -0.13333 C 92.8333 %
Sensor: Nr:Datum:Temp:Feuchte:
Aussen-T/F 201 14-02-2012 04:00:00 -0.26667 C 93.0000 %
202 14-02-2012 05:00:00 0.06667 C 93.0000 %
203 14-02-2012 06:00:00 0.4 C 91.5000 %
204 14-02-2012 07:00:00 0.48333 C 88.3333 %
205 14-02-2012 08:00:00 0.58333 C 87.5000 %
206 14-02-2012 09:00:00 0.7 C 88.3333 %
207 14-02-2012 10:00:00 1.13333 C 87.8333 %
208 14-02-2012 11:00:00 0.93333 C 87.8333 %
209 14-02-2012 12:00:00 1.61667 C 88.6667 %
210 14-02-2012 13:00:00 2.23333 C 87.6667 %
211 14-02-2012 14:00:00 2.36667 C 87.1667 %
212 14-02-2012 15:00:00 2.28333 C 88.0000 %
213 14-02-2012 16:00:00 1.9 C 88.5000 %
214 14-02-2012 17:00:00 1.76667 C 89.0000 %
215 14-02-2012 18:00:00 2.15 C 86.0000 %
216 14-02-2012 19:00:00 2.18333 C 83.8333 %
217 14-02-2012 20:00:00 2.1 C 82.8333 %
218 14-02-2012 21:00:00 1.93333 C 84.1667 %
219 14-02-2012 22:00:00 1.66667 C 86.3333 %
220 15-02-2012 13:00:00 4.45 C 69.1667 %
221 15-02-2012 14:00:00 4.2 C 70.3333 %
222 15-02-2012 15:00:00 4.26667 C 69.6667 %
223 15-02-2012 16:00:00 4.2 C 69.1667 %
224 15-02-2012 17:00:00 3.91667 C 70.8333 %
225 15-02-2012 18:00:00 3.61667 C 71.6667 %
Sensor: Nr:Datum:Temp:Feuchte:
Aussen-T/F 226 15-02-2012 19:00:00 3.3 C 71.8333 %
227 15-02-2012 20:00:00 2.58333 C 74.0000 %
228 15-02-2012 21:00:00 2.53333 C 74.8333 %
229 15-02-2012 22:00:00 1.6 C 79.6667 %
230 15-02-2012 23:00:00 1.45 C 83.0000 %
231 16-02-2012 00:00:00 1.93333 C 78.6667 %
232 16-02-2012 01:00:00 1.45 C 84.8333 %
233 16-02-2012 02:00:00 1.48333 C 87.1667 %
234 16-02-2012 03:00:00 1.65 C 86.8333 %
235 16-02-2012 04:00:00 1.9 C 82.8333 %
236 16-02-2012 05:00:00 1.21667 C 83.8333 %
237 16-02-2012 06:00:00 1.18333 C 86.3333 %
238 16-02-2012 07:00:00 1.55 C 84.8333 %
239 16-02-2012 08:00:00 1.71667 C 82.8333 %
240 16-02-2012 09:00:00 2.75 C 80.1667 %
241 16-02-2012 10:00:00 3.33333 C 74.1667 %
242 16-02-2012 11:00:00 3 C 82.0000 %
243 16-02-2012 12:00:00 3.56667 C 83.0000 %
244 16-02-2012 13:00:00 4.73333 C 78.3333 %
245 16-02-2012 14:00:00 5.86667 C 70.8333 %
246 16-02-2012 15:00:00 5.93333 C 72.5000 %
247 16-02-2012 16:00:00 5.05 C 83.8333 %
248 16-02-2012 17:00:00 4.63333 C 87.6667 %
249 16-02-2012 18:00:00 3.98333 C 88.8333 %
250 16-02-2012 19:00:00 3.95 C 90.0000 %
Sensor: Nr:Datum:Temp:Feuchte:
Aussen-T/F 251 16-02-2012 20:00:00 3.7 C 89.6667 %
252 16-02-2012 21:00:00 3.7 C 90.0000 %
253 16-02-2012 22:00:00 3.9 C 88.8333 %
254 16-02-2012 23:00:00 3.8 C 86.1667 %
255 17-02-2012 00:00:00 4.38333 C 81.0000 %
256 17-02-2012 01:00:00 4.28333 C 78.6667 %
257 17-02-2012 02:00:00 4.28333 C 78.6667 %
258 17-02-2012 03:00:00 3.88333 C 81.3333 %
259 17-02-2012 04:00:00 4.55 C 75.6667 %
260 17-02-2012 05:00:00 4.23333 C 77.5000 %
261 17-02-2012 06:00:00 4.3 C 80.5000 %
262 17-02-2012 07:00:00 4.65 C 77.3333 %
263 17-02-2012 08:00:00 4.66667 C 78.0000 %
264 17-02-2012 09:00:00 5.48333 C 72.8333 %
265 17-02-2012 10:00:00 5.98333 C 72.5000 %
266 17-02-2012 11:00:00 6.93333 C 67.1667 %
267 17-02-2012 12:00:00 6.51667 C 70.0000 %
268 17-02-2012 13:00:00 6.53333 C 69.8333 %
269 17-02-2012 14:00:00 6.61667 C 71.0000 %
270 17-02-2012 15:00:00 6.45 C 71.8333 %
271 17-02-2012 16:00:00 5.7 C 80.3333 %
272 17-02-2012 17:00:00 5.61667 C 83.8333 %
273 17-02-2012 18:00:00 5.6 C 81.8333 %
274 17-02-2012 19:00:00 5.01667 C 83.1667 %
275 17-02-2012 20:00:00 5.2 C 80.6667 %
Sensor: Nr:Datum:Temp:Feuchte:
Aussen-T/F 276 17-02-2012 21:00:00 5.21667 C 79.0000 %
277 17-02-2012 22:00:00 5.05 C 79.1667 %
278 17-02-2012 23:00:00 5.06667 C 78.8333 %
279 18-02-2012 00:00:00 4.83333 C 80.3333 %
280 18-02-2012 01:00:00 4.4 C 83.5000 %
281 18-02-2012 02:00:00 4.86667 C 80.6667 %
282 18-02-2012 03:00:00 5.1 C 80.1667 %
283 18-02-2012 04:00:00 4.93333 C 82.3333 %
284 18-02-2012 05:00:00 5.03333 C 83.0000 %
285 18-02-2012 06:00:00 4.53333 C 86.1667 %
286 18-02-2012 07:00:00 5.4 C 83.0000 %
287 18-02-2012 08:00:00 5.53333 C 82.3333 %
288 18-02-2012 09:00:00 6.35 C 76.6667 %
289 18-02-2012 10:00:00 6.71667 C 73.0000 %
290 18-02-2012 11:00:00 7.66667 C 67.3333 %
291 18-02-2012 12:00:00 7.36667 C 68.6667 %
292 18-02-2012 13:00:00 7.4 C 69.0000 %
293 18-02-2012 14:00:00 7.43333 C 69.3333 %
294 18-02-2012 15:00:00 7.61667 C 68.8333 %
295 18-02-2012 16:00:00 7.45 C 69.6667 %
296 18-02-2012 17:00:00 6.86667 C 71.8333 %
297 18-02-2012 18:00:00 6.4 C 75.6667 %
298 18-02-2012 19:00:00 6.45 C 76.6667 %
299 18-02-2012 20:00:00 7.06667 C 73.0000 %
300 18-02-2012 21:00:00 7.26667 C 72.1667 %
Sensor: Nr:Datum:Temp:Feuchte:
Aussen-T/F 301 18-02-2012 22:00:00 7.23333 C 72.0000 %
302 18-02-2012 23:00:00 7.13333 C 71.3333 %
303 19-02-2012 00:00:00 6.43333 C 77.5000 %
304 19-02-2012 01:00:00 6.81667 C 76.1667 %
305 19-02-2012 02:00:00 6.95 C 74.0000 %
306 19-02-2012 03:00:00 3.53333 C 80.5000 %
307 19-02-2012 04:00:00 2.38333 C 85.0000 %
308 19-02-2012 05:00:00 1.91667 C 87.3333 %
309 19-02-2012 06:00:00 1.06667 C 89.5000 %
310 19-02-2012 07:00:00 1.9 C 82.5000 %
311 19-02-2012 08:00:00 2.26667 C 71.5000 %
312 19-02-2012 09:00:00 3.05 C 69.0000 %
313 19-02-2012 10:00:00 4.38333 C 61.3333 %
314 19-02-2012 11:00:00 4 C 61.5000 %
315 19-02-2012 12:00:00 2.71667 C 79.3333 %
316 19-02-2012 13:00:00 3.16667 C 73.8333 %
317 19-02-2012 14:00:00 0.83333 C 85.1667 %
318 19-02-2012 15:00:00 2.31667 C 77.3333 %
319 19-02-2012 16:00:00 3.61667 C 70.1667 %
320 19-02-2012 17:00:00 2.08333 C 72.5000 %
321 19-02-2012 18:00:00 1.3 C 73.5000 %
322 19-02-2012 19:00:00 0.06667 C 84.6667 %
323 19-02-2012 20:00:00 0.75 C 85.1667 %
324 19-02-2012 21:00:00 0.76667 C 83.0000 %
325 19-02-2012 22:00:00 0.96667 C 79.3333 %
Sensor: Nr:Datum:Temp:Feuchte:
Aussen-T/F 326 19-02-2012 23:00:00 0.61667 C 78.8333 %
327 20-02-2012 00:00:00 0.8 C 80.6667 %
328 20-02-2012 01:00:00 0.73333 C 78.6667 %
329 20-02-2012 02:00:00 -0.15 C 83.3333 %
330 20-02-2012 03:00:00 0.36667 C 83.8333 %
331 20-02-2012 04:00:00 -0.98333 C 79.1667 %
332 20-02-2012 05:00:00 -1.11667 C 86.3333 %
333 20-02-2012 06:00:00 -0.68333 C 88.3333 %
334 20-02-2012 07:00:00 -0.35 C 88.6667 %
335 20-02-2012 08:00:00 0.26667 C 88.0000 %
336 20-02-2012 09:00:00 1.23333 C 79.1667 %
337 20-02-2012 10:00:00 2.25 C 68.1667 %
338 20-02-2012 11:00:00 2.93333 C 62.8333 %
339 20-02-2012 12:00:00 4.1 C 49.6667 %
340 20-02-2012 13:00:00 4.6 C 44.1667 %
341 20-02-2012 14:00:00 4.91667 C 43.1667 %
342 20-02-2012 15:00:00 5.18333 C 42.3333 %
343 20-02-2012 16:00:00 5.95 C 42.0000 %
344 20-02-2012 17:00:00 2.8 C 57.3333 %
345 20-02-2012 18:00:00 -0.8 C 73.0000 %
346 20-02-2012 19:00:00 -1.6 C 80.8333 %
347 20-02-2012 20:00:00 -2.51667 C 84.0000 %
348 20-02-2012 21:00:00 -3.06667 C 85.6667 %
349 20-02-2012 22:00:00 -3.73333 C 86.0000 %
350 20-02-2012 23:00:00 -4.15 C 86.5000 %
Sensor: Nr:Datum:Temp:Feuchte:
Aussen-T/F 351 21-02-2012 00:00:00 -4.33333 C 86.0000 %
352 21-02-2012 01:00:00 -4.03333 C 86.8333 %
353 21-02-2012 02:00:00 -4.61667 C 86.8333 %
354 21-02-2012 03:00:00 -3.9 C 87.6667 %
355 21-02-2012 04:00:00 -3.68333 C 87.1667 %
356 21-02-2012 05:00:00 -3.8 C 86.0000 %
357 21-02-2012 06:00:00 -4.48333 C 85.8333 %
358 21-02-2012 07:00:00 -3.85 C 86.0000 %
359 21-02-2012 08:00:00 -1.76667 C 81.6667 %
360 21-02-2012 09:00:00 0.43333 C 65.5000 %
361 21-02-2012 10:00:00 1.78333 C 55.5000 %
362 21-02-2012 11:00:00 3.38333 C 49.0000 %
363 21-02-2012 12:00:00 5.63333 C 44.0000 %
364 21-02-2012 13:00:00 6.73333 C 42.3333 %
365 21-02-2012 14:00:00 7.51667 C 42.5000 %
366 21-02-2012 15:00:00 7.21667 C 44.3333 %
367 21-02-2012 16:00:00 6.46667 C 47.5000 %
368 21-02-2012 17:00:00 5.41667 C 52.3333 %
369 21-02-2012 18:00:00 4.13333 C 58.5000 %
370 21-02-2012 19:00:00 3.63333 C 59.3333 %
371 21-02-2012 20:00:00 3.66667 C 58.6667 %
372 21-02-2012 21:00:00 3.3 C 60.0000 %
373 21-02-2012 22:00:00 2.08333 C 65.5000 %
374 21-02-2012 23:00:00 -0.06667 C 76.3333 %
375 22-02-2012 00:00:00 -0.48333 C 82.5000 %
Sensor: Nr:Datum:Temp:Feuchte:
Aussen-T/F 376 22-02-2012 01:00:00 -0.88333 C 83.8333 %
377 22-02-2012 02:00:00 -1.03333 C 85.0000 %
378 22-02-2012 03:00:00 -1.06667 C 85.3333 %
379 22-02-2012 04:00:00 -1.66667 C 85.6667 %
380 22-02-2012 05:00:00 -2.33333 C 86.1667 %
381 22-02-2012 06:00:00 -2.73333 C 87.0000 %
382 22-02-2012 07:00:00 -3.1 C 87.6667 %
383 22-02-2012 08:00:00 -2.68333 C 88.6667 %
384 22-02-2012 09:00:00 -1.5 C 89.0000 %
385 22-02-2012 10:00:00 -0.1 C 88.8333 %
386 22-02-2012 11:00:00 2.78333 C 77.8333 %
387 22-02-2012 12:00:00 8.1 C 50.0000 %
388 22-02-2012 13:00:00 9.06667 C 42.0000 %
389 22-02-2012 14:00:00 9.26667 C 43.6667 %
390 22-02-2012 15:00:00 10.18333 C 40.5000 %
391 22-02-2012 16:00:00 8.9 C 46.0000 %
392 22-02-2012 17:00:00 5.65 C 60.5000 %
393 22-02-2012 18:00:00 3.8 C 70.1667 %
394 22-02-2012 19:00:00 3.53333 C 70.6667 %
395 22-02-2012 20:00:00 4.41667 C 63.0000 %
396 22-02-2012 21:00:00 4.8 C 60.3333 %
397 22-02-2012 22:00:00 5.5 C 55.3333 %
398 22-02-2012 23:00:00 5.65 C 53.5000 %
399 23-02-2012 00:00:00 5.65 C 52.5000 %
400 23-02-2012 01:00:00 5.05 C 56.6667 %
Sensor: Nr:Datum:Temp:Feuchte:
Aussen-T/F 401 23-02-2012 02:00:00 5.13333 C 56.6667 %
402 23-02-2012 03:00:00 5.51667 C 53.1667 %
403 23-02-2012 04:00:00 5.28333 C 55.3333 %
404 23-02-2012 05:00:00 4.76667 C 66.0000 %
405 23-02-2012 06:00:00 4.46667 C 71.3333 %
406 23-02-2012 07:00:00 4.38333 C 73.6667 %
407 23-02-2012 08:00:00 4.68333 C 72.1667 %
408 23-02-2012 09:00:00 4.81667 C 73.0000 %
409 23-02-2012 10:00:00 5.35 C 71.8333 %
410 23-02-2012 11:00:00 6.53333 C 65.1667 %
411 23-02-2012 12:00:00 7.18333 C 62.5000 %
412 23-02-2012 13:00:00 7.65 C 63.0000 %
413 23-02-2012 14:00:00 7.78333 C 62.8333 %
414 23-02-2012 15:00:00 7.83333 C 63.6667 %
415 23-02-2012 16:00:00 7.6 C 65.5000 %
416 23-02-2012 17:00:00 6.8 C 70.6667 %
417 23-02-2012 18:00:00 6.41667 C 73.8333 %
418 23-02-2012 19:00:00 6.3 C 75.6667 %
419 23-02-2012 20:00:00 6.21667 C 78.0000 %
420 23-02-2012 21:00:00 6.35 C 79.0000 %
421 23-02-2012 22:00:00 6.6 C 78.1667 %
422 23-02-2012 23:00:00 6.76667 C 78.0000 %
423 24-02-2012 00:00:00 6.96667 C 77.5000 %
424 24-02-2012 01:00:00 7.23333 C 76.8333 %
425 24-02-2012 02:00:00 7.25 C 77.0000 %
Sensor: Nr:Datum:Temp:Feuchte:
Aussen-T/F 426 24-02-2012 03:00:00 7.3 C 77.0000 %
427 24-02-2012 04:00:00 7.31667 C 77.5000 %
428 24-02-2012 05:00:00 7.41667 C 78.0000 %
429 24-02-2012 06:00:00 7.38333 C 78.8333 %
430 24-02-2012 07:00:00 7.63333 C 78.8333 %
431 24-02-2012 08:00:00 8.1 C 76.1667 %
432 24-02-2012 09:00:00 8.63333 C 73.8333 %
433 24-02-2012 10:00:00 9.6 C 69.8333 %
434 24-02-2012 11:00:00 10.88333 C 65.1667 %
435 24-02-2012 12:00:00 11.51667 C 63.3333 %
436 24-02-2012 13:00:00 11.5 C 63.6667 %
437 24-02-2012 14:00:00 11.18333 C 65.5000 %
438 24-02-2012 15:00:00 11.76667 C 63.5000 %
439 24-02-2012 16:00:00 10.98333 C 68.0000 %
440 24-02-2012 17:00:00 10.61667 C 71.3333 %
441 24-02-2012 18:00:00 10.16667 C 74.0000 %
442 24-02-2012 19:00:00 10.05 C 75.0000 %
443 24-02-2012 20:00:00 9.9 C 75.1667 %
444 24-02-2012 21:00:00 9.9 C 72.8333 %
445 24-02-2012 22:00:00 10.05 C 72.3333 %
446 24-02-2012 23:00:00 10.21667 C 71.0000 %
447 25-02-2012 00:00:00 9.11667 C 81.0000 %
448 25-02-2012 01:00:00 8.61667 C 86.3333 %
449 25-02-2012 02:00:00 8.53333 C 87.3333 %
450 25-02-2012 03:00:00 8.26667 C 86.6667 %
Sensor: Nr:Datum:Temp:Feuchte:
Aussen-T/F 451 25-02-2012 04:00:00 7.81667 C 85.8333 %
452 25-02-2012 05:00:00 7.41667 C 85.1667 %
453 25-02-2012 06:00:00 7.01667 C 84.0000 %
454 25-02-2012 07:00:00 6.31667 C 86.3333 %
455 25-02-2012 08:00:00 6.76667 C 86.8333 %
456 25-02-2012 09:00:00 7.38333 C 85.0000 %
457 25-02-2012 10:00:00 9.5 C 75.3333 %
458 25-02-2012 11:00:00 11.08333 C 62.6667 %
459 25-02-2012 12:00:00 12.35 C 46.5000 %
460 25-02-2012 13:00:00 13.31667 C 45.0000 %
461 25-02-2012 14:00:00 12.26667 C 46.5000 %
462 25-02-2012 15:00:00 11.53333 C 46.0000 %
463 25-02-2012 16:00:00 11.48333 C 46.8333 %
464 25-02-2012 17:00:00 9.31667 C 53.6667 %
465 25-02-2012 18:00:00 6.91667 C 58.0000 %
466 25-02-2012 19:00:00 5.96667 C 60.8333 %
467 25-02-2012 20:00:00 6.28333 C 59.3333 %
468 25-02-2012 21:00:00 6.13333 C 59.5000 %
469 25-02-2012 22:00:00 6.26667 C 59.3333 %
470 25-02-2012 23:00:00 6 C 61.1667 %
471 26-02-2012 00:00:00 5.66667 C 63.8333 %
472 26-02-2012 01:00:00 5.3 C 64.8333 %
473 26-02-2012 02:00:00 4.96667 C 67.3333 %
474 26-02-2012 03:00:00 4.53333 C 71.8333 %
475 26-02-2012 04:00:00 4.16667 C 75.6667 %
Sensor: Nr:Datum:Temp:Feuchte:
Aussen-T/F 476 26-02-2012 05:00:00 4.08333 C 77.0000 %
477 26-02-2012 06:00:00 3.95 C 81.0000 %
478 26-02-2012 07:00:00 4.16667 C 79.6667 %
479 26-02-2012 08:00:00 4.5 C 80.5000 %
480 26-02-2012 09:00:00 4.61667 C 80.1667 %
481 26-02-2012 10:00:00 4.7 C 83.0000 %
482 26-02-2012 11:00:00 4.96667 C 84.5000 %
483 26-02-2012 12:00:00 5.53333 C 84.8333 %
484 26-02-2012 13:00:00 6.01667 C 81.3333 %
485 26-02-2012 14:00:00 6.58333 C 75.6667 %
486 26-02-2012 15:00:00 6.7 C 75.0000 %
487 26-02-2012 16:00:00 6.7 C 75.0000 %
488 26-02-2012 17:00:00 6.05 C 78.8333 %
489 26-02-2012 18:00:00 5.26667 C 81.3333 %
490 26-02-2012 19:00:00 4.63333 C 85.8333 %
491 26-02-2012 20:00:00 4.5 C 87.1667 %
492 26-02-2012 21:00:00 3.66667 C 88.3333 %
493 26-02-2012 22:00:00 4.18333 C 89.8333 %
494 26-02-2012 23:00:00 3.83333 C 90.0000 %
495 27-02-2012 00:00:00 3.28333 C 90.8333 %
496 27-02-2012 01:00:00 3.63333 C 90.6667 %
497 27-02-2012 02:00:00 3.78333 C 89.8333 %
498 27-02-2012 03:00:00 3.81667 C 88.5000 %
499 27-02-2012 04:00:00 3.7 C 88.0000 %
500 27-02-2012 05:00:00 2.66667 C 89.1667 %
Sensor: Nr:Datum:Temp:Feuchte:
Aussen-T/F 501 27-02-2012 06:00:00 1.9 C 90.1667 %
502 27-02-2012 07:00:00 2.51667 C 90.8333 %
503 27-02-2012 08:00:00 3.22 C 86.0000 %
504 27-02-2012 09:00:00 3.88333 C 80.1667 %
505 27-02-2012 10:00:00 5.18333 C 73.3333 %
506 27-02-2012 11:00:00 6.78333 C 63.3333 %
507 27-02-2012 12:00:00 7.96667 C 51.5000 %
508 27-02-2012 13:00:00 9.65 C 44.8333 %
509 27-02-2012 14:00:00 9.28333 C 44.1667 %
510 27-02-2012 15:00:00 9.53333 C 43.6667 %
511 27-02-2012 16:00:00 9.48333 C 44.1667 %
512 27-02-2012 17:00:00 8.4 C 53.6667 %
513 27-02-2012 18:00:00 6.95 C 61.5000 %
514 27-02-2012 19:00:00 6.75 C 64.0000 %
515 27-02-2012 20:00:00 6.93333 C 63.3333 %
516 27-02-2012 21:00:00 6.68333 C 68.0000 %
517 27-02-2012 22:00:00 6.73333 C 69.3333 %
518 27-02-2012 23:00:00 7.15 C 66.0000 %
519 28-02-2012 00:00:00 7.05 C 69.1667 %
520 28-02-2012 01:00:00 6.91667 C 73.3333 %
521 28-02-2012 02:00:00 6.76667 C 74.3333 %
522 28-02-2012 03:00:00 6.85 C 74.1667 %
523 28-02-2012 04:00:00 6.63333 C 76.3333 %
524 28-02-2012 05:00:00 6.65 C 77.8333 %
525 28-02-2012 06:00:00 6.71667 C 78.5000 %
Sensor: Nr:Datum:Temp:Feuchte:
Aussen-T/F 526 28-02-2012 07:00:00 6.81667 C 76.1667 %
527 28-02-2012 08:00:00 7.38333 C 72.1667 %
528 28-02-2012 09:00:00 8.26667 C 67.8333 %
529 28-02-2012 10:00:00 8.76667 C 66.6667 %
530 28-02-2012 11:00:00 9.81667 C 62.3333 %
531 28-02-2012 12:00:00 10.73333 C 59.5000 %
532 28-02-2012 13:00:00 10.18333 C 63.1667 %
533 28-02-2012 14:00:00 10.5 C 63.1667 %
534 28-02-2012 15:00:00 10.53333 C 63.6667 %
535 28-02-2012 16:00:00 9.83333 C 68.8333 %
536 28-02-2012 17:00:00 9.33333 C 73.6667 %
537 28-02-2012 18:00:00 9.28333 C 74.1667 %
538 28-02-2012 19:00:00 9.58333 C 73.3333 %
539 28-02-2012 20:00:00 9.33333 C 75.6667 %
540 28-02-2012 21:00:00 9.2 C 78.5000 %
541 28-02-2012 22:00:00 9.28333 C 77.1667 %
542 28-02-2012 23:00:00 9.3 C 76.0000 %
543 29-02-2012 00:00:00 8.8 C 79.8333 %
544 29-02-2012 01:00:00 8.45 C 83.5000 %
545 29-02-2012 02:00:00 8.31667 C 86.5000 %
546 29-02-2012 03:00:00 8.2 C 87.5000 %
547 29-02-2012 04:00:00 8.26667 C 87.3333 %
548 29-02-2012 05:00:00 8.23333 C 87.0000 %
549 29-02-2012 06:00:00 8.2 C 87.0000 %
550 29-02-2012 07:00:00 8.2 C 88.1667 %
Sensor: Nr:Datum:Temp:Feuchte:
Aussen-T/F 551 29-02-2012 08:00:00 8.4 C 89.0000 %
552 29-02-2012 09:00:00 8.78333 C 88.5000 %
553 29-02-2012 10:00:00 9.46667 C 85.1667 %
554 29-02-2012 11:00:00 10.58333 C 78.8333 %
555 29-02-2012 12:00:00 11.91667 C 71.5000 %
556 29-02-2012 13:00:00 12.86667 C 66.8333 %
557 29-02-2012 14:00:00 12.91667 C 67.0000 %
558 29-02-2012 15:00:00 13.16667 C 65.6667 %
559 29-02-2012 16:00:00 13.15 C 66.3333 %
560 29-02-2012 17:00:00 12.06667 C 70.6667 %
561 29-02-2012 18:00:00 8.95 C 81.8333 %
562 29-02-2012 19:00:00 7.93333 C 87.0000 %
563 29-02-2012 20:00:00 8.55 C 89.3333 %
564 29-02-2012 21:00:00 7.9 C 89.6667 %
565 29-02-2012 22:00:00 8.18333 C 90.0000 %
566 29-02-2012 23:00:00 8.31667 C 90.1667 %
567 01-03-2012 00:00:00 8.23333 C 90.0000 %
568 01-03-2012 01:00:00 7.93333 C 90.8333 %
569 01-03-2012 02:00:00 7.93333 C 90.6667 %
570 01-03-2012 03:00:00 7.95 C 90.5000 %
571 01-03-2012 04:00:00 7.93333 C 90.6667 %
572 01-03-2012 05:00:00 7.88333 C 91.5000 %
573 01-03-2012 06:00:00 7.76667 C 92.0000 %
574 01-03-2012 07:00:00 7.71667 C 92.0000 %
575 01-03-2012 08:00:00 7.96667 C 91.0000 %
Sensor: Nr:Datum:Temp:Feuchte:
Aussen-T/F 576 01-03-2012 09:00:00 8.36667 C 85.8333 %
577 01-03-2012 10:00:00 9 C 79.8333 %
578 01-03-2012 11:00:00 9.56667 C 76.1667 %
579 01-03-2012 12:00:00 10.33333 C 73.0000 %
580 01-03-2012 13:00:00 11.43333 C 68.3333 %
581 01-03-2012 14:00:00 11.45 C 68.6667 %
582 01-03-2012 15:00:00 11.71667 C 68.0000 %
583 01-03-2012 16:00:00 11.45 C 69.5000 %
584 01-03-2012 17:00:00 10.71667 C 74.3333 %
585 01-03-2012 18:00:00 10.1 C 78.6667 %
586 01-03-2012 19:00:00 9.8 C 81.3333 %
587 01-03-2012 20:00:00 9.6 C 83.3333 %
588 01-03-2012 21:00:00 9.38333 C 84.3333 %
589 01-03-2012 22:00:00 9.3 C 85.5000 %
590 01-03-2012 23:00:00 8.76667 C 87.5000 %
591 02-03-2012 00:00:00 8.4 C 88.6667 %
592 02-03-2012 01:00:00 8.1 C 89.5000 %
593 02-03-2012 02:00:00 7.93333 C 90.6667 %
594 02-03-2012 03:00:00 7.81667 C 91.0000 %
595 02-03-2012 04:00:00 7.63333 C 91.1667 %
596 02-03-2012 05:00:00 7.5 C 92.0000 %
597 02-03-2012 06:00:00 7.3 C 91.1667 %
598 02-03-2012 07:00:00 7.15 C 91.0000 %
599 02-03-2012 08:00:00 7.41667 C 90.8333 %
600 02-03-2012 09:00:00 8.05 C 88.1667 %
Sensor: Nr:Datum:Temp:Feuchte:
Aussen-T/F 601 02-03-2012 10:00:00 8.96667 C 79.8333 %
602 02-03-2012 11:00:00 9.53333 C 76.0000 %
603 02-03-2012 12:00:00 10.45 C 70.1667 %
604 02-03-2012 13:00:00 11.15 C 66.6667 %
605 02-03-2012 14:00:00 12.38333 C 60.8333 %
606 02-03-2012 15:00:00 12.1 C 61.3333 %
607 02-03-2012 16:00:00 10.83333 C 67.3333 %
608 02-03-2012 17:00:00 9.78333 C 72.1667 %
609 02-03-2012 18:00:00 8.95 C 77.0000 %
610 02-03-2012 19:00:00 8.48333 C 80.0000 %
611 02-03-2012 20:00:00 8.05 C 83.0000 %
612 02-03-2012 21:00:00 7.56667 C 85.8333 %
613 02-03-2012 22:00:00 7.5 C 86.3333 %
614 02-03-2012 23:00:00 7.28333 C 86.0000 %
615 03-03-2012 00:00:00 7.26667 C 87.1667 %
616 03-03-2012 01:00:00 7.25 C 88.3333 %
617 03-03-2012 02:00:00 7.2 C 88.8333 %
618 03-03-2012 03:00:00 7.11667 C 86.6667 %
619 03-03-2012 04:00:00 7.06667 C 85.6667 %
620 03-03-2012 05:00:00 7.05 C 85.3333 %
621 03-03-2012 06:00:00 7 C 86.5000 %
622 03-03-2012 07:00:00 7.08333 C 86.6667 %
623 03-03-2012 08:00:00 7.2 C 84.8333 %
624 03-03-2012 09:00:00 7.6 C 81.6667 %
625 03-03-2012 10:00:00 8.15 C 74.6667 %
Sensor: Nr:Datum:Temp:Feuchte:
Aussen-T/F 626 03-03-2012 11:00:00 8.16667 C 74.6667 %
627 03-03-2012 12:00:00 8.78333 C 73.3333 %
628 03-03-2012 13:00:00 9.1 C 69.3333 %
629 03-03-2012 14:00:00 8.78333 C 70.5000 %
630 03-03-2012 15:00:00 9.1 C 68.3333 %
631 03-03-2012 16:00:00 9.3 C 67.0000 %
632 03-03-2012 17:00:00 9 C 69.8333 %
633 03-03-2012 18:00:00 8.11667 C 77.0000 %
634 03-03-2012 19:00:00 7.81667 C 79.1667 %
635 03-03-2012 20:00:00 7.61667 C 79.0000 %
636 03-03-2012 21:00:00 7.71667 C 78.0000 %
637 03-03-2012 22:00:00 7.91667 C 75.6667 %
638 03-03-2012 23:00:00 8.11667 C 74.1667 %
639 04-03-2012 00:00:00 7.73333 C 75.0000 %
640 04-03-2012 01:00:00 6.01667 C 82.5000 %
641 04-03-2012 02:00:00 5.61667 C 87.5000 %
642 04-03-2012 03:00:00 4.82 C 89.0000 %
643 04-03-2012 04:00:00 4.48333 C 89.6667 %
644 04-03-2012 05:00:00 4.41667 C 90.5000 %
645 04-03-2012 06:00:00 4.91667 C 91.0000 %
646 04-03-2012 07:00:00 5.55 C 91.0000 %
647 04-03-2012 08:00:00 7.08333 C 86.3333 %
648 04-03-2012 09:00:00 9.35 C 68.3333 %
649 04-03-2012 10:00:00 10.46667 C 63.5000 %
650 04-03-2012 11:00:00 12 C 57.5000 %
Sensor: Nr:Datum:Temp:Feuchte:
Aussen-T/F 651 04-03-2012 12:00:00 13.03333 C 48.1667 %
652 04-03-2012 13:00:00 13.48333 C 44.3333 %
653 04-03-2012 14:00:00 13.08333 C 43.0000 %
654 04-03-2012 15:00:00 12.45 C 44.1667 %
655 04-03-2012 16:00:00 11.11667 C 51.6667 %
656 04-03-2012 17:00:00 10.65 C 53.6667 %
657 04-03-2012 18:00:00 9.21667 C 61.8333 %
658 04-03-2012 19:00:00 8.86667 C 61.6667 %
659 04-03-2012 20:00:00 9.25 C 56.6667 %
660 04-03-2012 21:00:00 8.3 C 62.5000 %
661 04-03-2012 22:00:00 7.65 C 67.3333 %
662 04-03-2012 23:00:00 7.35 C 69.5000 %
663 05-03-2012 00:00:00 6.58333 C 73.6667 %
664 05-03-2012 01:00:00 7 C 69.6667 %
665 05-03-2012 02:00:00 6.38333 C 78.3333 %
666 05-03-2012 03:00:00 6.01667 C 84.8333 %
667 05-03-2012 04:00:00 5.81667 C 87.6667 %
668 05-03-2012 05:00:00 5.11667 C 84.5000 %
669 05-03-2012 06:00:00 4 C 78.6667 %
670 05-03-2012 07:00:00 3.71667 C 74.3333 %
671 05-03-2012 08:00:00 4.08333 C 70.8333 %
672 05-03-2012 09:00:00 5.31667 C 61.5000 %
673 05-03-2012 10:00:00 5.91667 C 55.6667 %
674 05-03-2012 11:00:00 6.31667 C 50.0000 %
675 05-03-2012 12:00:00 6.55 C 47.8333 %
Sensor: Nr:Datum:Temp:Feuchte:
Aussen-T/F 676 05-03-2012 13:00:00 6.85 C 46.6667 %
677 05-03-2012 14:00:00 6.53333 C 47.1667 %
678 05-03-2012 15:00:00 6.66667 C 46.1667 %
679 05-03-2012 16:00:00 6.23333 C 48.8333 %
680 05-03-2012 17:00:00 5.91667 C 52.3333 %
681 05-03-2012 18:00:00 5.28333 C 56.0000 %
682 05-03-2012 19:00:00 4.78333 C 61.3333 %
683 05-03-2012 20:00:00 4.73333 C 61.0000 %
684 05-03-2012 21:00:00 4.56667 C 62.8333 %
685 05-03-2012 22:00:00 4.23333 C 65.6667 %
686 05-03-2012 23:00:00 4.46667 C 63.6667 %
687 06-03-2012 00:00:00 4.43333 C 63.5000 %
688 06-03-2012 01:00:00 4.1 C 66.6667 %
689 06-03-2012 02:00:00 3.43333 C 69.6667 %
690 06-03-2012 03:00:00 2.41667 C 78.3333 %
691 06-03-2012 04:00:00 1.6 C 81.1667 %
692 06-03-2012 05:00:00 1.2 C 84.0000 %
693 06-03-2012 06:00:00 2.15 C 83.1667 %
694 06-03-2012 07:00:00 2.31667 C 74.5000 %
695 06-03-2012 08:00:00 2.75 C 74.5000 %
696 06-03-2012 09:00:00 4.83333 C 61.6667 %
697 06-03-2012 10:00:00 5.45 C 58.5000 %
698 06-03-2012 11:00:00 7.65 C 48.5000 %
699 06-03-2012 12:00:00 9.73333 C 39.5000 %
700 06-03-2012 13:00:00 11.6 C 28.6667 %
Sensor: Nr:Datum:Temp:Feuchte:
Aussen-T/F 701 06-03-2012 14:00:00 11 C 28.3333 %
702 06-03-2012 15:00:00 10.18333 C 32.1667 %
703 06-03-2012 16:00:00 12.01667 C 25.1667 %
704 06-03-2012 17:00:00 10.2 C 34.3333 %
705 06-03-2012 18:00:00 5.33333 C 57.5000 %
706 06-03-2012 19:00:00 3.58333 C 68.5000 %
707 06-03-2012 20:00:00 1.8 C 75.6667 %
708 06-03-2012 21:00:00 0.56667 C 80.3333 %
709 06-03-2012 22:00:00 -0.33333 C 81.6667 %
710 06-03-2012 23:00:00 -1.05 C 83.6667 %
711 07-03-2012 00:00:00 -1.68333 C 84.1667 %
712 07-03-2012 01:00:00 -2.01667 C 85.1667 %
713 07-03-2012 02:00:00 -2.33333 C 86.8333 %
714 07-03-2012 03:00:00 -2.78333 C 87.1667 %
715 07-03-2012 04:00:00 -2.95 C 88.1667 %
716 07-03-2012 05:00:00 -3.38333 C 88.5000 %
717 07-03-2012 06:00:00 -3.35 C 89.0000 %
718 07-03-2012 07:00:00 -2.58333 C 89.6667 %
719 07-03-2012 08:00:00 -1.13333 C 89.0000 %
720 07-03-2012 09:00:00 0.38333 C 82.1667 %
721 07-03-2012 10:00:00 3.4 C 65.8333 %
722 07-03-2012 11:00:00 5.9 C 51.8333 %
723 07-03-2012 12:00:00 7.4 C 47.1667 %
724 07-03-2012 13:00:00 7.61667 C 44.3333 %
725 07-03-2012 14:00:00 8.03333 C 42.5000 %
Sensor: Nr:Datum:Temp:Feuchte:
Aussen-T/F 726 07-03-2012 15:00:00 7.56667 C 45.0000 %
727 07-03-2012 16:00:00 7.21667 C 45.8333 %
728 07-03-2012 17:00:00 6.86667 C 48.6667 %
729 07-03-2012 18:00:00 6.65 C 48.5000 %
730 07-03-2012 19:00:00 5.16667 C 62.0000 %
731 07-03-2012 20:00:00 3.65 C 79.8333 %
732 07-03-2012 21:00:00 3.5 C 81.1667 %
733 07-03-2012 22:00:00 3.45 C 80.6667 %
734 07-03-2012 23:00:00 3.5 C 77.8333 %
735 08-03-2012 00:00:00 3.41667 C 78.3333 %
736 08-03-2012 01:00:00 3.46667 C 84.3333 %
737 08-03-2012 02:00:00 4.65 C 84.8333 %
738 08-03-2012 03:00:00 5.38333 C 73.1667 %
739 08-03-2012 04:00:00 4.93333 C 70.8333 %
740 08-03-2012 05:00:00 4.68333 C 74.1667 %
741 08-03-2012 06:00:00 4.55 C 73.6667 %
742 08-03-2012 07:00:00 4.56667 C 72.8333 %
743 08-03-2012 08:00:00 4.4 C 73.8333 %
744 08-03-2012 09:00:00 4.75 C 74.0000 %
745 08-03-2012 10:00:00 5.21667 C 69.3333 %
746 08-03-2012 11:00:00 5.61667 C 69.8333 %
747 08-03-2012 12:00:00 7.36667 C 58.5000 %
748 08-03-2012 13:00:00 8.35 C 46.3333 %
749 08-03-2012 14:00:00 9.01667 C 39.5000 %
750 08-03-2012 15:00:00 8.68333 C 39.0000 %
Sensor: Nr:Datum:Temp:Feuchte:
Aussen-T/F 751 08-03-2012 16:00:00 7.46667 C 44.8333 %
752 08-03-2012 17:00:00 6.15 C 51.5000 %
753 08-03-2012 18:00:00 4.81667 C 62.6667 %
754 08-03-2012 19:00:00 3.11667 C 76.6667 %
755 08-03-2012 20:00:00 3.55 C 78.3333 %
756 08-03-2012 21:00:00 2.51667 C 84.0000 %
757 08-03-2012 22:00:00 2.46667 C 86.8333 %
758 08-03-2012 23:00:00 2.78333 C 87.1667 %
759 09-03-2012 00:00:00 2.9 C 84.8333 %
760 09-03-2012 01:00:00 1.16667 C 85.5000 %
761 09-03-2012 02:00:00 0.55 C 89.0000 %
762 09-03-2012 03:00:00 -0.58333 C 89.6667 %
763 09-03-2012 04:00:00 -0.36667 C 90.6667 %
764 09-03-2012 05:00:00 -0.36667 C 92.0000 %
765 09-03-2012 06:00:00 -0.53333 C 92.0000 %
766 09-03-2012 07:00:00 -0.5 C 93.0000 %
767 09-03-2012 08:00:00 -0.15 C 93.0000 %
768 09-03-2012 09:00:00 0.88333 C 92.8333 %
769 09-03-2012 10:00:00 2.15 C 87.8333 %
770 09-03-2012 11:00:00 4.75 C 74.6667 %
771 09-03-2012 12:00:00 9.31667 C 48.1667 %
772 09-03-2012 13:00:00 10.61667 C 35.5000 %
773 09-03-2012 14:00:00 12 C 29.6667 %
774 09-03-2012 15:00:00 13.11667 C 23.0000 %
775 09-03-2012 16:00:00 13.33333 C 25.8333 %
Sensor: Nr:Datum:Temp:Feuchte:
Aussen-T/F 776 09-03-2012 17:00:00 10.01667 C 41.0000 %
777 09-03-2012 18:00:00 6.76667 C 54.0000 %
778 09-03-2012 19:00:00 6.7 C 56.0000 %
779 09-03-2012 20:00:00 6.8 C 56.1667 %
780 09-03-2012 21:00:00 6.63333 C 58.3333 %
781 09-03-2012 22:00:00 5.85 C 61.3333 %
782 09-03-2012 23:00:00 5.83333 C 62.1667 %
783 10-03-2012 00:00:00 6.38333 C 56.3333 %
784 10-03-2012 01:00:00 6.18333 C 57.0000 %
785 10-03-2012 02:00:00 6.21667 C 58.6667 %
786 10-03-2012 03:00:00 6.16667 C 60.1667 %
787 10-03-2012 04:00:00 6.16667 C 60.1667 %
788 10-03-2012 05:00:00 5.98333 C 62.1667 %
789 10-03-2012 06:00:00 6.13333 C 62.1667 %
790 10-03-2012 07:00:00 6.3 C 61.0000 %
791 10-03-2012 08:00:00 7.3 C 57.5000 %
792 10-03-2012 09:00:00 7.98333 C 56.5000 %
793 10-03-2012 10:00:00 9.68333 C 53.3333 %
794 10-03-2012 11:00:00 11.8 C 47.6667 %
795 10-03-2012 12:00:00 11.68333 C 50.5000 %
796 10-03-2012 13:00:00 11.68333 C 54.6667 %
797 10-03-2012 14:00:00 11.15 C 61.1667 %
798 10-03-2012 15:00:00 9.95 C 76.3333 %
799 10-03-2012 16:00:00 10 C 70.3333 %
800 10-03-2012 17:00:00 10 C 70.1667 %
Sensor: Nr:Datum:Temp:Feuchte:
Aussen-T/F 801 10-03-2012 18:00:00 9.41667 C 74.0000 %
802 10-03-2012 19:00:00 8.85 C 82.0000 %
803 10-03-2012 20:00:00 8.9 C 85.5000 %
804 10-03-2012 21:00:00 8.56667 C 86.6667 %
805 10-03-2012 22:00:00 8.91667 C 85.3333 %
806 10-03-2012 23:00:00 8.93333 C 80.1667 %
807 11-03-2012 00:00:00 8.18333 C 82.1667 %
808 11-03-2012 01:00:00 8.33333 C 80.0000 %
809 11-03-2012 02:00:00 8.28333 C 78.8333 %
810 11-03-2012 03:00:00 7.96667 C 79.1667 %
811 11-03-2012 04:00:00 7.75 C 82.6667 %
812 11-03-2012 05:00:00 7.56667 C 86.5000 %
813 11-03-2012 06:00:00 7.81667 C 84.6667 %
814 11-03-2012 07:00:00 8.16667 C 79.1667 %
815 11-03-2012 08:00:00 8.6 C 74.5000 %
816 11-03-2012 09:00:00 9.06667 C 72.1667 %
817 11-03-2012 10:00:00 10.2 C 65.3333 %
818 11-03-2012 11:00:00 11.06667 C 59.3333 %
819 11-03-2012 12:00:00 11.05 C 59.1667 %
820 11-03-2012 13:00:00 10.98333 C 55.5000 %
821 11-03-2012 14:00:00 11.1 C 53.8333 %
822 11-03-2012 15:00:00 10.86667 C 56.6667 %
823 11-03-2012 16:00:00 10.58333 C 58.5000 %
824 11-03-2012 17:00:00 10.13333 C 59.5000 %
825 11-03-2012 18:00:00 9.56667 C 62.1667 %
Sensor: Nr:Datum:Temp:Feuchte:
Aussen-T/F 826 11-03-2012 19:00:00 9.68333 C 61.8333 %
827 11-03-2012 20:00:00 9.65 C 62.0000 %
828 11-03-2012 21:00:00 9.25 C 65.1667 %
829 11-03-2012 22:00:00 8.78333 C 69.5000 %
830 11-03-2012 23:00:00 7.6 C 74.5000 %
831 12-03-2012 00:00:00 7.25 C 78.1667 %
832 12-03-2012 01:00:00 6.45 C 79.6667 %
833 12-03-2012 02:00:00 7.16667 C 78.6667 %
834 12-03-2012 03:00:00 7.5 C 75.0000 %
835 12-03-2012 04:00:00 7.43333 C 76.3333 %
836 12-03-2012 05:00:00 7.4 C 75.6667 %
837 12-03-2012 06:00:00 7.21667 C 77.0000 %
838 12-03-2012 07:00:00 7.08333 C 78.3333 %
839 12-03-2012 08:00:00 7.46667 C 77.0000 %
840 12-03-2012 09:00:00 7.83333 C 74.6667 %
841 12-03-2012 10:00:00 8 C 73.3333 %
842 12-03-2012 11:00:00 8.53333 C 69.6667 %
843 12-03-2012 12:00:00 8.7 C 68.3333 %
844 12-03-2012 13:00:00 8.83333 C 69.0000 %
845 12-03-2012 14:00:00 10.13333 C 62.8333 %
846 12-03-2012 15:00:00 11.46667 C 55.3333 %
847 12-03-2012 16:00:00 10.4 C 61.1667 %
848 12-03-2012 17:00:00 9.68333 C 64.5000 %
849 12-03-2012 18:00:00 8.66667 C 71.1667 %
850 12-03-2012 19:00:00 8.03333 C 75.8333 %
Sensor: Nr:Datum:Temp:Feuchte:
Aussen-T/F 851 12-03-2012 20:00:00 7.36667 C 81.0000 %
852 12-03-2012 21:00:00 7.28333 C 82.0000 %
853 12-03-2012 22:00:00 7.15 C 82.1667 %
854 12-03-2012 23:00:00 6.96667 C 83.3333 %
855 13-03-2012 00:00:00 6.9 C 83.8333 %
856 13-03-2012 01:00:00 7 C 83.1667 %
857 13-03-2012 02:00:00 6.95 C 83.5000 %
858 13-03-2012 03:00:00 6.75 C 83.5000 %
859 13-03-2012 04:00:00 6.36667 C 85.8333 %
860 13-03-2012 05:00:00 6.58333 C 86.5000 %
861 13-03-2012 06:00:00 6.66667 C 86.6667 %
862 13-03-2012 07:00:00 6.95 C 85.5000 %
863 13-03-2012 08:00:00 7.6 C 83.0000 %
864 13-03-2012 09:00:00 7.86667 C 72.0000 %
865 13-03-2012 10:00:00 8.23333 C 63.1667 %
866 13-03-2012 11:00:00 8.5 C 59.6667 %
867 13-03-2012 12:00:00 8.66667 C 59.0000 %
868 13-03-2012 13:00:00 8.9 C 57.5000 %
869 13-03-2012 14:00:00 9.11667 C 56.8333 %
870 13-03-2012 15:00:00 9.11667 C 56.6667 %
871 13-03-2012 16:00:00 8.98333 C 56.1667 %
872 13-03-2012 17:00:00 8.66667 C 58.0000 %
873 13-03-2012 18:00:00 8.25 C 59.6667 %
874 13-03-2012 19:00:00 7.66667 C 63.1667 %
875 13-03-2012 20:00:00 7.66667 C 62.8333 %
Sensor: Nr:Datum:Temp:Feuchte:
Aussen-T/F 876 13-03-2012 21:00:00 7.35 C 63.1667 %
877 13-03-2012 22:00:00 7.26667 C 63.0000 %
878 13-03-2012 23:00:00 6.9 C 65.0000 %
879 14-03-2012 00:00:00 6.51667 C 68.5000 %
880 14-03-2012 01:00:00 6.46667 C 67.1667 %
881 14-03-2012 02:00:00 6.26667 C 68.1667 %
882 14-03-2012 03:00:00 6.08333 C 68.6667 %
883 14-03-2012 04:00:00 5.86667 C 70.8333 %
884 14-03-2012 05:00:00 5.81667 C 71.5000 %
885 14-03-2012 06:00:00 5.76667 C 71.8333 %
886 14-03-2012 07:00:00 5.91667 C 70.6667 %
887 14-03-2012 08:00:00 6.7 C 63.6667 %
888 14-03-2012 09:00:00 7.3 C 60.3333 %
889 14-03-2012 10:00:00 8.01667 C 56.3333 %
890 14-03-2012 11:00:00 8.78333 C 52.1667 %
891 14-03-2012 12:00:00 9.43333 C 49.8333 %
892 14-03-2012 13:00:00 10.51667 C 46.5000 %
893 14-03-2012 14:00:00 12.25 C 40.3333 %
894 14-03-2012 15:00:00 13.51667 C 37.0000 %
895 14-03-2012 16:00:00 14.45 C 33.1667 %
896 14-03-2012 17:00:00 13.25 C 38.5000 %
897 14-03-2012 18:00:00 7.21667 C 60.5000 %
898 14-03-2012 19:00:00 4.3 C 76.5000 %
899 14-03-2012 20:00:00 3.3 C 81.0000 %
900 14-03-2012 21:00:00 1.93333 C 84.5000 %
Sensor: Nr:Datum:Temp:Feuchte:
Aussen-T/F 901 14-03-2012 22:00:00 0.91667 C 86.1667 %
902 14-03-2012 23:00:00 0.21667 C 87.3333 %
903 15-03-2012 00:00:00 -0.28333 C 88.1667 %
904 15-03-2012 01:00:00 -0.91667 C 88.1667 %
905 15-03-2012 02:00:00 -1.26667 C 88.0000 %
906 15-03-2012 03:00:00 -1.86667 C 88.0000 %
907 15-03-2012 04:00:00 -1.98333 C 88.5000 %
908 15-03-2012 05:00:00 -0.9 C 90.1667 %
909 15-03-2012 06:00:00 -0.7 C 91.3333 %
910 15-03-2012 07:00:00 -0.4 C 92.3333 %
911 15-03-2012 08:00:00 0.2 C 93.0000 %
912 15-03-2012 09:00:00 1.33333 C 92.3333 %
913 15-03-2012 10:00:00 3.46667 C 85.8333 %
914 15-03-2012 11:00:00 7.11667 C 69.5000 %
915 15-03-2012 12:00:00 13.96667 C 43.5000 %
916 15-03-2012 13:00:00 16.3 C 35.6667 %
917 15-03-2012 14:00:00 18.36667 C 31.3333 %
918 15-03-2012 15:00:00 23.46667 C 22.5000 %
919 15-03-2012 16:00:00 24.66667 C 20.0000 %
920 15-03-2012 17:00:00 21.03333 C 24.8333 %
921 15-03-2012 18:00:00 14.83333 C 39.5000 %
922 15-03-2012 19:00:00 10.76667 C 55.3333 %
923 15-03-2012 20:00:00 8.93333 C 65.5000 %
924 15-03-2012 21:00:00 7.71667 C 69.1667 %
925 15-03-2012 22:00:00 6.33333 C 75.6667 %
Sensor: Nr:Datum:Temp:Feuchte:
Aussen-T/F 926 15-03-2012 23:00:00 4.45 C 80.1667 %
927 16-03-2012 00:00:00 2.98333 C 84.6667 %
928 16-03-2012 01:00:00 2.26667 C 86.8333 %
929 16-03-2012 02:00:00 1.6 C 88.5000 %
930 16-03-2012 03:00:00 0.91667 C 88.8333 %
931 16-03-2012 04:00:00 0.78333 C 90.0000 %
932 16-03-2012 05:00:00 0.23333 C 90.5000 %
933 16-03-2012 06:00:00 -0.13333 C 91.0000 %
934 16-03-2012 07:00:00 0.6 C 91.8333 %
935 16-03-2012 08:00:00 2 C 92.3333 %
936 16-03-2012 09:00:00 3.41667 C 92.0000 %
937 16-03-2012 10:00:00 7.03333 C 87.8333 %
938 16-03-2012 11:00:00 13.4 C 52.8333 %
939 16-03-2012 12:00:00 20.55 C 26.8333 %
940 16-03-2012 13:00:00 21.11667 C 21.0000 %
941 16-03-2012 14:00:00 23.1 C 20.0000 %
942 16-03-2012 15:00:00 25.61667 C 20.0000 %
943 16-03-2012 16:00:00 25.61667 C 20.0000 %
944 16-03-2012 17:00:00 22.8 C 21.0000 %
945 16-03-2012 18:00:00 15.41667 C 37.3333 %
946 16-03-2012 19:00:00 11.73333 C 48.0000 %
947 16-03-2012 20:00:00 9.08333 C 55.1667 %
948 16-03-2012 21:00:00 7.56667 C 60.6667 %
949 16-03-2012 22:00:00 6.81667 C 63.1667 %
950 16-03-2012 23:00:00 5.76667 C 67.6667 %
Sensor: Nr:Datum:Temp:Feuchte:
Aussen-T/F 951 17-03-2012 00:00:00 4.58333 C 75.8333 %
952 17-03-2012 01:00:00 3.91667 C 79.8333 %
953 17-03-2012 02:00:00 3.65 C 83.1667 %
954 17-03-2012 03:00:00 3.03333 C 85.3333 %
955 17-03-2012 04:00:00 2.61667 C 87.6667 %
956 17-03-2012 05:00:00 2.65 C 88.5000 %
957 17-03-2012 06:00:00 2.48333 C 89.0000 %
958 17-03-2012 07:00:00 2.28333 C 89.8333 %
959 17-03-2012 08:00:00 3.88333 C 89.5000 %
960 17-03-2012 09:00:00 6.06667 C 85.8333 %
961 17-03-2012 10:00:00 12.45 C 48.6667 %
962 17-03-2012 11:00:00 16.15 C 29.0000 %
963 17-03-2012 12:00:00 17.91667 C 27.5000 %
964 17-03-2012 13:00:00 17.41667 C 32.6667 %
965 17-03-2012 14:00:00 16.26667 C 38.0000 %
966 17-03-2012 15:00:00 15.28333 C 45.1667 %
967 17-03-2012 16:00:00 13.41667 C 51.1667 %
968 17-03-2012 17:00:00 12.53333 C 55.6667 %
969 17-03-2012 18:00:00 11.53333 C 60.5000 %
970 17-03-2012 19:00:00 9.91667 C 69.6667 %
971 17-03-2012 20:00:00 9.28333 C 73.3333 %
972 17-03-2012 21:00:00 8.06667 C 79.3333 %
973 17-03-2012 22:00:00 7.75 C 81.0000 %
974 17-03-2012 23:00:00 8.15 C 79.8333 %
975 18-03-2012 00:00:00 7.71667 C 78.3333 %
Sensor: Nr:Datum:Temp:Feuchte:
Aussen-T/F 976 18-03-2012 01:00:00 7.51667 C 81.6667 %
977 18-03-2012 02:00:00 7.76667 C 81.0000 %
978 18-03-2012 03:00:00 8.08333 C 85.0000 %
979 18-03-2012 04:00:00 8.35 C 87.6667 %
980 18-03-2012 05:00:00 7.95 C 89.8333 %
981 18-03-2012 06:00:00 8.33333 C 88.6667 %
982 18-03-2012 07:00:00 8.31667 C 84.1667 %
983 18-03-2012 08:00:00 8.63333 C 85.3333 %
984 18-03-2012 09:00:00 9.55 C 79.5000 %
985 18-03-2012 10:00:00 10.05 C 72.1667 %
986 18-03-2012 11:00:00 10.58333 C 64.3333 %
987 18-03-2012 12:00:00 10.11667 C 61.8333 %
988 18-03-2012 13:00:00 10.73333 C 56.5000 %
989 18-03-2012 14:00:00 10.35 C 55.0000 %
990 18-03-2012 15:00:00 10.35 C 51.8333 %
991 18-03-2012 16:00:00 10.23333 C 51.0000 %
992 18-03-2012 17:00:00 9.56667 C 56.1667 %
993 18-03-2012 18:00:00 6.95 C 73.6667 %
994 18-03-2012 19:00:00 5.73333 C 81.3333 %
995 18-03-2012 20:00:00 4.93333 C 82.1667 %
996 18-03-2012 21:00:00 5.81667 C 84.8333 %
997 18-03-2012 22:00:00 6.16667 C 74.0000 %
998 18-03-2012 23:00:00 5.83333 C 76.8333 %
999 19-03-2012 00:00:00 5.76667 C 79.3333 %
1000 19-03-2012 01:00:00 5.58333 C 79.1667 %
Sensor: Nr:Datum:Temp:Feuchte:
Aussen-T/F 1001 19-03-2012 02:00:00 5.03333 C 82.1667 %
1002 19-03-2012 03:00:00 4.38333 C 82.6667 %
1003 19-03-2012 04:00:00 3.6 C 88.0000 %
1004 19-03-2012 05:00:00 3.4 C 89.6667 %
1005 19-03-2012 06:00:00 3.96667 C 91.0000 %
1006 19-03-2012 07:00:00 3.73333 C 90.0000 %
1007 19-03-2012 08:00:00 5.41667 C 82.6667 %
1008 19-03-2012 09:00:00 6.53333 C 66.3333 %
1009 19-03-2012 10:00:00 8.1 C 55.8333 %
1010 19-03-2012 11:00:00 9.18333 C 45.3333 %
1011 19-03-2012 12:00:00 10.48333 C 37.5000 %
1012 19-03-2012 13:00:00 10.88333 C 35.6667 %
1013 19-03-2012 14:00:00 12.51667 C 30.8333 %
1014 19-03-2012 15:00:00 14.55 C 23.0000 %
1015 19-03-2012 16:00:00 15.13333 C 20.5000 %
1016 19-03-2012 17:00:00 13.66667 C 23.0000 %
1017 19-03-2012 18:00:00 8.68333 C 33.8333 %
1018 19-03-2012 19:00:00 5.41667 C 51.6667 %
1019 19-03-2012 20:00:00 4.21667 C 63.6667 %
1020 19-03-2012 21:00:00 1.78333 C 74.6667 %
1021 19-03-2012 22:00:00 0.48333 C 80.6667 %
1022 19-03-2012 23:00:00 0.58333 C 82.8333 %
1023 20-03-2012 00:00:00 -0.58333 C 82.3333 %
1024 20-03-2012 01:00:00 -1.25 C 85.0000 %
1025 20-03-2012 02:00:00 -1.73333 C 86.8333 %
Sensor: Nr:Datum:Temp:Feuchte:
Aussen-T/F 1026 20-03-2012 03:00:00 -2.21667 C 87.0000 %
1027 20-03-2012 04:00:00 -2.35 C 88.0000 %
1028 20-03-2012 05:00:00 -2.66667 C 88.3333 %
1029 20-03-2012 06:00:00 -2.9 C 88.5000 %
1030 20-03-2012 07:00:00 -1.96667 C 89.6667 %
1031 20-03-2012 08:00:00 -1.16667 C 90.3333 %
1032 20-03-2012 09:00:00 0.46667 C 90.6667 %
1033 20-03-2012 10:00:00 4.08333 C 77.0000 %
1034 20-03-2012 11:00:00 8.81667 C 47.8333 %
1035 20-03-2012 12:00:00 13.58333 C 31.6667 %
1036 20-03-2012 13:00:00 13.93333 C 25.8333 %
1037 20-03-2012 14:00:00 15.73333 C 23.3333 %
1038 20-03-2012 15:00:00 19.11667 C 20.0000 %
1039 20-03-2012 16:00:00 19.15 C 20.0000 %
1040 20-03-2012 17:00:00 15 C 28.8333 %
1041 20-03-2012 18:00:00 9.53333 C 43.5000 %
1042 20-03-2012 19:00:00 7.15 C 52.6667 %
1043 20-03-2012 20:00:00 5.08333 C 61.1667 %
1044 20-03-2012 21:00:00 3.71667 C 67.3333 %
1045 20-03-2012 22:00:00 3.01667 C 69.8333 %
1046 20-03-2012 23:00:00 2.03333 C 73.3333 %
1047 21-03-2012 00:00:00 0.91667 C 78.5000 %
1048 21-03-2012 01:00:00 0.11667 C 81.0000 %
1049 21-03-2012 02:00:00 0.4 C 83.6667 %
1050 21-03-2012 03:00:00 -0.86667 C 84.3333 %
Sensor: Nr:Datum:Temp:Feuchte:
Aussen-T/F 1051 21-03-2012 04:00:00 -1.4 C 85.5000 %
1052 21-03-2012 05:00:00 -1.63333 C 87.0000 %
1053 21-03-2012 06:00:00 -2.1 C 87.8333 %
1054 21-03-2012 07:00:00 -1.21667 C 88.6667 %
1055 21-03-2012 08:00:00 0.03333 C 89.1667 %
1056 21-03-2012 09:00:00 2.2 C 85.6667 %
1057 21-03-2012 10:00:00 6.01667 C 63.1667 %
1058 21-03-2012 11:00:00 11.36667 C 42.3333 %
1059 21-03-2012 12:00:00 16.95 C 27.5000 %
1060 21-03-2012 13:00:00 18.46667 C 21.5000 %
1061 21-03-2012 14:00:00 19.85 C 20.1667 %
1062 21-03-2012 15:00:00 22.43333 C 20.0000 %
1063 21-03-2012 16:00:00 21.61667 C 20.0000 %
1064 21-03-2012 17:00:00 19.65 C 21.8333 %
1065 21-03-2012 18:00:00 13 C 40.0000 %
1066 21-03-2012 19:00:00 9.51667 C 53.5000 %
1067 21-03-2012 20:00:00 7.96667 C 63.5000 %
1068 21-03-2012 21:00:00 5.68333 C 71.8333 %
1069 21-03-2012 22:00:00 4.26667 C 76.5000 %
1070 21-03-2012 23:00:00 3.11667 C 81.3333 %
1071 22-03-2012 00:00:00 2.46667 C 84.0000 %
1072 22-03-2012 01:00:00 1.83333 C 85.1667 %
1073 22-03-2012 02:00:00 0.95 C 86.8333 %
1074 22-03-2012 03:00:00 0.4 C 88.6667 %
1075 22-03-2012 04:00:00 0.23333 C 89.1667 %
Sensor: Nr:Datum:Temp:Feuchte:
Aussen-T/F 1076 22-03-2012 05:00:00 -0.33333 C 90.0000 %
1077 22-03-2012 06:00:00 -0.31667 C 90.5000 %
1078 22-03-2012 07:00:00 0.46667 C 91.0000 %
1079 22-03-2012 08:00:00 1.7 C 90.1667 %
1080 22-03-2012 09:00:00 4.08333 C 89.8333 %
1081 22-03-2012 10:00:00 8.43333 C 78.0000 %
1082 22-03-2012 11:00:00 14.06667 C 50.8333 %
1083 22-03-2012 12:00:00 19.96667 C 31.1667 %
1084 22-03-2012 13:00:00 21.05 C 23.1667 %
1085 22-03-2012 14:00:00 22.95 C 21.5000 %
1086 22-03-2012 15:00:00 24.53333 C 20.0000 %
1087 22-03-2012 16:00:00 23.66667 C 20.0000 %
1088 22-03-2012 17:00:00 21.21667 C 25.3333 %
1089 22-03-2012 18:00:00 15.68333 C 41.3333 %
1090 22-03-2012 19:00:00 12.66667 C 51.0000 %
1091 22-03-2012 20:00:00 11.45 C 59.3333 %
1092 22-03-2012 21:00:00 10.56667 C 64.0000 %
1093 22-03-2012 22:00:00 9.9 C 68.0000 %
1094 22-03-2012 23:00:00 9.08333 C 72.3333 %
1095 23-03-2012 00:00:00 8.43333 C 77.6667 %
1096 23-03-2012 01:00:00 7.68333 C 81.0000 %
1097 23-03-2012 02:00:00 6.8 C 84.0000 %
1098 23-03-2012 03:00:00 5.13333 C 86.6667 %
1099 23-03-2012 04:00:00 4.05 C 88.3333 %
1100 23-03-2012 05:00:00 3.66667 C 89.5000 %
Sensor: Nr:Datum:Temp:Feuchte:
Aussen-T/F 1101 23-03-2012 06:00:00 3.01667 C 89.8333 %
1102 23-03-2012 07:00:00 3.6 C 90.5000 %
1103 23-03-2012 08:00:00 4.6 C 90.6667 %
1104 23-03-2012 09:00:00 6.65 C 90.1667 %
1105 23-03-2012 10:00:00 10.21667 C 76.5000 %
1106 23-03-2012 11:00:00 14.66667 C 52.8333 %
1107 23-03-2012 12:00:00 19.81667 C 35.5000 %
1108 23-03-2012 13:00:00 22.21667 C 27.1667 %
1109 23-03-2012 14:00:00 23.21667 C 23.1667 %
1110 23-03-2012 15:00:00 25.51667 C 20.0000 %
1111 23-03-2012 16:00:00 25.31667 C 20.0000 %
1112 23-03-2012 17:00:00 23.13333 C 20.3333 %
1113 23-03-2012 18:00:00 17.18333 C 36.6667 %
1114 23-03-2012 19:00:00 12.68333 C 50.1667 %
1115 23-03-2012 20:00:00 10.91667 C 58.6667 %
1116 23-03-2012 21:00:00 8.78333 C 64.8333 %
1117 23-03-2012 22:00:00 7.61667 C 69.8333 %
1118 23-03-2012 23:00:00 6.7 C 74.1667 %
1119 24-03-2012 00:00:00 5.66667 C 77.5000 %
1120 24-03-2012 01:00:00 4.91667 C 80.3333 %
1121 24-03-2012 02:00:00 4.45 C 83.3333 %
1122 24-03-2012 03:00:00 3.78333 C 86.0000 %
1123 24-03-2012 04:00:00 3.36667 C 87.3333 %
1124 24-03-2012 05:00:00 2.9 C 89.1667 %
1125 24-03-2012 06:00:00 2.63333 C 89.8333 %
Sensor: Nr:Datum:Temp:Feuchte:
Aussen-T/F 1126 24-03-2012 07:00:00 2.96667 C 90.5000 %
1127 24-03-2012 08:00:00 3.93333 C 90.1667 %
1128 24-03-2012 09:00:00 6.11667 C 89.3333 %
1129 24-03-2012 10:00:00 10.05 C 72.6667 %
1130 24-03-2012 11:00:00 14.81667 C 47.6667 %
1131 24-03-2012 12:00:00 18.85 C 34.8333 %
1132 24-03-2012 13:00:00 21.5 C 26.8333 %
1133 24-03-2012 14:00:00 23.23333 C 22.1667 %
1134 24-03-2012 15:00:00 25.98333 C 20.0000 %
1135 24-03-2012 16:00:00 24.16667 C 20.0000 %
1136 24-03-2012 17:00:00 21.75 C 23.6667 %
1137 24-03-2012 18:00:00 16.08333 C 40.3333 %
1138 24-03-2012 19:00:00 13.95 C 47.8333 %
1139 24-03-2012 20:00:00 13.06667 C 55.1667 %
1140 24-03-2012 21:00:00 12 C 61.3333 %
1141 24-03-2012 22:00:00 10.18333 C 67.3333 %
1142 24-03-2012 23:00:00 8.4 C 73.5000 %
1143 25-03-2012 00:00:00 7.56667 C 75.3333 %
1144 25-03-2012 01:00:00 6.86667 C 80.0000 %
1145 25-03-2012 02:00:00 5.78333 C 82.6667 %
1146 25-03-2012 04:00:00 5.41667 C 85.6667 %
1147 25-03-2012 05:00:00 4.8 C 87.5000 %
1148 25-03-2012 06:00:00 4.11667 C 88.1667 %
1149 25-03-2012 07:00:00 3.83333 C 89.5000 %
1150 25-03-2012 08:00:00 4.33333 C 90.0000 %
Sensor: Nr:Datum:Temp:Feuchte:
Aussen-T/F 1151 25-03-2012 09:00:00 5.53333 C 89.8333 %
1152 25-03-2012 10:00:00 7.45 C 89.1667 %
1153 25-03-2012 11:00:00 11.7 C 68.6667 %
1154 25-03-2012 12:00:00 16.18333 C 45.3333 %
1155 25-03-2012 13:00:00 20.91667 C 30.8333 %
1156 25-03-2012 14:00:00 22.55 C 22.3333 %
1157 25-03-2012 15:00:00 25.4 C 20.0000 %
1158 25-03-2012 16:00:00 27.48333 C 20.0000 %
1159 25-03-2012 17:00:00 26.1 C 20.0000 %
1160 25-03-2012 18:00:00 24.66667 C 20.0000 %
1161 25-03-2012 19:00:00 20.28333 C 20.0000 %
1162 25-03-2012 20:00:00 13.41667 C 32.0000 %
1163 25-03-2012 21:00:00 12.2 C 33.8333 %
1164 25-03-2012 22:00:00 10.78333 C 40.3333 %
1165 25-03-2012 23:00:00 9.6 C 45.6667 %
1166 26-03-2012 00:00:00 8.45 C 51.1667 %
1167 26-03-2012 01:00:00 6.08333 C 62.6667 %
1168 26-03-2012 02:00:00 4.45 C 67.3333 %
1169 26-03-2012 03:00:00 3.5 C 71.0000 %
1170 26-03-2012 04:00:00 2.45 C 75.1667 %
1171 26-03-2012 05:00:00 1.85 C 79.8333 %
1172 26-03-2012 06:00:00 1.51667 C 82.6667 %
1173 26-03-2012 07:00:00 1 C 84.0000 %
1174 26-03-2012 08:00:00 1.8 C 84.0000 %
1175 26-03-2012 09:00:00 2.95 C 83.5000 %
Sensor: Nr:Datum:Temp:Feuchte:
Aussen-T/F 1176 26-03-2012 10:00:00 5.11667 C 78.5000 %
1177 26-03-2012 11:00:00 10.55 C 51.5000 %
1178 26-03-2012 12:00:00 14.91667 C 32.0000 %
1179 26-03-2012 13:00:00 19.01667 C 22.6667 %
1180 26-03-2012 14:00:00 21.23333 C 20.0000 %
1181 26-03-2012 15:00:00 22.55 C 20.0000 %
1182 26-03-2012 16:00:00 25.61667 C 20.0000 %
1183 26-03-2012 17:00:00 24.26667 C 20.0000 %
1184 26-03-2012 18:00:00 23 C 20.0000 %
1185 26-03-2012 19:00:00 18.61667 C 23.0000 %
1186 26-03-2012 20:00:00 12.91667 C 35.3333 %
1187 26-03-2012 21:00:00 11.26667 C 42.0000 %
1188 26-03-2012 22:00:00 10.06667 C 46.3333 %
1189 26-03-2012 23:00:00 9.51667 C 50.1667 %
1190 27-03-2012 00:00:00 8.68333 C 57.1667 %
1191 27-03-2012 01:00:00 7.56667 C 63.1667 %
1192 27-03-2012 02:00:00 6.1 C 67.6667 %
1193 27-03-2012 03:00:00 4.06667 C 75.3333 %
1194 27-03-2012 04:00:00 2.93333 C 80.5000 %
1195 27-03-2012 05:00:00 1.96667 C 82.8333 %
1196 27-03-2012 06:00:00 1.4 C 85.5000 %
1197 27-03-2012 07:00:00 1.16667 C 86.6667 %
1198 27-03-2012 08:00:00 1.93333 C 87.8333 %
1199 27-03-2012 09:00:00 3.7 C 87.5000 %
1200 27-03-2012 10:00:00 6.83333 C 80.1667 %
Sensor: Nr:Datum:Temp:Feuchte:
Aussen-T/F 1201 27-03-2012 11:00:00 11.68333 C 55.8333 %
1202 27-03-2012 12:00:00 15.23333 C 41.6667 %
1203 27-03-2012 13:00:00 18.76667 C 30.1667 %
1204 27-03-2012 14:00:00 20.65 C 25.3333 %
1205 27-03-2012 15:00:00 21.9 C 21.3333 %
1206 27-03-2012 16:00:00 21.98333 C 21.1667 %
1207 27-03-2012 17:00:00 21.28333 C 22.0000 %
1208 27-03-2012 18:00:00 20.26667 C 24.5000 %
1209 27-03-2012 19:00:00 17.05 C 32.3333 %
1210 27-03-2012 20:00:00 13.25 C 46.0000 %
1211 27-03-2012 21:00:00 11.56667 C 56.1667 %
1212 27-03-2012 22:00:00 10.35 C 62.5000 %
1213 27-03-2012 23:00:00 9.3 C 67.8333 %
1214 28-03-2012 00:00:00 7.66667 C 75.0000 %
1215 28-03-2012 01:00:00 6.6 C 80.8333 %
1216 28-03-2012 02:00:00 6.01667 C 84.0000 %
1217 28-03-2012 03:00:00 5.18333 C 85.5000 %
1218 28-03-2012 04:00:00 4.68333 C 87.6667 %
1219 28-03-2012 05:00:00 4.03333 C 88.1667 %
1220 28-03-2012 06:00:00 3.36667 C 89.0000 %
1221 28-03-2012 07:00:00 3.28333 C 89.3333 %
1222 28-03-2012 08:00:00 3.76667 C 89.8333 %
1223 28-03-2012 09:00:00 5.5 C 89.5000 %
1224 28-03-2012 10:00:00 8.18333 C 87.8333 %
1225 28-03-2012 11:00:00 11.88333 C 65.1667 %
Sensor: Nr:Datum:Temp:Feuchte:
Aussen-T/F 1226 28-03-2012 12:00:00 15.63333 C 41.3333 %
1227 28-03-2012 13:00:00 19.41667 C 26.3333 %
1228 28-03-2012 14:00:00 21.81667 C 20.0000 %
1229 28-03-2012 15:00:00 23.66667 C 20.0000 %
1230 28-03-2012 16:00:00 23.68333 C 20.0000 %
1231 28-03-2012 17:00:00 21.26667 C 21.1667 %
1232 28-03-2012 18:00:00 19.58333 C 26.5000 %
1233 28-03-2012 19:00:00 17.13333 C 31.5000 %
1234 28-03-2012 20:00:00 13.41667 C 41.5000 %
1235 28-03-2012 21:00:00 12.15 C 46.6667 %
1236 28-03-2012 22:00:00 10.41667 C 56.6667 %
1237 28-03-2012 23:00:00 7.78333 C 68.6667 %
1238 29-03-2012 00:00:00 7.88333 C 70.6667 %
1239 29-03-2012 01:00:00 7.26667 C 73.6667 %
1240 29-03-2012 02:00:00 7.8 C 70.6667 %
1241 29-03-2012 03:00:00 6.98333 C 72.1667 %
1242 29-03-2012 04:00:00 5.58333 C 77.5000 %
1243 29-03-2012 05:00:00 3.88333 C 83.5000 %
1244 29-03-2012 06:00:00 3.65 C 86.3333 %
1245 29-03-2012 07:00:00 3.96667 C 84.1667 %
1246 29-03-2012 08:00:00 4.23333 C 82.3333 %
1247 29-03-2012 09:00:00 5.45 C 76.5000 %
1248 29-03-2012 10:00:00 8.88333 C 60.6667 %
1249 29-03-2012 11:00:00 11.36667 C 50.0000 %
1250 29-03-2012 12:00:00 14.31667 C 39.0000 %
Sensor: Nr:Datum:Temp:Feuchte:
Aussen-T/F 1251 29-03-2012 13:00:00 14.5 C 39.1667 %
1252 29-03-2012 14:00:00 14.98333 C 38.1667 %
1253 29-03-2012 15:00:00 14.28333 C 41.6667 %
1254 29-03-2012 16:00:00 13.85 C 39.8333 %
1255 29-03-2012 17:00:00 13.3 C 41.6667 %
1256 29-03-2012 18:00:00 12.63333 C 44.0000 %
1257 29-03-2012 19:00:00 12.05 C 45.8333 %
1258 29-03-2012 20:00:00 11.36667 C 48.8333 %
1259 29-03-2012 21:00:00 10.8 C 51.8333 %
1260 29-03-2012 22:00:00 10.1 C 53.5000 %
1261 29-03-2012 23:00:00 9.73333 C 55.6667 %
1262 30-03-2012 00:00:00 9.45 C 54.5000 %
1263 30-03-2012 01:00:00 9.16667 C 54.8333 %
1264 30-03-2012 02:00:00 9.1 C 55.8333 %
1265 30-03-2012 03:00:00 9.05 C 62.0000 %
1266 30-03-2012 04:00:00 8.46667 C 73.3333 %
1267 30-03-2012 05:00:00 8.18333 C 79.5000 %
1268 30-03-2012 06:00:00 8.65 C 71.3333 %
1269 30-03-2012 07:00:00 8.61667 C 70.3333 %
1270 30-03-2012 08:00:00 8.66667 C 70.1667 %
1271 30-03-2012 09:00:00 8.8 C 71.6667 %
1272 30-03-2012 10:00:00 8.73333 C 72.8333 %
1273 30-03-2012 11:00:00 8.53333 C 75.6667 %
1274 30-03-2012 12:00:00 8.56667 C 78.1667 %
1275 30-03-2012 13:00:00 8.73333 C 77.8333 %
Sensor: Nr:Datum:Temp:Feuchte:
Aussen-T/F 1276 30-03-2012 14:00:00 9.26667 C 72.5000 %
1277 30-03-2012 15:00:00 9.4 C 70.5000 %
1278 30-03-2012 16:00:00 11.25 C 58.5000 %
1279 30-03-2012 17:00:00 11.23333 C 55.8333 %
1280 30-03-2012 18:00:00 11.13333 C 57.0000 %
1281 30-03-2012 19:00:00 10.85 C 57.8333 %
1282 30-03-2012 20:00:00 10.38333 C 59.3333 %
1283 30-03-2012 21:00:00 9.93333 C 62.0000 %
1284 30-03-2012 22:00:00 9.51667 C 65.0000 %
1285 30-03-2012 23:00:00 9.05 C 67.0000 %
1286 31-03-2012 00:00:00 8.41667 C 72.1667 %
1287 31-03-2012 01:00:00 7.63333 C 81.1667 %
1288 31-03-2012 02:00:00 6.98333 C 85.8333 %
1289 31-03-2012 03:00:00 7.26667 C 83.1667 %
1290 31-03-2012 04:00:00 7.41667 C 75.0000 %
1291 31-03-2012 05:00:00 6.7 C 77.5000 %
1292 31-03-2012 06:00:00 6.3 C 79.8333 %
1293 31-03-2012 07:00:00 7.48333 C 71.0000 %
1294 31-03-2012 08:00:00 8.38333 C 67.5000 %
1295 31-03-2012 09:00:00 9.16667 C 64.1667 %
1296 31-03-2012 10:00:00 10.1 C 59.0000 %
1297 31-03-2012 11:00:00 10.45 C 57.5000 %
1298 31-03-2012 12:00:00 10.7 C 59.3333 %
1299 31-03-2012 13:00:00 9.88333 C 64.0000 %
1300 31-03-2012 14:00:00 7.71667 C 78.0000 %
Sensor: Nr:Datum:Temp:Feuchte:
Aussen-T/F 1301 31-03-2012 15:00:00 8.48333 C 68.5000 %
1302 31-03-2012 16:00:00 8.85 C 60.5000 %
1303 31-03-2012 17:00:00 7.88333 C 58.1667 %
1304 31-03-2012 18:00:00 8.5 C 46.5000 %
1305 31-03-2012 19:00:00 7.76667 C 42.1667 %
1306 31-03-2012 20:00:00 6.58333 C 42.5000 %
1307 31-03-2012 21:00:00 6.01667 C 42.3333 %
1308 31-03-2012 22:00:00 4.91667 C 47.3333 %
1309 31-03-2012 23:00:00 2.38333 C 56.8333 %
1310 01-04-2012 00:00:00 0.65 C 67.8333 %
1311 01-04-2012 01:00:00 0.11667 C 72.1667 %
1312 01-04-2012 02:00:00 -0.5 C 73.3333 %
1313 01-04-2012 03:00:00 -1.41667 C 79.1667 %
1314 01-04-2012 04:00:00 -2.4 C 81.3333 %
1315 01-04-2012 05:00:00 -3.4 C 82.5000 %
1316 01-04-2012 06:00:00 -3.66667 C 83.1667 %
1317 01-04-2012 07:00:00 -3.65 C 83.3333 %
1318 01-04-2012 08:00:00 -2.78333 C 84.8333 %
1319 01-04-2012 09:00:00 -1.6 C 86.0000 %
1320 01-04-2012 10:00:00 0.73333 C 81.3333 %
1321 01-04-2012 11:00:00 4.9 C 51.6667 %
1322 01-04-2012 12:00:00 7.48333 C 32.6667 %
1323 01-04-2012 13:00:00 10.08333 C 21.0000 %
1324 01-04-2012 14:00:00 12.43333 C 20.0000 %
1325 01-04-2012 15:00:00 15.71667 C 20.0000 %
Sensor: Nr:Datum:Temp:Feuchte:
Aussen-T/F 1326 01-04-2012 16:00:00 17.16667 C 20.0000 %
1327 01-04-2012 17:00:00 15.98333 C 20.0000 %
1328 01-04-2012 18:00:00 11.66667 C 23.0000 %
1329 01-04-2012 19:00:00 9.53333 C 29.6667 %
1330 01-04-2012 20:00:00 6.33333 C 42.6667 %
1331 01-04-2012 21:00:00 5.1 C 51.3333 %
1332 01-04-2012 22:00:00 4.18333 C 57.8333 %
1333 01-04-2012 23:00:00 3.03333 C 65.1667 %
1334 02-04-2012 00:00:00 2.2 C 69.8333 %
1335 02-04-2012 01:00:00 2.06667 C 71.8333 %
1336 02-04-2012 02:00:00 1.25 C 74.6667 %
1337 02-04-2012 03:00:00 0.48333 C 81.0000 %
1338 02-04-2012 04:00:00 -0.68333 C 83.5000 %
1339 02-04-2012 05:00:00 -1.25 C 85.3333 %
1340 02-04-2012 06:00:00 -1.15 C 87.0000 %
1341 02-04-2012 07:00:00 -1.2 C 87.8333 %
1342 02-04-2012 08:00:00 0.91667 C 86.3333 %
1343 02-04-2012 09:00:00 3.1 C 68.8333 %
1344 02-04-2012 10:00:00 6.3 C 54.3333 %
1345 02-04-2012 11:00:00 8.86667 C 46.3333 %
1346 02-04-2012 12:00:00 11.06667 C 38.0000 %
1347 02-04-2012 13:00:00 12.23333 C 36.1667 %
1348 02-04-2012 14:00:00 13.58333 C 33.8333 %
1349 02-04-2012 15:00:00 16.88333 C 25.8333 %
1350 02-04-2012 16:00:00 18.55 C 22.3333 %
Sensor: Nr:Datum:Temp:Feuchte:
Aussen-T/F 1351 02-04-2012 17:00:00 16.48333 C 27.0000 %
1352 02-04-2012 18:00:00 14.3 C 32.5000 %
1353 02-04-2012 19:00:00 11.36667 C 44.5000 %
1354 02-04-2012 20:00:00 9.33333 C 53.1667 %
1355 02-04-2012 21:00:00 8.51667 C 58.0000 %
1356 02-04-2012 22:00:00 8.31667 C 59.6667 %
1357 02-04-2012 23:00:00 8.05 C 61.6667 %
1358 03-04-2012 00:00:00 7.68333 C 63.5000 %
1359 03-04-2012 01:00:00 6.63333 C 67.0000 %
1360 03-04-2012 02:00:00 5.91667 C 71.5000 %
1361 03-04-2012 03:00:00 3.93333 C 76.0000 %
1362 03-04-2012 04:00:00 2.71667 C 82.0000 %
1363 03-04-2012 05:00:00 1.66667 C 85.1667 %
1364 03-04-2012 06:00:00 0.91667 C 86.8333 %
1365 03-04-2012 07:00:00 1.15 C 88.0000 %
1366 03-04-2012 08:00:00 2.63333 C 88.0000 %
1367 03-04-2012 09:00:00 4.43333 C 84.6667 %
1368 03-04-2012 10:00:00 7.13333 C 72.3333 %
1369 03-04-2012 11:00:00 11.6 C 51.1667 %
1370 03-04-2012 12:00:00 14.75 C 33.0000 %
1371 03-04-2012 13:00:00 18.53333 C 24.5000 %
1372 03-04-2012 14:00:00 20.88333 C 20.1667 %
1373 03-04-2012 15:00:00 23.18333 C 20.0000 %
1374 03-04-2012 16:00:00 23.01667 C 20.0000 %
1375 03-04-2012 17:00:00 22.51667 C 20.0000 %
Sensor: Nr:Datum:Temp:Feuchte:
Aussen-T/F 1376 03-04-2012 18:00:00 21.05 C 20.0000 %
1377 03-04-2012 19:00:00 17.31667 C 24.1667 %
1378 03-04-2012 20:00:00 13.43333 C 34.3333 %
1379 03-04-2012 21:00:00 12.81667 C 37.5000 %
1380 03-04-2012 22:00:00 13.28333 C 45.1667 %
1381 03-04-2012 23:00:00 11.91667 C 61.3333 %
1382 04-04-2012 00:00:00 11.21667 C 69.8333 %
1383 04-04-2012 01:00:00 9.73333 C 81.8333 %
1384 04-04-2012 02:00:00 8.81667 C 86.0000 %
1385 04-04-2012 03:00:00 8.66667 C 88.8333 %
1386 04-04-2012 04:00:00 8.6 C 89.8333 %
1387 04-04-2012 05:00:00 7.78333 C 90.5000 %
1388 04-04-2012 06:00:00 6.91667 C 91.3333 %
1389 04-04-2012 07:00:00 6.1 C 91.8333 %
1390 04-04-2012 08:00:00 7.4 C 91.3333 %
1391 04-04-2012 09:00:00 8.88333 C 77.1667 %
1392 04-04-2012 10:00:00 10.46667 C 63.0000 %
1393 04-04-2012 11:00:00 11.6 C 55.1667 %
1394 04-04-2012 12:00:00 11.81667 C 54.3333 %
1395 04-04-2012 13:00:00 13.61667 C 46.6667 %
1396 04-04-2012 14:00:00 12.98333 C 49.1667 %
1397 04-04-2012 15:00:00 13.73333 C 46.6667 %
1398 04-04-2012 16:00:00 14.43333 C 44.0000 %
1399 04-04-2012 17:00:00 14.85 C 44.5000 %
1400 04-04-2012 18:00:00 14.18333 C 46.0000 %
Sensor: Nr:Datum:Temp:Feuchte:
Aussen-T/F 1401 04-04-2012 19:00:00 11.2 C 58.1667 %
1402 04-04-2012 20:00:00 8.21667 C 75.3333 %
1403 04-04-2012 21:00:00 7.25 C 78.6667 %
1404 04-04-2012 22:00:00 6.4 C 84.3333 %
1405 04-04-2012 23:00:00 5.63333 C 86.8333 %
1406 05-04-2012 00:00:00 5.21667 C 88.6667 %
1407 05-04-2012 01:00:00 5.36667 C 89.8333 %
1408 05-04-2012 02:00:00 5.66667 C 90.5000 %
1409 05-04-2012 03:00:00 6.61667 C 90.6667 %
1410 05-04-2012 04:00:00 6.88333 C 89.8333 %
1411 05-04-2012 05:00:00 7.08333 C 85.8333 %
1412 05-04-2012 06:00:00 7.31667 C 80.1667 %
1413 05-04-2012 07:00:00 7.48333 C 75.6667 %
1414 05-04-2012 08:00:00 8.06667 C 68.0000 %
1415 05-04-2012 09:00:00 8.15 C 65.3333 %
1416 05-04-2012 10:00:00 8.05 C 64.0000 %
1417 05-04-2012 11:00:00 8.08333 C 62.3333 %
1418 05-04-2012 12:00:00 8.08333 C 61.8333 %
1419 05-04-2012 13:00:00 8.58333 C 58.5000 %
1420 05-04-2012 14:00:00 9.3 C 53.5000 %
1421 05-04-2012 15:00:00 9.8 C 51.1667 %
1422 05-04-2012 16:00:00 9.75 C 52.8333 %
1423 05-04-2012 17:00:00 9.51667 C 53.3333 %
1424 05-04-2012 18:00:00 9.13333 C 54.5000 %
1425 05-04-2012 19:00:00 8.63333 C 55.6667 %
Sensor: Nr:Datum:Temp:Feuchte:
Aussen-T/F 1426 05-04-2012 20:00:00 8.2 C 56.6667 %
1427 05-04-2012 21:00:00 7.85 C 58.5000 %
1428 05-04-2012 22:00:00 7.36667 C 62.0000 %
1429 05-04-2012 23:00:00 7.01667 C 64.0000 %
1430 06-04-2012 00:00:00 6.9 C 61.0000 %
1431 06-04-2012 01:00:00 6.56667 C 61.3333 %
1432 06-04-2012 02:00:00 6.61667 C 61.1667 %
1433 06-04-2012 03:00:00 6.31667 C 61.5000 %
1434 06-04-2012 04:00:00 6.21667 C 60.3333 %
1435 06-04-2012 05:00:00 6.1 C 60.8333 %
1436 06-04-2012 06:00:00 5.88333 C 62.1667 %
1437 06-04-2012 07:00:00 5.7 C 64.8333 %
1438 06-04-2012 08:00:00 6.33333 C 62.5000 %
1439 06-04-2012 09:00:00 7.18333 C 55.0000 %
1440 06-04-2012 10:00:00 8.35 C 48.6667 %
1441 06-04-2012 11:00:00 9.15 C 44.6667 %
1442 06-04-2012 12:00:00 9.25 C 45.5000 %
1443 06-04-2012 13:00:00 9.86667 C 43.3333 %
1444 06-04-2012 14:00:00 11.55 C 35.8333 %
1445 06-04-2012 15:00:00 15.28333 C 25.6667 %
1446 06-04-2012 16:00:00 17.28333 C 20.0000 %
1447 06-04-2012 17:00:00 15.66667 C 20.8333 %
1448 06-04-2012 18:00:00 14.58333 C 25.8333 %
1449 06-04-2012 19:00:00 10.58333 C 36.5000 %
1450 06-04-2012 20:00:00 6.43333 C 55.5000 %
Sensor: Nr:Datum:Temp:Feuchte:
Aussen-T/F 1451 06-04-2012 21:00:00 5.81667 C 59.0000 %
1452 06-04-2012 22:00:00 4.71667 C 62.8333 %
1453 06-04-2012 23:00:00 3.33333 C 70.6667 %
1454 07-04-2012 00:00:00 4.1 C 69.0000 %
1455 07-04-2012 01:00:00 4.73333 C 66.3333 %
1456 07-04-2012 02:00:00 5.18333 C 59.1667 %
1457 07-04-2012 03:00:00 4.83333 C 61.3333 %
1458 07-04-2012 04:00:00 4.85 C 60.6667 %
1459 07-04-2012 05:00:00 4.16667 C 64.0000 %
1460 07-04-2012 06:00:00 3.56667 C 73.1667 %
1461 07-04-2012 07:00:00 3.1 C 79.8333 %
1462 07-04-2012 08:00:00 3.26667 C 84.5000 %
1463 07-04-2012 09:00:00 4.18333 C 82.8333 %
1464 07-04-2012 10:00:00 4.93333 C 79.1667 %
1465 07-04-2012 11:00:00 7.51667 C 58.0000 %
1466 07-04-2012 12:00:00 8.31667 C 50.1667 %
1467 07-04-2012 13:00:00 8.66667 C 44.8333 %
1468 07-04-2012 14:00:00 7.3 C 60.1667 %
1469 07-04-2012 15:00:00 6.73333 C 57.1667 %
1470 07-04-2012 16:00:00 6.95 C 55.1667 %
1471 07-04-2012 17:00:00 7.48333 C 44.3333 %
1472 07-04-2012 18:00:00 7.16667 C 37.1667 %
1473 07-04-2012 19:00:00 6.48333 C 39.5000 %
1474 07-04-2012 20:00:00 5.23333 C 43.5000 %
1475 07-04-2012 21:00:00 4.68333 C 45.6667 %
Sensor: Nr:Datum:Temp:Feuchte:
Aussen-T/F 1476 07-04-2012 22:00:00 3.91667 C 54.5000 %
1477 07-04-2012 23:00:00 4.33333 C 53.8333 %
1478 08-04-2012 00:00:00 4.11667 C 53.1667 %
1479 08-04-2012 01:00:00 3.7 C 43.6667 %
1480 08-04-2012 02:00:00 2.56667 C 44.5000 %
1481 08-04-2012 03:00:00 2.16667 C 46.1667 %
1482 08-04-2012 04:00:00 0.76667 C 51.8333 %
1483 08-04-2012 05:00:00 0.41667 C 56.0000 %
1484 08-04-2012 06:00:00 0.26667 C 57.5000 %
1485 08-04-2012 07:00:00 0.8 C 53.0000 %
1486 08-04-2012 08:00:00 1.11667 C 54.1667 %
1487 08-04-2012 09:00:00 1.76667 C 52.6667 %
1488 08-04-2012 10:00:00 3.96667 C 41.8333 %
1489 08-04-2012 11:00:00 6.28333 C 30.8333 %
1490 08-04-2012 12:00:00 6.88333 C 25.6667 %
1491 08-04-2012 13:00:00 8.15 C 21.1667 %
1492 08-04-2012 14:00:00 12.13333 C 20.0000 %
1493 08-04-2012 15:00:00 15.18333 C 20.0000 %
1494 08-04-2012 16:00:00 14.76667 C 20.0000 %
1495 08-04-2012 17:00:00 14.85 C 20.0000 %
1496 08-04-2012 18:00:00 13.81667 C 20.0000 %
1497 08-04-2012 19:00:00 7.4 C 33.3333 %
1498 08-04-2012 20:00:00 4.38333 C 46.1667 %
1499 08-04-2012 21:00:00 3.75 C 50.8333 %
1500 08-04-2012 22:00:00 3.03333 C 54.6667 %
Sensor: Nr:Datum:Temp:Feuchte:
Aussen-T/F 1501 08-04-2012 23:00:00 3.05 C 56.1667 %
1502 09-04-2012 00:00:00 3.93333 C 52.6667 %
1503 09-04-2012 01:00:00 4.55 C 52.5000 %
1504 09-04-2012 02:00:00 5.73333 C 46.6667 %
1505 09-04-2012 03:00:00 6.35 C 45.5000 %
1506 09-04-2012 04:00:00 5.28333 C 60.1667 %
1507 09-04-2012 05:00:00 4.13333 C 80.0000 %
1508 09-04-2012 06:00:00 4.06667 C 86.3333 %
1509 09-04-2012 07:00:00 4.26667 C 87.3333 %
1510 09-04-2012 08:00:00 4.95 C 85.0000 %
1511 09-04-2012 09:00:00 6.11667 C 79.1667 %
1512 09-04-2012 10:00:00 7.1 C 76.0000 %
1513 09-04-2012 11:00:00 8.06667 C 74.5000 %
1514 09-04-2012 12:00:00 8.45 C 72.5000 %
1515 09-04-2012 13:00:00 9.1 C 67.6667 %
1516 09-04-2012 14:00:00 9.71667 C 64.3333 %
1517 09-04-2012 15:00:00 10.01667 C 63.8333 %
1518 09-04-2012 16:00:00 9.55 C 68.6667 %
1519 09-04-2012 17:00:00 8.66667 C 78.8333 %
1520 09-04-2012 18:00:00 8.55 C 82.1667 %
1521 09-04-2012 19:00:00 8.2 C 84.8333 %
1522 09-04-2012 20:00:00 7.93333 C 87.3333 %
1523 09-04-2012 21:00:00 8.18333 C 87.6667 %
1524 09-04-2012 22:00:00 8.11667 C 88.3333 %
1525 09-04-2012 23:00:00 8.08333 C 89.0000 %
Sensor: Nr:Datum:Temp:Feuchte:
Aussen-T/F 1526 10-04-2012 00:00:00 8.1 C 89.3333 %
1527 10-04-2012 01:00:00 8.15 C 90.0000 %
1528 10-04-2012 02:00:00 8.08333 C 89.5000 %
1529 10-04-2012 03:00:00 8.78333 C 81.8333 %
1530 10-04-2012 04:00:00 8.41667 C 81.5000 %
1531 10-04-2012 05:00:00 8.2 C 84.3333 %
1532 10-04-2012 06:00:00 8.3 C 82.8333 %
1533 10-04-2012 07:00:00 8.96667 C 77.8333 %
1534 10-04-2012 08:00:00 10.08333 C 67.6667 %
1535 10-04-2012 09:00:00 11.1 C 58.6667 %
1536 10-04-2012 10:00:00 11.71667 C 54.8333 %
1537 10-04-2012 11:00:00 12.88333 C 49.5000 %
1538 10-04-2012 12:00:00 14.08333 C 45.5000 %
1539 10-04-2012 13:00:00 16.66667 C 37.5000 %
1540 10-04-2012 14:00:00 17.08333 C 36.1667 %
1541 10-04-2012 15:00:00 17.3 C 35.8333 %
1542 10-04-2012 16:00:00 15.35 C 44.1667 %
1543 10-04-2012 17:00:00 14.98333 C 46.5000 %
1544 10-04-2012 18:00:00 13.5 C 52.3333 %
1545 10-04-2012 19:00:00 12.18333 C 57.0000 %
1546 10-04-2012 20:00:00 11.23333 C 62.3333 %
1547 10-04-2012 21:00:00 10.95 C 66.1667 %
1548 10-04-2012 22:00:00 9.66667 C 78.1667 %
1549 10-04-2012 23:00:00 9.28333 C 85.5000 %
1550 11-04-2012 00:00:00 9.18333 C 87.3333 %
Sensor: Nr:Datum:Temp:Feuchte:
Aussen-T/F 1551 11-04-2012 01:00:00 9.45 C 83.0000 %
1552 11-04-2012 02:00:00 8.06 C 85.8000 %
1553 11-04-2012 03:00:00 7.55 C 87.8333 %
1554 11-04-2012 04:00:00 7.38333 C 89.1667 %
1555 11-04-2012 05:00:00 7.36667 C 90.0000 %
1556 11-04-2012 06:00:00 6.55 C 89.8333 %
1557 11-04-2012 07:00:00 6.28333 C 87.5000 %
1558 11-04-2012 08:00:00 7.1 C 77.8333 %
1559 11-04-2012 09:00:00 8.21667 C 68.6667 %
1560 11-04-2012 10:00:00 9.91667 C 59.0000 %
1561 11-04-2012 11:00:00 10.36667 C 52.1667 %
1562 11-04-2012 12:00:00 11.68333 C 42.6667 %
1563 11-04-2012 13:00:00 12.25 C 39.0000 %
1564 11-04-2012 14:00:00 14.16667 C 32.6667 %
1565 11-04-2012 15:00:00 14.41667 C 29.6667 %
1566 11-04-2012 16:00:00 15.5 C 24.8333 %
1567 11-04-2012 17:00:00 16.06667 C 23.0000 %
1568 11-04-2012 18:00:00 17.01667 C 20.0000 %
1569 11-04-2012 19:00:00 14 C 25.6667 %
1570 11-04-2012 20:00:00 9.13333 C 51.3333 %
1571 11-04-2012 21:00:00 7.65 C 59.3333 %
1572 11-04-2012 22:00:00 5.8 C 69.0000 %
1573 11-04-2012 23:00:00 4.65 C 75.3333 %
1574 12-04-2012 00:00:00 3.78333 C 77.1667 %
1575 12-04-2012 01:00:00 2.75 C 81.0000 %
Sensor: Nr:Datum:Temp:Feuchte:
Aussen-T/F 1576 12-04-2012 02:00:00 2.43333 C 83.1667 %
1577 12-04-2012 03:00:00 1.5 C 85.0000 %
1578 12-04-2012 04:00:00 1.86667 C 87.5000 %
1579 12-04-2012 05:00:00 1.88333 C 87.5000 %
1580 12-04-2012 06:00:00 2.88333 C 87.5000 %
1581 12-04-2012 07:00:00 3.9 C 82.0000 %
1582 12-04-2012 08:00:00 4.6 C 80.6667 %
1583 12-04-2012 09:00:00 7.18333 C 70.0000 %
1584 12-04-2012 10:00:00 8.61667 C 62.8333 %
1585 12-04-2012 11:00:00 10.75 C 52.6667 %
1586 12-04-2012 12:00:00 11.91667 C 47.0000 %
1587 12-04-2012 13:00:00 13.31667 C 39.8333 %
1588 12-04-2012 14:00:00 13.01667 C 41.6667 %
1589 12-04-2012 15:00:00 9.75 C 55.8333 %
1590 12-04-2012 16:00:00 6.53333 C 81.1667 %
1591 12-04-2012 17:00:00 9.66667 C 73.3333 %
1592 12-04-2012 18:00:00 11.71667 C 53.6667 %
1593 12-04-2012 19:00:00 6.38333 C 82.5000 %
1594 12-04-2012 20:00:00 5.4 C 86.8333 %
1595 12-04-2012 21:00:00 5.08333 C 89.8333 %
1596 12-04-2012 22:00:00 4.16667 C 91.6667 %
1597 12-04-2012 23:00:00 3.08333 C 92.6667 %
1598 13-04-2012 00:00:00 2.46667 C 93.1667 %
1599 13-04-2012 01:00:00 2.78333 C 93.8333 %
1600 13-04-2012 02:00:00 2.48333 C 94.0000 %
Sensor: Nr:Datum:Temp:Feuchte:
Aussen-T/F 1601 13-04-2012 03:00:00 2.5 C 94.0000 %
1602 13-04-2012 04:00:00 2.28333 C 94.0000 %
1603 13-04-2012 05:00:00 2.01667 C 94.0000 %
1604 13-04-2012 06:00:00 1.76667 C 95.0000 %
1605 13-04-2012 07:00:00 1.9 C 95.0000 %
1606 13-04-2012 08:00:00 2.98333 C 94.8333 %
1607 13-04-2012 09:00:00 3.85 C 92.6667 %
1608 13-04-2012 10:00:00 5.43333 C 82.0000 %
1609 13-04-2012 11:00:00 7.7 C 68.6667 %
1610 13-04-2012 12:00:00 8.86667 C 67.0000 %
1611 13-04-2012 13:00:00 13.25 C 42.8333 %
1612 13-04-2012 14:00:00 17.4 C 26.1667 %
1613 13-04-2012 15:00:00 18.75 C 22.1667 %
1614 13-04-2012 16:00:00 16.28333 C 29.0000 %
1615 13-04-2012 17:00:00 18.91667 C 20.3333 %
1616 13-04-2012 18:00:00 14.81667 C 27.8333 %
1617 13-04-2012 19:00:00 12.1 C 40.0000 %
1618 13-04-2012 20:00:00 7.7 C 62.0000 %
1619 13-04-2012 21:00:00 5.71667 C 69.0000 %
1620 13-04-2012 22:00:00 4.08333 C 80.3333 %
1621 13-04-2012 23:00:00 2.85 C 84.1667 %
1622 14-04-2012 00:00:00 1.8 C 85.3333 %
1623 14-04-2012 01:00:00 1.46667 C 86.8333 %
1624 14-04-2012 02:00:00 0.83333 C 88.0000 %
1625 14-04-2012 03:00:00 0.18333 C 88.8333 %
Sensor: Nr:Datum:Temp:Feuchte:
Aussen-T/F 1626 14-04-2012 04:00:00 0 C 89.0000 %
1627 14-04-2012 05:00:00 0.05 C 89.5000 %
1628 14-04-2012 06:00:00 -0.23333 C 90.0000 %
1629 14-04-2012 07:00:00 0.23333 C 90.6667 %
1630 14-04-2012 08:00:00 2.2 C 91.0000 %
1631 14-04-2012 09:00:00 3.68333 C 89.0000 %
1632 14-04-2012 10:00:00 6.5 C 77.1667 %
1633 14-04-2012 11:00:00 10.33333 C 53.6667 %
1634 14-04-2012 12:00:00 14.16667 C 29.1667 %
1635 14-04-2012 13:00:00 15.91667 C 22.5000 %
1636 14-04-2012 14:00:00 14.18333 C 29.5000 %
1637 14-04-2012 15:00:00 14.26667 C 27.5000 %
1638 14-04-2012 16:00:00 16.83333 C 21.0000 %
1639 14-04-2012 17:00:00 17.35 C 20.0000 %
1640 14-04-2012 18:00:00 13.83333 C 27.0000 %
1641 14-04-2012 19:00:00 12.11667 C 38.6667 %
1642 14-04-2012 20:00:00 9.08333 C 55.5000 %
1643 14-04-2012 21:00:00 9.4 C 52.1667 %
1644 14-04-2012 22:00:00 7.55 C 62.8333 %
1645 14-04-2012 23:00:00 6.26667 C 74.1667 %
1646 15-04-2012 00:00:00 5.86667 C 78.0000 %
1647 15-04-2012 01:00:00 6.43333 C 75.5000 %
1648 15-04-2012 02:00:00 6.53333 C 72.6667 %
1649 15-04-2012 03:00:00 5.68333 C 78.3333 %
1650 15-04-2012 04:00:00 5.4 C 83.0000 %
Sensor: Nr:Datum:Temp:Feuchte:
Aussen-T/F 1651 15-04-2012 05:00:00 5.56667 C 85.8333 %
1652 15-04-2012 06:00:00 5.93333 C 83.5000 %
1653 15-04-2012 07:00:00 6.68333 C 74.8333 %
1654 15-04-2012 08:00:00 7.53333 C 69.0000 %
1655 15-04-2012 09:00:00 8.43333 C 62.5000 %
1656 15-04-2012 10:00:00 9.21667 C 57.1667 %
1657 15-04-2012 11:00:00 11.03333 C 47.6667 %
1658 15-04-2012 12:00:00 11.81667 C 43.5000 %
1659 15-04-2012 13:00:00 12.05 C 41.5000 %
1660 15-04-2012 14:00:00 12.08333 C 42.0000 %
1661 15-04-2012 15:00:00 11.53333 C 42.8333 %
1662 15-04-2012 16:00:00 11.08333 C 44.0000 %
1663 15-04-2012 17:00:00 10.56667 C 46.6667 %
1664 15-04-2012 18:00:00 9.95 C 49.8333 %
1665 15-04-2012 19:00:00 9.45 C 50.0000 %
1666 15-04-2012 20:00:00 8.86667 C 52.1667 %
1667 15-04-2012 21:00:00 8.25 C 55.3333 %
1668 15-04-2012 22:00:00 7.85 C 56.6667 %
1669 15-04-2012 23:00:00 7.53333 C 56.3333 %
1670 16-04-2012 00:00:00 7.08333 C 54.0000 %
1671 16-04-2012 01:00:00 6.48333 C 55.0000 %
1672 16-04-2012 02:00:00 5.56667 C 57.8333 %
1673 16-04-2012 03:00:00 4.43333 C 61.8333 %
1674 16-04-2012 04:00:00 3.81667 C 64.8333 %
1675 16-04-2012 05:00:00 4.13333 C 58.8333 %
Sensor: Nr:Datum:Temp:Feuchte:
Aussen-T/F 1676 16-04-2012 06:00:00 3.91667 C 59.6667 %
1677 16-04-2012 07:00:00 3.95 C 59.1667 %
1678 16-04-2012 08:00:00 4.2 C 56.3333 %
1679 16-04-2012 09:00:00 5.1 C 52.6667 %
1680 16-04-2012 10:00:00 6.3 C 42.6667 %
1681 16-04-2012 11:00:00 7.4 C 35.8333 %
1682 16-04-2012 12:00:00 8.45 C 32.6667 %
1683 16-04-2012 13:00:00 10.75 C 22.3333 %
1684 16-04-2012 14:00:00 13.05 C 20.5000 %
1685 16-04-2012 15:00:00 11.65 C 21.8333 %
1686 16-04-2012 16:00:00 10.75 C 23.8333 %
1687 16-04-2012 17:00:00 11.31667 C 21.8333 %
1688 16-04-2012 18:00:00 10.4 C 24.0000 %
1689 16-04-2012 19:00:00 8.05 C 30.0000 %
1690 16-04-2012 20:00:00 4.85 C 44.0000 %
1691 16-04-2012 21:00:00 2.58333 C 55.0000 %
1692 16-04-2012 22:00:00 1 C 66.6667 %
1693 16-04-2012 23:00:00 -0.06667 C 72.5000 %
1694 17-04-2012 00:00:00 -0.6 C 74.1667 %
1695 17-04-2012 01:00:00 -0.7 C 75.1667 %
1696 17-04-2012 02:00:00 -1.71667 C 77.3333 %
1697 17-04-2012 03:00:00 -2.6 C 80.6667 %
1698 17-04-2012 04:00:00 -3.01667 C 82.3333 %
1699 17-04-2012 05:00:00 -3.46667 C 83.3333 %
1700 17-04-2012 06:00:00 -3.43333 C 84.1667 %
Sensor: Nr:Datum:Temp:Feuchte:
Aussen-T/F 1701 17-04-2012 07:00:00 -3.33333 C 84.1667 %
1702 17-04-2012 08:00:00 -1.93333 C 84.6667 %
1703 17-04-2012 09:00:00 -0.03333 C 83.3333 %
1704 17-04-2012 10:00:00 4.76667 C 61.1667 %
1705 17-04-2012 11:00:00 9 C 26.1667 %
1706 17-04-2012 12:00:00 10.45 C 20.0000 %
1707 17-04-2012 13:00:00 12.46667 C 20.3333 %
1708 17-04-2012 14:00:00 13.75 C 20.0000 %
1709 17-04-2012 15:00:00 15.56667 C 20.0000 %
1710 17-04-2012 16:00:00 15.3 C 20.0000 %
1711 17-04-2012 17:00:00 15.13333 C 20.0000 %
1712 17-04-2012 18:00:00 14.83333 C 20.0000 %
1713 17-04-2012 19:00:00 11.45 C 21.5000 %
1714 17-04-2012 20:00:00 9.76667 C 34.1667 %
1715 17-04-2012 21:00:00 8.8 C 41.0000 %
1716 17-04-2012 22:00:00 9.16667 C 37.1667 %
1717 17-04-2012 23:00:00 9.36667 C 35.6667 %
1718 18-04-2012 00:00:00 7.78333 C 51.3333 %
1719 18-04-2012 01:00:00 7.06667 C 59.6667 %
1720 18-04-2012 02:00:00 6.7 C 64.0000 %
1721 18-04-2012 03:00:00 6.33333 C 66.6667 %
1722 18-04-2012 04:00:00 6.31667 C 68.1667 %
1723 18-04-2012 05:00:00 6.41667 C 68.5000 %
1724 18-04-2012 06:00:00 5.66667 C 72.6667 %
1725 18-04-2012 07:00:00 5.21667 C 78.6667 %
Sensor: Nr:Datum:Temp:Feuchte:
Aussen-T/F 1726 18-04-2012 08:00:00 7.36667 C 64.3333 %
1727 18-04-2012 09:00:00 8.68333 C 55.6667 %
1728 18-04-2012 10:00:00 10.8 C 43.6667 %
1729 18-04-2012 11:00:00 10.41667 C 45.6667 %
1730 18-04-2012 12:00:00 12.58333 C 38.1667 %
1731 18-04-2012 13:00:00 14.7 C 32.1667 %
1732 18-04-2012 14:00:00 15.01667 C 34.6667 %
1733 18-04-2012 15:00:00 16.7 C 32.1667 %
1734 18-04-2012 16:00:00 13.96667 C 37.5000 %
1735 18-04-2012 17:00:00 9.5 C 60.8333 %
1736 18-04-2012 18:00:00 10.56667 C 65.5000 %
1737 18-04-2012 19:00:00 12.3 C 50.3333 %
1738 18-04-2012 20:00:00 7 C 72.5000 %
1739 18-04-2012 21:00:00 5.33333 C 80.8333 %
1740 18-04-2012 22:00:00 5.05 C 81.5000 %
1741 18-04-2012 23:00:00 5.48333 C 80.0000 %
1742 19-04-2012 00:00:00 6.5 C 72.8333 %
1743 19-04-2012 01:00:00 5.45 C 75.8333 %
1744 19-04-2012 02:00:00 5.9 C 73.0000 %
1745 19-04-2012 03:00:00 6.31667 C 70.6667 %
1746 19-04-2012 04:00:00 6.01667 C 72.6667 %
1747 19-04-2012 05:00:00 5.16667 C 76.8333 %
1748 19-04-2012 06:00:00 4.78333 C 83.1667 %
1749 19-04-2012 07:00:00 6.4 C 78.8333 %
1750 19-04-2012 08:00:00 9.81667 C 57.1667 %
Sensor: Nr:Datum:Temp:Feuchte:
Aussen-T/F 1751 19-04-2012 09:00:00 7.75 C 70.3333 %
1752 19-04-2012 10:00:00 7.81667 C 73.3333 %
1753 19-04-2012 11:00:00 9.96667 C 61.8333 %
1754 19-04-2012 12:00:00 12.46667 C 48.8333 %
1755 19-04-2012 13:00:00 14 C 41.5000 %
1756 19-04-2012 14:00:00 14.06667 C 41.3333 %
1757 19-04-2012 15:00:00 14.88333 C 42.1667 %
1758 19-04-2012 16:00:00 15.48333 C 42.3333 %
1759 19-04-2012 17:00:00 11.8 C 55.0000 %
1760 19-04-2012 18:00:00 7.51667 C 79.6667 %
1761 19-04-2012 19:00:00 8.98333 C 79.6667 %
1762 19-04-2012 20:00:00 7.41667 C 84.3333 %
1763 19-04-2012 21:00:00 5.5 C 88.8333 %
1764 19-04-2012 22:00:00 4.36667 C 89.8333 %
1765 19-04-2012 23:00:00 3.91667 C 91.6667 %
1766 20-04-2012 00:00:00 3.63333 C 92.0000 %
1767 20-04-2012 01:00:00 3.68333 C 92.1667 %
1768 20-04-2012 02:00:00 4.05 C 92.8333 %
1769 20-04-2012 03:00:00 4.05 C 93.1667 %
1770 20-04-2012 04:00:00 3.85 C 94.0000 %
1771 20-04-2012 05:00:00 3.41667 C 93.6667 %
1772 20-04-2012 06:00:00 3.78333 C 94.0000 %
1773 20-04-2012 07:00:00 3.61667 C 93.8333 %
1774 20-04-2012 08:00:00 4.2 C 93.3333 %
1775 20-04-2012 09:00:00 6.7 C 91.8333 %
Sensor: Nr:Datum:Temp:Feuchte:
Aussen-T/F 1776 20-04-2012 10:00:00 9.5 C 72.0000 %
1777 20-04-2012 11:00:00 11.46667 C 54.6667 %
1778 20-04-2012 12:00:00 12.01667 C 49.5000 %
1779 20-04-2012 13:00:00 12.9 C 45.8333 %
1780 20-04-2012 14:00:00 16.33333 C 34.0000 %
1781 20-04-2012 15:00:00 16.31667 C 31.0000 %
1782 20-04-2012 16:00:00 11.88333 C 49.3333 %
1783 20-04-2012 17:00:00 17.25 C 30.6667 %
1784 20-04-2012 18:00:00 14.91667 C 33.8333 %
1785 20-04-2012 19:00:00 12.73333 C 38.1667 %
1786 20-04-2012 20:00:00 9.1 C 59.6667 %
1787 20-04-2012 21:00:00 7.05 C 71.5000 %
1788 20-04-2012 22:00:00 6.25 C 76.5000 %
1789 20-04-2012 23:00:00 6.01667 C 77.5000 %
1790 21-04-2012 00:00:00 5.43333 C 79.6667 %
1791 21-04-2012 01:00:00 5.31667 C 81.3333 %
1792 21-04-2012 02:00:00 4.51667 C 83.6667 %
1793 21-04-2012 03:00:00 4.91667 C 83.1667 %
1794 21-04-2012 04:00:00 4.1 C 84.5000 %
1795 21-04-2012 05:00:00 3.95 C 88.0000 %
1796 21-04-2012 06:00:00 5.35 C 87.0000 %
1797 21-04-2012 07:00:00 6.61667 C 85.0000 %
1798 21-04-2012 08:00:00 7.48333 C 81.0000 %
1799 21-04-2012 14:00:00 13.5 C 48.3333 %
1800 21-04-2012 15:00:00 14.95 C 37.6667 %
Sensor: Nr:Datum:Temp:Feuchte:
Aussen-T/F 1801 21-04-2012 16:00:00 14.38333 C 34.1667 %
1802 21-04-2012 17:00:00 10.58333 C 54.6667 %
1803 21-04-2012 18:00:00 9.8 C 61.8333 %
1804 21-04-2012 19:00:00 10.8 C 60.8333 %
1805 21-04-2012 20:00:00 8.18333 C 71.3333 %
1806 21-04-2012 21:00:00 7.21667 C 75.5000 %
1807 21-04-2012 22:00:00 5.96667 C 86.1667 %
1808 21-04-2012 23:00:00 4.96667 C 89.1667 %
1809 22-04-2012 00:00:00 4.1 C 91.1667 %
1810 22-04-2012 01:00:00 4.45 C 91.8333 %
1811 22-04-2012 02:00:00 4.91667 C 92.5000 %
1812 22-04-2012 03:00:00 4.18333 C 92.8333 %
1813 22-04-2012 04:00:00 3.46667 C 93.0000 %
1814 22-04-2012 05:00:00 3.65 C 93.0000 %
1815 22-04-2012 06:00:00 4.3 C 92.0000 %
1816 22-04-2012 07:00:00 5.25 C 81.8333 %
1817 22-04-2012 08:00:00 6.55 C 73.1667 %
1818 22-04-2012 09:00:00 8 C 62.5000 %
1819 22-04-2012 10:00:00 9.31667 C 56.0000 %
1820 22-04-2012 11:00:00 10 C 52.6667 %
1821 22-04-2012 12:00:00 10.9 C 46.5000 %
1822 22-04-2012 13:00:00 12.11667 C 43.8333 %
1823 22-04-2012 14:00:00 14.16667 C 37.1667 %
1824 22-04-2012 15:00:00 13.76667 C 36.6667 %
1825 22-04-2012 16:00:00 15.9 C 32.0000 %
Sensor: Nr:Datum:Temp:Feuchte:
Aussen-T/F 1826 22-04-2012 17:00:00 12.35 C 38.8333 %
1827 22-04-2012 18:00:00 12.51667 C 42.3333 %
1828 22-04-2012 19:00:00 7.53333 C 75.3333 %
1829 22-04-2012 20:00:00 6.56667 C 78.3333 %
1830 22-04-2012 21:00:00 6.38333 C 80.6667 %
1831 22-04-2012 22:00:00 6.33333 C 79.6667 %
1832 22-04-2012 23:00:00 4.75 C 86.1667 %
1833 23-04-2012 00:00:00 4.23333 C 89.8333 %
1834 23-04-2012 01:00:00 5.18333 C 90.6667 %
1835 23-04-2012 02:00:00 5.38333 C 86.3333 %
1836 23-04-2012 03:00:00 4.76667 C 87.1667 %
1837 23-04-2012 04:00:00 4.43333 C 88.5000 %
1838 23-04-2012 05:00:00 3.23333 C 90.8333 %
1839 23-04-2012 06:00:00 3.18333 C 92.1667 %
1840 23-04-2012 07:00:00 5.05 C 92.1667 %
1841 23-04-2012 08:00:00 6.78333 C 88.3333 %
1842 23-04-2012 09:00:00 8.6 C 65.0000 %
1843 23-04-2012 10:00:00 9.23333 C 61.1667 %
1844 23-04-2012 11:00:00 10.23333 C 55.5000 %
1845 23-04-2012 12:00:00 9.31667 C 63.0000 %
1846 23-04-2012 13:00:00 11.7 C 60.6667 %
1847 23-04-2012 14:00:00 12.83333 C 44.1667 %
1848 23-04-2012 15:00:00 14.25 C 38.3333 %
1849 23-04-2012 16:00:00 16 C 38.5000 %
1850 23-04-2012 17:00:00 15.3 C 30.0000 %
Sensor: Nr:Datum:Temp:Feuchte:
Aussen-T/F 1851 23-04-2012 18:00:00 13.53333 C 37.8333 %
1852 23-04-2012 19:00:00 12.28333 C 41.1667 %
1853 23-04-2012 20:00:00 10.03333 C 54.5000 %
1854 23-04-2012 21:00:00 9.06667 C 63.8333 %
1855 23-04-2012 22:00:00 7.93333 C 71.5000 %
1856 23-04-2012 23:00:00 6.75 C 85.3333 %
1857 24-04-2012 00:00:00 6.6 C 88.6667 %
1858 24-04-2012 01:00:00 6.73333 C 89.0000 %
1859 24-04-2012 02:00:00 6.33333 C 89.8333 %
1860 24-04-2012 03:00:00 5.61667 C 90.8333 %
1861 24-04-2012 04:00:00 5.86667 C 91.8333 %
1862 24-04-2012 05:00:00 5.8 C 91.6667 %
1863 24-04-2012 06:00:00 5.08333 C 92.0000 %
1864 24-04-2012 07:00:00 5.15 C 92.3333 %
1865 24-04-2012 08:00:00 6.56667 C 91.8333 %
1866 24-04-2012 09:00:00 8.13333 C 86.1667 %
1867 24-04-2012 10:00:00 10.1 C 67.8333 %
1868 24-04-2012 11:00:00 11.48333 C 58.1667 %
1869 24-04-2012 12:00:00 12.61667 C 50.0000 %
1870 24-04-2012 13:00:00 13.11667 C 46.6667 %
1871 24-04-2012 14:00:00 12.5 C 56.1667 %
1872 24-04-2012 15:00:00 13.63333 C 55.0000 %
1873 24-04-2012 16:00:00 11.01667 C 67.0000 %
1874 24-04-2012 17:00:00 12.76667 C 56.1667 %
1875 24-04-2012 18:00:00 11.61667 C 54.1667 %
Sensor: Nr:Datum:Temp:Feuchte:
Aussen-T/F 1876 24-04-2012 19:00:00 11.16667 C 56.1667 %
1877 24-04-2012 20:00:00 10.2 C 59.1667 %
1878 24-04-2012 21:00:00 8.8 C 70.1667 %
1879 24-04-2012 22:00:00 8.56667 C 72.0000 %
1880 24-04-2012 23:00:00 8.58333 C 72.6667 %
1881 25-04-2012 00:00:00 8.81667 C 70.3333 %
1882 25-04-2012 01:00:00 8.58333 C 71.1667 %
1883 25-04-2012 02:00:00 8.33333 C 71.5000 %
1884 25-04-2012 03:00:00 8 C 72.1667 %
1885 25-04-2012 04:00:00 7.6 C 70.6667 %
1886 25-04-2012 05:00:00 6.38333 C 78.3333 %
1887 25-04-2012 06:00:00 4.83333 C 86.0000 %
1888 25-04-2012 07:00:00 4.85 C 88.0000 %
1889 25-04-2012 08:00:00 7.13333 C 81.5000 %
1890 25-04-2012 09:00:00 9.71667 C 59.6667 %
1891 25-04-2012 10:00:00 11.93333 C 49.1667 %
1892 25-04-2012 11:00:00 13.21667 C 44.6667 %
1893 25-04-2012 12:00:00 14.1 C 42.5000 %
1894 25-04-2012 13:00:00 14.96667 C 38.6667 %
1895 25-04-2012 14:00:00 15.38333 C 36.8333 %
1896 25-04-2012 15:00:00 15.11667 C 35.0000 %
1897 25-04-2012 16:00:00 14.41667 C 38.5000 %
1898 25-04-2012 17:00:00 13.81667 C 43.1667 %
1899 25-04-2012 18:00:00 10.38333 C 72.8333 %
1900 25-04-2012 19:00:00 9.95 C 82.1667 %
Sensor: Nr:Datum:Temp:Feuchte:
Aussen-T/F 1901 25-04-2012 20:00:00 9.5 C 85.1667 %
1902 25-04-2012 21:00:00 9.41667 C 87.5000 %
1903 25-04-2012 22:00:00 9.66667 C 86.8333 %
1904 25-04-2012 23:00:00 9.35 C 86.6667 %
1905 26-04-2012 00:00:00 9.3 C 88.3333 %
1906 26-04-2012 01:00:00 9.36667 C 88.1667 %
1907 26-04-2012 02:00:00 9.31667 C 89.0000 %
1908 26-04-2012 03:00:00 9.21667 C 89.3333 %
1909 26-04-2012 04:00:00 9.13333 C 90.0000 %
1910 26-04-2012 05:00:00 8.88333 C 90.6667 %
1911 26-04-2012 06:00:00 8.86667 C 90.1667 %
1912 26-04-2012 07:00:00 9.2 C 89.0000 %
1913 26-04-2012 08:00:00 9.7 C 86.8333 %
1914 26-04-2012 09:00:00 10.4 C 73.8333 %
1915 26-04-2012 10:00:00 12.18333 C 61.3333 %
1916 26-04-2012 11:00:00 13.78333 C 50.3333 %
1917 26-04-2012 12:00:00 14.93333 C 45.1667 %
1918 26-04-2012 13:00:00 15.25 C 41.5000 %
1919 26-04-2012 14:00:00 15.56667 C 41.6667 %
1920 26-04-2012 15:00:00 17.2 C 36.5000 %
1921 26-04-2012 16:00:00 14.91667 C 41.8333 %
1922 26-04-2012 17:00:00 15.1 C 43.0000 %
1923 26-04-2012 18:00:00 14.08333 C 49.1667 %
1924 26-04-2012 19:00:00 13.33333 C 50.5000 %
1925 26-04-2012 20:00:00 11 C 62.1667 %
Sensor: Nr:Datum:Temp:Feuchte:
Aussen-T/F 1926 26-04-2012 21:00:00 10.48333 C 65.6667 %
1927 26-04-2012 22:00:00 10.71667 C 64.5000 %
1928 26-04-2012 23:00:00 10.36667 C 68.0000 %
1929 27-04-2012 00:00:00 10.13333 C 71.8333 %
1930 27-04-2012 01:00:00 10.28333 C 71.0000 %
1931 27-04-2012 02:00:00 9.75 C 75.1667 %
1932 27-04-2012 03:00:00 9.6 C 77.6667 %
1933 27-04-2012 04:00:00 9.63333 C 76.0000 %
1934 27-04-2012 05:00:00 9.51667 C 76.5000 %
1935 27-04-2012 06:00:00 9.66667 C 75.8333 %
1936 27-04-2012 07:00:00 9.78333 C 77.1667 %
1937 27-04-2012 08:00:00 10.6 C 74.3333 %
1938 27-04-2012 09:00:00 13.03333 C 56.1667 %
1939 27-04-2012 10:00:00 14.08333 C 50.0000 %
1940 27-04-2012 11:00:00 15.95 C 44.6667 %
1941 27-04-2012 12:00:00 16.73333 C 44.3333 %
1942 27-04-2012 13:00:00 18.2 C 41.0000 %
1943 27-04-2012 14:00:00 18.65 C 40.5000 %
1944 27-04-2012 15:00:00 18.51667 C 41.1667 %
1945 27-04-2012 16:00:00 15.88333 C 64.1667 %
1946 27-04-2012 17:00:00 13.95 C 79.8333 %
1947 27-04-2012 18:00:00 13.33333 C 84.5000 %
1948 27-04-2012 19:00:00 12.71667 C 86.1667 %
1949 27-04-2012 20:00:00 12.31667 C 87.5000 %
1950 27-04-2012 21:00:00 11.88333 C 88.6667 %
Sensor: Nr:Datum:Temp:Feuchte:
Aussen-T/F 1951 27-04-2012 22:00:00 11.7 C 89.0000 %
1952 27-04-2012 23:00:00 11.78333 C 89.5000 %
1953 28-04-2012 00:00:00 11.58333 C 90.0000 %
1954 28-04-2012 01:00:00 11.45 C 89.8333 %
1955 28-04-2012 02:00:00 11.21667 C 90.0000 %
1956 28-04-2012 03:00:00 11.11667 C 90.0000 %
1957 28-04-2012 04:00:00 10.63333 C 90.0000 %
1958 28-04-2012 05:00:00 9.72 C 91.0000 %
1959 28-04-2012 06:00:00 9.61667 C 90.8333 %
1960 28-04-2012 07:00:00 10.53333 C 90.8333 %
1961 28-04-2012 08:00:00 11.41667 C 90.1667 %
1962 28-04-2012 09:00:00 13.33333 C 89.5000 %
1963 28-04-2012 10:00:00 16.66667 C 86.5000 %
1964 28-04-2012 11:00:00 17.9 C 72.1667 %
1965 28-04-2012 12:00:00 20.38333 C 54.3333 %
1966 28-04-2012 13:00:00 25.5 C 32.8333 %
1967 28-04-2012 14:00:00 33.38333 C 20.0000 %
1968 28-04-2012 15:00:00 33.93333 C 20.0000 %
1969 28-04-2012 16:00:00 34.18333 C 20.0000 %
1970 28-04-2012 17:00:00 33.25 C 20.0000 %
1971 28-04-2012 18:00:00 31.76667 C 22.5000 %
1972 28-04-2012 19:00:00 25.66667 C 34.8333 %
1973 28-04-2012 20:00:00 21.26667 C 44.5000 %
1974 28-04-2012 21:00:00 19.68333 C 47.3333 %
1975 28-04-2012 22:00:00 18.81667 C 49.0000 %
Sensor: Nr:Datum:Temp:Feuchte:
Aussen-T/F 1976 28-04-2012 23:00:00 18.16667 C 52.3333 %
1977 29-04-2012 00:00:00 17.4 C 61.0000 %
1978 29-04-2012 01:00:00 16.43333 C 66.6667 %
1979 29-04-2012 02:00:00 14.45 C 74.1667 %
1980 29-04-2012 03:00:00 12.91667 C 81.0000 %
1981 29-04-2012 04:00:00 12.13333 C 84.6667 %
1982 29-04-2012 05:00:00 11.93333 C 85.6667 %
1983 29-04-2012 06:00:00 12.18333 C 87.0000 %
1984 29-04-2012 07:00:00 12.6 C 87.0000 %
1985 29-04-2012 08:00:00 13.45 C 84.3333 %
1986 29-04-2012 09:00:00 14.11667 C 78.3333 %
1987 29-04-2012 10:00:00 15.83333 C 70.6667 %
1988 29-04-2012 11:00:00 17.53333 C 62.6667 %
1989 29-04-2012 12:00:00 21.5 C 40.3333 %
1990 29-04-2012 13:00:00 22.23333 C 33.8333 %
1991 29-04-2012 14:00:00 23.03333 C 30.0000 %
1992 29-04-2012 15:00:00 24.36667 C 26.3333 %
1993 29-04-2012 16:00:00 23.01667 C 26.6667 %
1994 29-04-2012 17:00:00 23.38333 C 28.1667 %
1995 29-04-2012 18:00:00 27.05 C 20.1667 %
1996 29-04-2012 19:00:00 23.33333 C 29.0000 %
1997 29-04-2012 20:00:00 18.15 C 53.6667 %
1998 29-04-2012 21:00:00 16.2 C 62.1667 %
1999 29-04-2012 22:00:00 13.73333 C 82.3333 %
2000 29-04-2012 23:00:00 12.88333 C 85.8333 %
Sensor: Nr:Datum:Temp:Feuchte:
Aussen-T/F 2001 30-04-2012 00:00:00 12.48333 C 84.6667 %
2002 30-04-2012 01:00:00 12.13333 C 83.5000 %
2003 30-04-2012 02:00:00 12.33333 C 83.5000 %
2004 30-04-2012 03:00:00 11.35 C 82.8333 %
2005 30-04-2012 04:00:00 10.4 C 85.6667 %
2006 30-04-2012 05:00:00 11 C 87.3333 %
2007 30-04-2012 06:00:00 11.23333 C 88.0000 %
2008 30-04-2012 07:00:00 12 C 85.8333 %
2009 30-04-2012 08:00:00 12.46667 C 81.8333 %
2010 30-04-2012 09:00:00 13.28333 C 81.5000 %
2011 30-04-2012 10:00:00 17.45 C 56.0000 %
2012 30-04-2012 11:00:00 21.46667 C 29.1667 %
2013 30-04-2012 12:00:00 22.85 C 27.8333 %
2014 30-04-2012 13:00:00 24 C 25.1667 %
2015 30-04-2012 14:00:00 25.65 C 20.0000 %
2016 30-04-2012 15:00:00 26.81667 C 20.0000 %
2017 30-04-2012 16:00:00 28 C 20.0000 %
2018 30-04-2012 17:00:00 29.93333 C 20.0000 %
2019 30-04-2012 18:00:00 28.48333 C 20.1667 %
2020 30-04-2012 19:00:00 24.15 C 27.6667 %
2021 30-04-2012 20:00:00 21.45 C 35.5000 %
2022 30-04-2012 21:00:00 21.05 C 31.6667 %
2023 30-04-2012 22:00:00 20.51667 C 32.8333 %
2024 30-04-2012 23:00:00 19.61667 C 37.6667 %
2025 01-05-2012 00:00:00 18.35 C 43.0000 %
Sensor: Nr:Datum:Temp:Feuchte:
Aussen-T/F 2026 01-05-2012 01:00:00 18.18333 C 42.1667 %
2027 01-05-2012 02:00:00 17.45 C 44.5000 %
2028 01-05-2012 03:00:00 15.33333 C 61.0000 %
2029 01-05-2012 04:00:00 13.58333 C 83.3333 %
2030 01-05-2012 05:00:00 13.2 C 86.6667 %
2031 01-05-2012 06:00:00 12.76667 C 87.6667 %
2032 01-05-2012 07:00:00 12.68333 C 86.8333 %
2033 01-05-2012 08:00:00 13.05 C 82.1667 %
2034 01-05-2012 09:00:00 14.36667 C 71.3333 %
2035 01-05-2012 10:00:00 15.51667 C 64.6667 %
2036 01-05-2012 11:00:00 16.6 C 58.6667 %
2037 01-05-2012 12:00:00 18.1 C 51.6667 %
2038 01-05-2012 13:00:00 20.85 C 40.5000 %
2039 01-05-2012 14:00:00 26.75 C 26.1667 %
2040 01-05-2012 15:00:00 28.76667 C 22.8333 %
2041 01-05-2012 16:00:00 26.86667 C 27.0000 %
2042 01-05-2012 17:00:00 24.13333 C 34.3333 %
2043 01-05-2012 18:00:00 20.2 C 50.6667 %
2044 01-05-2012 19:00:00 20.16667 C 49.3333 %
2045 01-05-2012 20:00:00 18.15 C 52.8333 %
2046 01-05-2012 21:00:00 16.1 C 64.1667 %
2047 01-05-2012 22:00:00 16.18333 C 60.6667 %
2048 01-05-2012 23:00:00 15 C 65.3333 %
2049 02-05-2012 00:00:00 14.11667 C 72.1667 %
2050 02-05-2012 01:00:00 14.58333 C 71.3333 %
Sensor: Nr:Datum:Temp:Feuchte:
Aussen-T/F 2051 02-05-2012 02:00:00 14.91667 C 70.1667 %
2052 02-05-2012 03:00:00 14.58333 C 73.3333 %
2053 02-05-2012 04:00:00 14.95 C 73.5000 %
2054 02-05-2012 05:00:00 14.65 C 76.8333 %
2055 02-05-2012 06:00:00 14.75 C 75.8333 %
2056 02-05-2012 07:00:00 14.93333 C 73.1667 %
2057 02-05-2012 08:00:00 15.33333 C 69.8333 %
2058 02-05-2012 09:00:00 14.86667 C 74.3333 %
2059 02-05-2012 10:00:00 14.7 C 76.8333 %
2060 02-05-2012 11:00:00 15.46667 C 78.8333 %
2061 02-05-2012 12:00:00 16.43333 C 71.6667 %
2062 02-05-2012 13:00:00 17.33333 C 67.5000 %
2063 02-05-2012 14:00:00 16.38333 C 74.5000 %
2064 02-05-2012 15:00:00 14.86667 C 83.3333 %
2065 02-05-2012 16:00:00 17.05 C 74.5000 %
2066 02-05-2012 17:00:00 22.31667 C 50.1667 %
2067 02-05-2012 18:00:00 22.6 C 47.6667 %
2068 02-05-2012 19:00:00 19.33333 C 60.0000 %
2069 02-05-2012 20:00:00 16.11667 C 79.0000 %
2070 02-05-2012 21:00:00 15.03333 C 75.5000 %
2071 02-05-2012 22:00:00 12.73333 C 82.6667 %
2072 02-05-2012 23:00:00 11.85 C 84.6667 %
2073 03-05-2012 00:00:00 10.7 C 82.8333 %
2074 03-05-2012 01:00:00 9.81667 C 84.5000 %
2075 03-05-2012 02:00:00 8.8 C 87.3333 %
Sensor: Nr:Datum:Temp:Feuchte:
Aussen-T/F 2076 03-05-2012 03:00:00 9.63333 C 88.1667 %
2077 03-05-2012 04:00:00 9.4 C 88.0000 %
2078 03-05-2012 05:00:00 10.33333 C 86.0000 %
2079 03-05-2012 06:00:00 11.11667 C 81.5000 %
2080 03-05-2012 07:00:00 11.4 C 81.5000 %
2081 03-05-2012 08:00:00 12.48333 C 73.0000 %
2082 03-05-2012 09:00:00 13.9 C 60.3333 %
2083 03-05-2012 10:00:00 14.25 C 57.3333 %
2084 03-05-2012 11:00:00 15.3 C 52.5000 %
2085 03-05-2012 12:00:00 15.58333 C 50.5000 %
2086 03-05-2012 13:00:00 17.83333 C 43.5000 %
2087 03-05-2012 14:00:00 19.46667 C 38.8333 %
2088 03-05-2012 15:00:00 20.6 C 33.1667 %
2089 03-05-2012 16:00:00 20.2 C 34.0000 %
2090 03-05-2012 17:00:00 19.7 C 35.3333 %
2091 03-05-2012 18:00:00 20.53333 C 32.3333 %
2092 03-05-2012 19:00:00 17.25 C 41.5000 %
2093 03-05-2012 20:00:00 15.51667 C 50.1667 %
2094 03-05-2012 21:00:00 12.13333 C 69.0000 %
2095 03-05-2012 22:00:00 11.66667 C 72.5000 %
2096 03-05-2012 23:00:00 11.78333 C 73.1667 %
2097 04-05-2012 00:00:00 11.33333 C 72.8333 %
2098 04-05-2012 01:00:00 9.48333 C 80.5000 %
2099 04-05-2012 02:00:00 8.78333 C 84.6667 %
2100 04-05-2012 03:00:00 8.08333 C 86.5000 %
Sensor: Nr:Datum:Temp:Feuchte:
Aussen-T/F 2101 04-05-2012 04:00:00 9.06667 C 86.5000 %
2102 04-05-2012 05:00:00 8.36667 C 84.8333 %
2103 04-05-2012 06:00:00 7.08333 C 87.8333 %
2104 04-05-2012 07:00:00 7.46667 C 89.0000 %
2105 04-05-2012 08:00:00 8.15 C 88.8333 %
2106 04-05-2012 09:00:00 9.88333 C 86.8333 %
2107 04-05-2012 10:00:00 15.4 C 71.8333 %
2108 04-05-2012 11:00:00 19.53333 C 37.8333 %
2109 04-05-2012 12:00:00 19.15 C 38.0000 %
2110 04-05-2012 13:00:00 21.55 C 32.3333 %
2111 04-05-2012 14:00:00 25.01667 C 20.5000 %
2112 04-05-2012 15:00:00 25.61667 C 20.3333 %
2113 04-05-2012 16:00:00 24.48333 C 22.0000 %
2114 04-05-2012 17:00:00 24.33333 C 25.1667 %
2115 04-05-2012 18:00:00 21.88333 C 33.0000 %
2116 04-05-2012 19:00:00 17.78333 C 49.1667 %
2117 04-05-2012 20:00:00 16.06667 C 59.8333 %
2118 04-05-2012 21:00:00 13.46667 C 79.8333 %
2119 04-05-2012 22:00:00 13.11667 C 83.6667 %
2120 04-05-2012 23:00:00 13.1 C 85.0000 %
2121 05-05-2012 00:00:00 12.51667 C 84.3333 %
2122 05-05-2012 01:00:00 11.56667 C 86.5000 %
2123 05-05-2012 02:00:00 11.78333 C 88.3333 %
2124 05-05-2012 03:00:00 11.33333 C 88.5000 %
2125 05-05-2012 04:00:00 10.71667 C 88.6667 %
Sensor: Nr:Datum:Temp:Feuchte:
Aussen-T/F 2126 05-05-2012 05:00:00 11.08333 C 89.0000 %
2127 05-05-2012 06:00:00 10.91667 C 89.0000 %
2128 05-05-2012 07:00:00 11.55 C 88.6667 %
2129 05-05-2012 08:00:00 11.83333 C 86.0000 %
2130 05-05-2012 09:00:00 12.68333 C 80.3333 %
2131 05-05-2012 10:00:00 13.41667 C 79.8333 %
2132 05-05-2012 11:00:00 13.63333 C 77.0000 %
2133 05-05-2012 12:00:00 12.05 C 81.0000 %
2134 05-05-2012 13:00:00 11.81667 C 82.3333 %
2135 05-05-2012 14:00:00 12 C 79.3333 %
2136 05-05-2012 15:00:00 11.31667 C 80.6667 %
2137 05-05-2012 16:00:00 10.96667 C 82.3333 %
2138 05-05-2012 17:00:00 11.55 C 77.0000 %
2139 05-05-2012 18:00:00 11.21667 C 76.5000 %
2140 05-05-2012 19:00:00 11.28333 C 76.8333 %
2141 05-05-2012 20:00:00 10.55 C 79.5000 %
2142 05-05-2012 21:00:00 10.18333 C 83.8333 %
2143 05-05-2012 22:00:00 10 C 85.3333 %
2144 05-05-2012 23:00:00 9.88333 C 87.1667 %
2145 06-05-2012 00:00:00 9.88333 C 88.0000 %
2146 06-05-2012 01:00:00 9.83333 C 88.0000 %
2147 06-05-2012 02:00:00 9.86667 C 89.0000 %
2148 06-05-2012 03:00:00 9.68333 C 88.5000 %
2149 06-05-2012 04:00:00 9.45 C 88.0000 %
2150 06-05-2012 05:00:00 9.28333 C 88.0000 %
Sensor: Nr:Datum:Temp:Feuchte:
Aussen-T/F 2151 06-05-2012 06:00:00 9.01667 C 87.6667 %
2152 06-05-2012 07:00:00 8.68333 C 88.0000 %
2153 06-05-2012 08:00:00 8.68333 C 89.0000 %
2154 06-05-2012 09:00:00 9.13333 C 87.3333 %
2155 06-05-2012 10:00:00 10.13333 C 81.3333 %
2156 06-05-2012 11:00:00 11.18333 C 78.6667 %
2157 06-05-2012 12:00:00 13.93333 C 65.5000 %
2158 06-05-2012 13:00:00 15.66667 C 56.1667 %
2159 06-05-2012 14:00:00 16.06667 C 52.8333 %
2160 06-05-2012 15:00:00 12.2 C 78.5000 %
2161 06-05-2012 16:00:00 13.43333 C 77.3333 %
2162 06-05-2012 17:00:00 15.2 C 65.6667 %
2163 06-05-2012 18:00:00 12.78333 C 81.6667 %
2164 06-05-2012 19:00:00 12.01667 C 78.0000 %
2165 06-05-2012 20:00:00 10.23333 C 81.1667 %
2166 06-05-2012 21:00:00 9.4 C 84.5000 %
2167 06-05-2012 22:00:00 9.1 C 84.1667 %
2168 06-05-2012 23:00:00 8.91667 C 85.0000 %
2169 07-05-2012 00:00:00 8.76667 C 84.5000 %
2170 07-05-2012 01:00:00 8.65 C 82.5000 %
2171 07-05-2012 02:00:00 8.58333 C 80.6667 %
2172 07-05-2012 03:00:00 8.35 C 80.1667 %
2173 07-05-2012 04:00:00 8.18333 C 79.8333 %
2174 07-05-2012 05:00:00 8.05 C 80.3333 %
2175 07-05-2012 06:00:00 7.88333 C 84.6667 %
Sensor: Nr:Datum:Temp:Feuchte:
Aussen-T/F 2176 07-05-2012 07:00:00 8.18333 C 84.1667 %
2177 07-05-2012 08:00:00 8.7 C 80.5000 %
2178 07-05-2012 09:00:00 10.55 C 65.0000 %
2179 07-05-2012 10:00:00 11.76667 C 55.3333 %
2180 07-05-2012 11:00:00 12.2 C 54.5000 %
2181 07-05-2012 12:00:00 12.65 C 51.3333 %
2182 07-05-2012 13:00:00 13.28333 C 49.8333 %
2183 07-05-2012 14:00:00 14 C 46.1667 %
2184 07-05-2012 15:00:00 15.23333 C 43.8333 %
2185 07-05-2012 16:00:00 15.03333 C 44.8333 %
2186 07-05-2012 17:00:00 20.11667 C 33.0000 %
2187 07-05-2012 18:00:00 19.93333 C 33.5000 %
2188 07-05-2012 19:00:00 16.63333 C 41.3333 %
2189 07-05-2012 20:00:00 11.63333 C 66.1667 %
2190 07-05-2012 21:00:00 8.9 C 78.6667 %
2191 07-05-2012 22:00:00 7.78333 C 83.8333 %
2192 07-05-2012 23:00:00 7.46667 C 87.0000 %
2193 08-05-2012 00:00:00 7.5 C 88.5000 %
2194 08-05-2012 01:00:00 7.5 C 89.0000 %
2195 08-05-2012 02:00:00 7.13333 C 90.3333 %
2196 08-05-2012 03:00:00 6.03333 C 90.3333 %
2197 08-05-2012 04:00:00 5.7 C 91.3333 %
2198 08-05-2012 05:00:00 5.88333 C 91.8333 %
2199 08-05-2012 06:00:00 6.15 C 92.0000 %
2200 08-05-2012 07:00:00 6.98333 C 91.8333 %
Sensor: Nr:Datum:Temp:Feuchte:
Aussen-T/F 2201 08-05-2012 08:00:00 7.85 C 89.6667 %
2202 08-05-2012 09:00:00 9.2 C 87.6667 %
2203 08-05-2012 10:00:00 13.78333 C 71.3333 %
2204 08-05-2012 11:00:00 17.36667 C 38.0000 %
2205 08-05-2012 12:00:00 18.83333 C 34.0000 %
2206 08-05-2012 13:00:00 22.98333 C 25.5000 %
2207 08-05-2012 14:00:00 24.01667 C 24.3333 %
2208 08-05-2012 15:00:00 23.7 C 24.6667 %
2209 08-05-2012 16:00:00 23.6 C 25.3333 %
2210 08-05-2012 17:00:00 23.03333 C 26.5000 %
2211 08-05-2012 18:00:00 21.28333 C 34.0000 %
2212 08-05-2012 19:00:00 19.06667 C 43.3333 %
2213 08-05-2012 20:00:00 18.01667 C 49.3333 %
2214 08-05-2012 21:00:00 16.08333 C 54.1667 %
2215 08-05-2012 22:00:00 15 C 60.0000 %
2216 08-05-2012 23:00:00 12.86667 C 73.5000 %
2217 09-05-2012 00:00:00 12.58333 C 79.1667 %
2218 09-05-2012 01:00:00 13.88333 C 76.0000 %
2219 09-05-2012 02:00:00 14.4 C 73.1667 %
2220 09-05-2012 03:00:00 14.3 C 74.5000 %
2221 09-05-2012 04:00:00 14.3 C 75.5000 %
2222 09-05-2012 05:00:00 13.73333 C 78.3333 %
2223 09-05-2012 06:00:00 14.21667 C 78.8333 %
2224 09-05-2012 07:00:00 15.58333 C 73.0000 %
2225 09-05-2012 08:00:00 16.48333 C 68.5000 %
Sensor: Nr:Datum:Temp:Feuchte:
Aussen-T/F 2226 09-05-2012 09:00:00 17.7 C 62.3333 %
2227 09-05-2012 10:00:00 18.6 C 57.5000 %
2228 09-05-2012 11:00:00 19.3 C 55.5000 %
2229 09-05-2012 12:00:00 18.71667 C 62.1667 %
2230 09-05-2012 13:00:00 19.1 C 60.8333 %
2231 09-05-2012 14:00:00 19.86667 C 62.1667 %
2232 09-05-2012 15:00:00 21.88333 C 51.0000 %
2233 09-05-2012 16:00:00 22.96667 C 44.5000 %
2234 09-05-2012 17:00:00 21.53333 C 49.0000 %
2235 09-05-2012 18:00:00 22.38333 C 47.0000 %
2236 09-05-2012 19:00:00 20.85 C 52.8333 %
2237 09-05-2012 20:00:00 18.66667 C 64.1667 %
2238 09-05-2012 21:00:00 16.26667 C 75.0000 %
2239 09-05-2012 22:00:00 14.9 C 80.8333 %
2240 09-05-2012 23:00:00 13.8 C 84.1667 %
2241 10-05-2012 00:00:00 13.9 C 85.6667 %
2242 10-05-2012 01:00:00 13.76667 C 85.1667 %
2243 10-05-2012 02:00:00 13.35 C 86.1667 %
2244 10-05-2012 03:00:00 12.71667 C 86.6667 %
2245 10-05-2012 04:00:00 11.65 C 87.5000 %
2246 10-05-2012 05:00:00 11.9 C 88.1667 %
2247 10-05-2012 06:00:00 12.43333 C 88.5000 %
2248 10-05-2012 07:00:00 13.38333 C 88.0000 %
2249 10-05-2012 08:00:00 15.5 C 82.5000 %
2250 10-05-2012 09:00:00 18.91667 C 63.1667 %
Sensor: Nr:Datum:Temp:Feuchte:
Aussen-T/F 2251 10-05-2012 10:00:00 22 C 54.8333 %
2252 10-05-2012 11:00:00 24.85 C 42.3333 %
2253 10-05-2012 12:00:00 25.31667 C 41.3333 %
2254 10-05-2012 13:00:00 27.35 C 37.5000 %
2255 10-05-2012 14:00:00 29.3 C 29.6667 %
2256 10-05-2012 15:00:00 28.55 C 29.6667 %
2257 10-05-2012 16:00:00 27.46667 C 37.5000 %
2258 10-05-2012 17:00:00 27.8 C 38.8333 %
2259 10-05-2012 18:00:00 24.35 C 50.6667 %
2260 10-05-2012 19:00:00 24.68333 C 50.1667 %
2261 10-05-2012 20:00:00 22.8 C 55.3333 %
2262 10-05-2012 21:00:00 20.86667 C 61.0000 %
2263 10-05-2012 22:00:00 20.51667 C 62.5000 %
2264 10-05-2012 23:00:00 20.01667 C 65.0000 %
2265 11-05-2012 00:00:00 19.36667 C 68.8333 %
2266 11-05-2012 01:00:00 18.76667 C 72.1667 %
2267 11-05-2012 02:00:00 17.9 C 76.5000 %
2268 11-05-2012 03:00:00 16.96667 C 80.8333 %
2269 11-05-2012 04:00:00 16.35 C 83.5000 %
2270 11-05-2012 05:00:00 15.9 C 85.0000 %
2271 11-05-2012 06:00:00 16.15 C 86.0000 %
2272 11-05-2012 07:00:00 17.81667 C 83.0000 %
2273 11-05-2012 08:00:00 20.41667 C 69.8333 %
2274 11-05-2012 09:00:00 22.88333 C 56.1667 %
2275 11-05-2012 10:00:00 24.76667 C 47.0000 %
Sensor: Nr:Datum:Temp:Feuchte:
Aussen-T/F 2276 11-05-2012 11:00:00 26.08333 C 41.8333 %
2277 11-05-2012 12:00:00 26.96667 C 39.3333 %
2278 11-05-2012 13:00:00 27.6 C 39.1667 %
2279 11-05-2012 14:00:00 24.88333 C 42.6667 %
2280 11-05-2012 15:00:00 23.16667 C 49.6667 %
2281 11-05-2012 16:00:00 21.41667 C 59.3333 %
2282 11-05-2012 17:00:00 19.11667 C 78.1667 %
2283 11-05-2012 18:00:00 18.2 C 79.8333 %
2284 11-05-2012 19:00:00 16.36667 C 80.3333 %
2285 11-05-2012 20:00:00 15.68333 C 72.8333 %
2286 11-05-2012 21:00:00 14.71667 C 63.0000 %
2287 11-05-2012 22:00:00 13.3 C 67.8333 %
2288 11-05-2012 23:00:00 13.18333 C 64.3333 %
2289 12-05-2012 00:00:00 13.01667 C 61.6667 %
2290 12-05-2012 01:00:00 12.71667 C 62.3333 %
2291 12-05-2012 02:00:00 12.38333 C 61.5000 %
2292 12-05-2012 03:00:00 11.48333 C 60.5000 %
2293 12-05-2012 04:00:00 10.56667 C 61.5000 %
2294 12-05-2012 05:00:00 9.55 C 63.5000 %
2295 12-05-2012 06:00:00 9.2 C 67.8333 %
2296 12-05-2012 07:00:00 9.5 C 67.0000 %
2297 12-05-2012 08:00:00 9.43333 C 65.8333 %
2298 12-05-2012 09:00:00 10.76667 C 56.6667 %
2299 12-05-2012 10:00:00 11.65 C 49.5000 %
2300 12-05-2012 11:00:00 12.06667 C 46.1667 %
Sensor: Nr:Datum:Temp:Feuchte:
Aussen-T/F 2301 12-05-2012 12:00:00 12.88333 C 43.3333 %
2302 12-05-2012 13:00:00 14.46667 C 37.0000 %
2303 12-05-2012 14:00:00 15.05 C 33.5000 %
2304 12-05-2012 15:00:00 17.08333 C 30.3333 %
2305 12-05-2012 16:00:00 17.6 C 25.6667 %
2306 12-05-2012 17:00:00 16.46667 C 31.3333 %
2307 12-05-2012 18:00:00 14.71667 C 36.3333 %
2308 12-05-2012 19:00:00 13.23333 C 40.6667 %
2309 12-05-2012 20:00:00 10.8 C 47.1667 %
2310 12-05-2012 21:00:00 8.16667 C 65.0000 %
2311 12-05-2012 22:00:00 7.03333 C 72.0000 %
2312 12-05-2012 23:00:00 6.03333 C 77.1667 %
2313 13-05-2012 00:00:00 5.16667 C 81.0000 %
2314 13-05-2012 01:00:00 4.95 C 83.0000 %
2315 13-05-2012 02:00:00 4.2 C 83.8333 %
2316 13-05-2012 03:00:00 3.28333 C 86.5000 %
2317 13-05-2012 04:00:00 2.83333 C 87.6667 %
2318 13-05-2012 05:00:00 1.68333 C 88.8333 %
2319 13-05-2012 06:00:00 2.1 C 89.0000 %
2320 13-05-2012 07:00:00 2.61667 C 89.0000 %
2321 13-05-2012 08:00:00 4.13333 C 88.6667 %
2322 13-05-2012 09:00:00 7.46667 C 73.1667 %
2323 13-05-2012 10:00:00 11.21667 C 40.1667 %
2324 13-05-2012 11:00:00 11.15 C 37.8333 %
2325 13-05-2012 12:00:00 12.13333 C 32.1667 %
Sensor: Nr:Datum:Temp:Feuchte:
Aussen-T/F 2326 13-05-2012 13:00:00 15.7 C 24.5000 %
2327 13-05-2012 14:00:00 20.23333 C 20.0000 %
2328 13-05-2012 15:00:00 20.76667 C 20.0000 %
2329 13-05-2012 16:00:00 21.58333 C 20.0000 %
2330 13-05-2012 17:00:00 21.28333 C 20.0000 %
2331 13-05-2012 18:00:00 19.81667 C 20.0000 %
2332 13-05-2012 19:00:00 16.98333 C 23.1667 %
2333 13-05-2012 20:00:00 12.08333 C 39.8333 %
2334 13-05-2012 21:00:00 8.91667 C 54.0000 %
2335 13-05-2012 22:00:00 7.21667 C 61.8333 %
2336 13-05-2012 23:00:00 5.36667 C 68.1667 %
2337 14-05-2012 00:00:00 4.25 C 74.5000 %
2338 14-05-2012 01:00:00 3.36667 C 78.8333 %
2339 14-05-2012 02:00:00 2.61667 C 83.3333 %
2340 14-05-2012 03:00:00 2.05 C 84.8333 %
2341 14-05-2012 04:00:00 1.86667 C 86.8333 %
2342 14-05-2012 05:00:00 1.23333 C 88.0000 %
2343 14-05-2012 06:00:00 1 C 88.5000 %
2344 14-05-2012 07:00:00 2.03333 C 88.8333 %
2345 14-05-2012 08:00:00 3.88333 C 89.0000 %
2346 14-05-2012 09:00:00 6.91667 C 83.0000 %
2347 14-05-2012 10:00:00 12.03333 C 53.1667 %
2348 14-05-2012 11:00:00 14.6 C 32.3333 %
2349 14-05-2012 12:00:00 16.23333 C 28.1667 %
2350 14-05-2012 13:00:00 19.63333 C 22.6667 %
Sensor: Nr:Datum:Temp:Feuchte:
Aussen-T/F 2351 14-05-2012 14:00:00 23.08333 C 20.0000 %
2352 14-05-2012 15:00:00 24.16667 C 20.0000 %
2353 14-05-2012 16:00:00 25.81667 C 20.0000 %
2354 14-05-2012 17:00:00 25.85 C 20.0000 %
2355 14-05-2012 18:00:00 24.88333 C 20.0000 %
2356 14-05-2012 19:00:00 21.2 C 22.1667 %
2357 14-05-2012 20:00:00 16.85 C 30.5000 %
2358 14-05-2012 21:00:00 11.53333 C 52.1667 %
2359 14-05-2012 22:00:00 10.66667 C 53.1667 %
2360 14-05-2012 23:00:00 10.9 C 51.5000 %
2361 15-05-2012 00:00:00 9.21667 C 58.8333 %
2362 15-05-2012 01:00:00 7.56667 C 63.0000 %
2363 15-05-2012 02:00:00 6.56 C 67.4000 %
2364 15-05-2012 03:00:00 6.05 C 72.8333 %
2365 15-05-2012 04:00:00 7 C 72.5000 %
2366 15-05-2012 05:00:00 6.83333 C 75.1667 %
2367 15-05-2012 06:00:00 7.73333 C 71.6667 %
2368 15-05-2012 07:00:00 7.81667 C 77.5000 %
2369 15-05-2012 08:00:00 8.51667 C 79.3333 %
2370 15-05-2012 09:00:00 9.86667 C 73.1667 %
2371 15-05-2012 10:00:00 11.61667 C 60.5000 %
2372 15-05-2012 11:00:00 13.11667 C 46.0000 %
2373 15-05-2012 12:00:00 12.06667 C 42.6667 %
2374 15-05-2012 13:00:00 15.61667 C 28.5000 %
2375 15-05-2012 14:00:00 15.58333 C 26.3333 %
Sensor: Nr:Datum:Temp:Feuchte:
Aussen-T/F 2376 15-05-2012 15:00:00 11.03333 C 57.3333 %
2377 15-05-2012 16:00:00 9.45 C 55.6667 %
2378 15-05-2012 17:00:00 13.2 C 42.3333 %
2379 15-05-2012 18:00:00 13.2 C 41.1667 %
2380 15-05-2012 19:00:00 9.95 C 58.0000 %
2381 15-05-2012 20:00:00 8.63333 C 66.6667 %
2382 15-05-2012 21:00:00 6.61667 C 82.1667 %
2383 15-05-2012 22:00:00 6.78333 C 84.1667 %
2384 15-05-2012 23:00:00 6.4 C 81.1667 %
2385 16-05-2012 00:00:00 6 C 87.0000 %
2386 16-05-2012 01:00:00 6.11667 C 88.1667 %
2387 16-05-2012 02:00:00 6.15 C 88.0000 %
2388 16-05-2012 03:00:00 6.36667 C 88.6667 %
2389 16-05-2012 04:00:00 6.3 C 86.6667 %
2390 16-05-2012 05:00:00 5.91667 C 85.1667 %
2391 16-05-2012 06:00:00 5.76667 C 83.5000 %
2392 16-05-2012 07:00:00 6.3 C 80.6667 %
2393 16-05-2012 08:00:00 7.53333 C 70.1667 %
2394 16-05-2012 09:00:00 8.23333 C 62.5000 %
2395 16-05-2012 10:00:00 9.03333 C 56.8333 %
2396 16-05-2012 11:00:00 9.65 C 55.1667 %
2397 16-05-2012 12:00:00 10.31667 C 50.5000 %
2398 16-05-2012 13:00:00 12.51667 C 42.8333 %
2399 16-05-2012 14:00:00 15.31667 C 32.6667 %
2400 16-05-2012 15:00:00 12.8 C 43.6667 %
Sensor: Nr:Datum:Temp:Feuchte:
Aussen-T/F 2401 16-05-2012 16:00:00 16.21667 C 37.6667 %
2402 16-05-2012 17:00:00 15.46667 C 34.1667 %
2403 16-05-2012 18:00:00 12.81667 C 34.0000 %
2404 16-05-2012 19:00:00 12.41667 C 36.5000 %
2405 16-05-2012 20:00:00 9.75 C 52.8333 %
2406 16-05-2012 21:00:00 8.33333 C 56.8333 %
2407 16-05-2012 22:00:00 6.11667 C 66.0000 %
2408 16-05-2012 23:00:00 4.81667 C 70.0000 %
2409 17-05-2012 00:00:00 3.36667 C 81.1667 %
2410 17-05-2012 01:00:00 2.61667 C 85.6667 %
2411 17-05-2012 02:00:00 1.95 C 88.0000 %
2412 17-05-2012 03:00:00 1.51667 C 89.8333 %
2413 17-05-2012 04:00:00 0.85 C 90.5000 %
2414 17-05-2012 05:00:00 0.5 C 92.0000 %
2415 17-05-2012 06:00:00 0.41667 C 92.1667 %
2416 17-05-2012 07:00:00 1.78333 C 91.8333 %
2417 17-05-2012 08:00:00 2.43333 C 90.6667 %
2418 17-05-2012 09:00:00 4.96667 C 88.8333 %
2419 17-05-2012 10:00:00 8.68333 C 73.6667 %
2420 17-05-2012 11:00:00 10.73333 C 44.0000 %
2421 17-05-2012 12:00:00 12.98333 C 33.0000 %
2422 17-05-2012 13:00:00 16.96667 C 25.1667 %
2423 17-05-2012 14:00:00 21.76667 C 20.0000 %
2424 17-05-2012 15:00:00 22.46667 C 20.0000 %
2425 17-05-2012 16:00:00 21.86667 C 20.0000 %
Sensor: Nr:Datum:Temp:Feuchte:
Aussen-T/F 2426 17-05-2012 17:00:00 20.5 C 20.0000 %
2427 17-05-2012 18:00:00 17.71667 C 20.3333 %
2428 17-05-2012 19:00:00 16.85 C 26.1667 %
2429 17-05-2012 20:00:00 12.96667 C 45.0000 %
2430 17-05-2012 21:00:00 11.31667 C 50.0000 %
2431 17-05-2012 22:00:00 10.48333 C 54.1667 %
2432 17-05-2012 23:00:00 10.2 C 54.5000 %
2433 18-05-2012 00:00:00 10.35 C 54.3333 %
2434 18-05-2012 01:00:00 10.01667 C 54.3333 %
2435 18-05-2012 02:00:00 9.38333 C 56.0000 %
2436 18-05-2012 03:00:00 9.91667 C 55.0000 %
2437 18-05-2012 04:00:00 9.48333 C 61.3333 %
2438 18-05-2012 05:00:00 8.28333 C 76.1667 %
2439 18-05-2012 06:00:00 9.18333 C 66.5000 %
2440 18-05-2012 07:00:00 9.45 C 60.6667 %
2441 18-05-2012 08:00:00 8.55 C 77.0000 %
2442 18-05-2012 09:00:00 10.63333 C 70.5000 %
2443 18-05-2012 10:00:00 13.53333 C 47.5000 %
2444 18-05-2012 11:00:00 15.41667 C 42.1667 %
2445 18-05-2012 12:00:00 17.38333 C 39.6667 %
2446 18-05-2012 13:00:00 20.4 C 34.6667 %
2447 18-05-2012 14:00:00 20.06667 C 37.6667 %
2448 18-05-2012 15:00:00 17.45 C 49.1667 %
2449 18-05-2012 16:00:00 14.63333 C 73.6667 %
2450 18-05-2012 17:00:00 13.36667 C 82.1667 %
Sensor: Nr:Datum:Temp:Feuchte:
Aussen-T/F 2451 18-05-2012 18:00:00 13.76667 C 84.8333 %
2452 18-05-2012 19:00:00 13.91667 C 85.0000 %
2453 18-05-2012 20:00:00 13.38333 C 85.5000 %
2454 18-05-2012 21:00:00 12.88333 C 87.5000 %
2455 18-05-2012 22:00:00 12.71667 C 88.6667 %
2456 18-05-2012 23:00:00 11.98333 C 89.1667 %
2457 19-05-2012 00:00:00 12.05 C 89.8333 %
2458 19-05-2012 01:00:00 11.7 C 90.6667 %
2459 19-05-2012 02:00:00 11.05 C 91.0000 %
2460 19-05-2012 03:00:00 9.98333 C 91.3333 %
2461 19-05-2012 04:00:00 9.16667 C 91.8333 %
2462 19-05-2012 05:00:00 9.41667 C 92.0000 %
2463 19-05-2012 06:00:00 10.2 C 91.3333 %
2464 19-05-2012 07:00:00 11.18333 C 91.0000 %
2465 19-05-2012 08:00:00 12.1 C 90.8333 %
2466 19-05-2012 09:00:00 12.7 C 89.5000 %
2467 19-05-2012 10:00:00 17.43333 C 63.6667 %
2468 19-05-2012 11:00:00 20.13333 C 50.1667 %
2469 19-05-2012 12:00:00 21.53333 C 44.6667 %
2470 19-05-2012 13:00:00 22.81667 C 41.6667 %
2471 19-05-2012 14:00:00 24.53333 C 34.0000 %
2472 19-05-2012 15:00:00 27.01667 C 27.6667 %
2473 19-05-2012 16:00:00 25.88333 C 30.0000 %
2474 19-05-2012 17:00:00 26.28333 C 29.0000 %
2475 19-05-2012 18:00:00 26.18333 C 30.8333 %
Sensor: Nr:Datum:Temp:Feuchte:
Aussen-T/F 2476 19-05-2012 19:00:00 22.95 C 45.1667 %
2477 19-05-2012 20:00:00 18.85 C 58.5000 %
2478 19-05-2012 21:00:00 16.68333 C 66.1667 %
2479 19-05-2012 22:00:00 15.31667 C 72.6667 %
2480 19-05-2012 23:00:00 14.5 C 77.6667 %
2481 20-05-2012 00:00:00 14.23333 C 79.8333 %
2482 20-05-2012 01:00:00 13.48333 C 82.0000 %
2483 20-05-2012 02:00:00 12.96667 C 85.3333 %
2484 20-05-2012 03:00:00 12.01667 C 85.8333 %
2485 20-05-2012 04:00:00 11.75 C 87.0000 %
2486 20-05-2012 05:00:00 11.68333 C 87.6667 %
2487 20-05-2012 06:00:00 12.43333 C 88.3333 %
2488 20-05-2012 07:00:00 12.96667 C 88.3333 %
2489 20-05-2012 08:00:00 14.13333 C 87.1667 %
2490 20-05-2012 09:00:00 15.51667 C 80.6667 %
2491 20-05-2012 10:00:00 17.6 C 70.8333 %
2492 20-05-2012 11:00:00 19.5 C 59.3333 %
2493 20-05-2012 12:00:00 20.2 C 56.5000 %
2494 20-05-2012 13:00:00 23.01667 C 46.0000 %
2495 20-05-2012 14:00:00 25.05 C 37.1667 %
2496 20-05-2012 15:00:00 28.55 C 27.3333 %
2497 20-05-2012 16:00:00 29.75 C 22.8333 %
2498 20-05-2012 17:00:00 30.53333 C 20.5000 %
2499 20-05-2012 18:00:00 29.01667 C 26.6667 %
2500 20-05-2012 19:00:00 27.11667 C 31.6667 %
Sensor: Nr:Datum:Temp:Feuchte:
Aussen-T/F 2501 20-05-2012 20:00:00 22.65 C 44.1667 %
2502 20-05-2012 21:00:00 18.35 C 57.5000 %
2503 20-05-2012 22:00:00 16.35 C 68.8333 %
2504 20-05-2012 23:00:00 15.86667 C 71.6667 %
2505 21-05-2012 00:00:00 16.41667 C 67.8333 %
2506 21-05-2012 01:00:00 16.05 C 68.5000 %
2507 21-05-2012 02:00:00 14.93333 C 79.5000 %
2508 21-05-2012 03:00:00 13.9 C 86.8333 %
2509 21-05-2012 04:00:00 13.76667 C 88.3333 %
2510 21-05-2012 05:00:00 13.71667 C 88.8333 %
2511 21-05-2012 06:00:00 13.51667 C 89.0000 %
2512 21-05-2012 07:00:00 14.13333 C 88.8333 %
2513 21-05-2012 08:00:00 14.83333 C 87.5000 %
2514 21-05-2012 09:00:00 16 C 83.1667 %
2515 21-05-2012 10:00:00 18.2 C 66.6667 %
2516 21-05-2012 11:00:00 20.03333 C 56.8333 %
2517 21-05-2012 12:00:00 21.73333 C 51.0000 %
2518 21-05-2012 13:00:00 24.01667 C 45.6667 %
2519 21-05-2012 14:00:00 27.41667 C 36.8333 %
2520 21-05-2012 15:00:00 29.65 C 31.5000 %
2521 21-05-2012 16:00:00 28.8 C 29.5000 %
2522 21-05-2012 17:00:00 25.86667 C 40.6667 %
2523 21-05-2012 18:00:00 27.1 C 38.0000 %
2524 21-05-2012 19:00:00 25.81667 C 43.5000 %
2525 21-05-2012 20:00:00 23.2 C 52.1667 %
Sensor: Nr:Datum:Temp:Feuchte:
Aussen-T/F 2526 21-05-2012 21:00:00 20.78333 C 63.1667 %
2527 21-05-2012 22:00:00 19.61667 C 68.8333 %
2528 21-05-2012 23:00:00 18.55 C 73.8333 %
2529 22-05-2012 00:00:00 18.25 C 71.6667 %
2530 22-05-2012 01:00:00 18.28333 C 70.8333 %
2531 22-05-2012 02:00:00 18.25 C 70.3333 %
2532 22-05-2012 03:00:00 17.76667 C 71.6667 %
2533 22-05-2012 04:00:00 16.11667 C 80.0000 %
2534 22-05-2012 05:00:00 15.48333 C 84.8333 %
2535 22-05-2012 06:00:00 15.51667 C 85.1667 %
2536 22-05-2012 07:00:00 16.75 C 79.8333 %
2537 22-05-2012 08:00:00 18.78333 C 66.1667 %
2538 22-05-2012 09:00:00 20.16667 C 58.5000 %
2539 22-05-2012 10:00:00 22 C 52.1667 %
2540 22-05-2012 11:00:00 22.15 C 51.8333 %
2541 22-05-2012 12:00:00 23.46667 C 47.5000 %
2542 22-05-2012 13:00:00 27.08333 C 37.3333 %
2543 22-05-2012 14:00:00 31.86667 C 26.0000 %
2544 22-05-2012 15:00:00 32.15 C 23.1667 %
2545 22-05-2012 16:00:00 31.03333 C 25.0000 %
2546 22-05-2012 17:00:00 31.03333 C 26.8333 %
2547 22-05-2012 18:00:00 31.45 C 27.0000 %
2548 22-05-2012 19:00:00 27.93333 C 35.3333 %
2549 22-05-2012 20:00:00 24.76667 C 46.3333 %
2550 22-05-2012 21:00:00 21.81667 C 59.1667 %
Sensor: Nr:Datum:Temp:Feuchte:
Aussen-T/F 2551 22-05-2012 22:00:00 20.33333 C 66.8333 %
2552 22-05-2012 23:00:00 19.76667 C 70.0000 %
2553 23-05-2012 00:00:00 19.65 C 69.5000 %
2554 23-05-2012 01:00:00 18.4 C 76.3333 %
2555 23-05-2012 02:00:00 17.91667 C 80.1667 %
2556 23-05-2012 03:00:00 17.25 C 82.8333 %
2557 23-05-2012 04:00:00 15.93333 C 84.8333 %
2558 23-05-2012 05:00:00 15.81667 C 86.5000 %
2559 23-05-2012 06:00:00 17.05 C 86.0000 %
2560 23-05-2012 07:00:00 18.06667 C 78.3333 %
2561 23-05-2012 08:00:00 19.03333 C 71.0000 %
2562 23-05-2012 09:00:00 19.81667 C 65.6667 %
2563 23-05-2012 10:00:00 20.66667 C 60.5000 %
2564 23-05-2012 11:00:00 18.28333 C 77.1667 %
2565 23-05-2012 12:00:00 17.75 C 85.8333 %
2566 23-05-2012 13:00:00 19.21667 C 82.1667 %
2567 23-05-2012 14:00:00 22.66667 C 66.6667 %
2568 23-05-2012 15:00:00 22.8 C 66.0000 %
2569 23-05-2012 16:00:00 26.78333 C 46.8333 %
2570 23-05-2012 17:00:00 26.35 C 48.6667 %
2571 23-05-2012 18:00:00 24.81667 C 51.8333 %
2572 23-05-2012 19:00:00 23.8 C 61.0000 %
2573 23-05-2012 20:00:00 19.81667 C 76.5000 %
2574 23-05-2012 21:00:00 18.45 C 81.8333 %
2575 23-05-2012 22:00:00 17.78333 C 83.3333 %
Sensor: Nr:Datum:Temp:Feuchte:
Aussen-T/F 2576 23-05-2012 23:00:00 16.33333 C 86.1667 %
2577 24-05-2012 00:00:00 16.16667 C 87.0000 %
2578 24-05-2012 01:00:00 16.1 C 87.0000 %
2579 24-05-2012 02:00:00 16.1 C 87.0000 %
2580 24-05-2012 03:00:00 16.1 C 87.0000 %
2581 24-05-2012 04:00:00 16.1 C 87.0000 %
2582 24-05-2012 05:00:00 16.1 C 87.0000 %
2583 24-05-2012 06:00:00 16.1 C 87.0000 %
2584 24-05-2012 07:00:00 16.1 C 87.0000 %
2585 24-05-2012 08:00:00 15.76667 C 88.0000 %
2586 24-05-2012 09:00:00 17.71667 C 85.0000 %
2587 24-05-2012 10:00:00 21.9 C 67.0000 %
2588 24-05-2012 11:00:00 22.7 C 57.6667 %
2589 24-05-2012 12:00:00 24.55 C 50.8333 %
2590 24-05-2012 13:00:00 30.58333 C 33.3333 %
2591 24-05-2012 14:00:00 35.08333 C 20.3333 %
2592 24-05-2012 15:00:00 35.5 C 20.0000 %
2593 24-05-2012 16:00:00 34.83333 C 20.0000 %
2594 24-05-2012 17:00:00 34.51667 C 20.0000 %
2595 24-05-2012 18:00:00 33.86667 C 20.0000 %
2596 24-05-2012 19:00:00 29.65 C 24.5000 %
2597 24-05-2012 20:00:00 24.4 C 38.1667 %
2598 24-05-2012 21:00:00 19.9 C 51.5000 %
2599 24-05-2012 22:00:00 18.01667 C 55.0000 %
2600 24-05-2012 23:00:00 16.88333 C 57.5000 %
Sensor: Nr:Datum:Temp:Feuchte:
Aussen-T/F 2601 25-05-2012 00:00:00 15.7 C 57.6667 %
2602 25-05-2012 01:00:00 16.33333 C 48.5000 %
2603 25-05-2012 02:00:00 16.28333 C 45.6667 %
2604 25-05-2012 03:00:00 15.61667 C 46.6667 %
2605 25-05-2012 04:00:00 15.56667 C 44.8333 %
2606 25-05-2012 05:00:00 14.53333 C 48.1667 %
2607 25-05-2012 06:00:00 13.2 C 56.1667 %
2608 25-05-2012 07:00:00 13.7 C 55.5000 %
2609 25-05-2012 08:00:00 15.85 C 47.6667 %
2610 25-05-2012 09:00:00 18.2 C 40.0000 %
2611 25-05-2012 10:00:00 21.38333 C 33.8333 %
2612 25-05-2012 11:00:00 21.03333 C 32.1667 %
2613 25-05-2012 12:00:00 21.9 C 30.3333 %
2614 25-05-2012 13:00:00 26.25 C 21.8333 %
2615 25-05-2012 14:00:00 30.33333 C 20.0000 %
2616 25-05-2012 15:00:00 30.45 C 20.0000 %
2617 25-05-2012 16:00:00 29.96667 C 20.0000 %
2618 25-05-2012 17:00:00 30.03333 C 20.0000 %
2619 25-05-2012 18:00:00 29.95 C 20.0000 %
2620 25-05-2012 19:00:00 26.36667 C 20.0000 %
2621 25-05-2012 20:00:00 21.7 C 21.8333 %
2622 25-05-2012 21:00:00 17.26667 C 31.6667 %
2623 25-05-2012 22:00:00 14.96667 C 39.1667 %
2624 25-05-2012 23:00:00 14.03333 C 43.5000 %
2625 26-05-2012 00:00:00 13.15 C 46.5000 %
Sensor: Nr:Datum:Temp:Feuchte:
Aussen-T/F 2626 26-05-2012 01:00:00 12.3 C 51.6667 %
2627 26-05-2012 02:00:00 11.56667 C 55.6667 %
2628 26-05-2012 03:00:00 10.21667 C 62.6667 %
2629 26-05-2012 04:00:00 8.95 C 69.5000 %
2630 26-05-2012 05:00:00 8.13333 C 73.1667 %
2631 26-05-2012 06:00:00 8.66667 C 76.0000 %
2632 26-05-2012 07:00:00 9.75 C 75.3333 %
2633 26-05-2012 08:00:00 12.16667 C 66.5000 %
2634 26-05-2012 09:00:00 15.36667 C 54.5000 %
2635 26-05-2012 10:00:00 21.18333 C 31.1667 %
2636 26-05-2012 11:00:00 20.91667 C 28.5000 %
2637 26-05-2012 12:00:00 21.8 C 25.0000 %
2638 26-05-2012 13:00:00 25.7 C 20.8333 %
2639 26-05-2012 14:00:00 30.36667 C 20.0000 %
2640 26-05-2012 15:00:00 31.01667 C 20.0000 %
2641 26-05-2012 16:00:00 31 C 20.0000 %
2642 26-05-2012 17:00:00 31.61667 C 20.0000 %
2643 26-05-2012 18:00:00 30.01667 C 20.0000 %
2644 26-05-2012 19:00:00 27.46667 C 21.1667 %
2645 26-05-2012 20:00:00 22.23333 C 31.5000 %
2646 26-05-2012 21:00:00 18.23333 C 42.3333 %
2647 26-05-2012 22:00:00 16.41667 C 46.0000 %
2648 26-05-2012 23:00:00 15.48333 C 49.0000 %
2649 27-05-2012 00:00:00 14.86667 C 52.5000 %
2650 27-05-2012 01:00:00 14.01667 C 55.3333 %
Sensor: Nr:Datum:Temp:Feuchte:
Aussen-T/F 2651 27-05-2012 02:00:00 12.98333 C 60.1667 %
2652 27-05-2012 03:00:00 11.98333 C 66.5000 %
2653 27-05-2012 04:00:00 10.58333 C 70.8333 %
2654 27-05-2012 05:00:00 9.76667 C 76.5000 %
2655 27-05-2012 06:00:00 10.15 C 78.1667 %
2656 27-05-2012 07:00:00 12.85 C 68.6667 %
2657 27-05-2012 08:00:00 15.13333 C 57.3333 %
2658 27-05-2012 09:00:00 17.65 C 48.5000 %
2659 27-05-2012 10:00:00 20.61667 C 41.8333 %
2660 27-05-2012 11:00:00 22.58333 C 34.1667 %
2661 27-05-2012 12:00:00 25.03333 C 25.5000 %
2662 27-05-2012 13:00:00 26.08333 C 22.6667 %
2663 27-05-2012 14:00:00 31.36667 C 20.0000 %
2664 27-05-2012 15:00:00 28.35 C 20.1667 %
2665 27-05-2012 16:00:00 28.23333 C 21.5000 %
2666 27-05-2012 17:00:00 28.66667 C 22.3333 %
2667 27-05-2012 18:00:00 30.01667 C 20.1667 %
2668 27-05-2012 19:00:00 25 C 28.5000 %
2669 27-05-2012 20:00:00 21.56667 C 40.5000 %
2670 27-05-2012 21:00:00 17.86667 C 50.6667 %
2671 27-05-2012 22:00:00 16.51667 C 54.3333 %
2672 27-05-2012 23:00:00 14.55 C 62.6667 %
2673 28-05-2012 00:00:00 13.41667 C 68.0000 %
2674 28-05-2012 01:00:00 12.4 C 70.6667 %
2675 28-05-2012 02:00:00 11.55 C 75.8333 %
Sensor: Nr:Datum:Temp:Feuchte:
Aussen-T/F 2676 28-05-2012 03:00:00 10.8 C 79.3333 %
2677 28-05-2012 04:00:00 10.48333 C 82.1667 %
2678 28-05-2012 05:00:00 10.16667 C 83.3333 %
2679 28-05-2012 06:00:00 10.5 C 83.8333 %
2680 28-05-2012 07:00:00 11.28333 C 83.5000 %
2681 28-05-2012 08:00:00 13.28333 C 77.8333 %
2682 28-05-2012 09:00:00 16.93333 C 60.5000 %
2683 28-05-2012 10:00:00 23.05 C 42.3333 %
2684 28-05-2012 11:00:00 22.05 C 41.0000 %
2685 28-05-2012 12:00:00 23.78333 C 33.8333 %
2686 28-05-2012 13:00:00 29 C 25.6667 %
2687 28-05-2012 14:00:00 28.93333 C 23.8333 %
2688 28-05-2012 15:00:00 31.63333 C 20.0000 %
2689 28-05-2012 16:00:00 31.35 C 20.0000 %
2690 28-05-2012 17:00:00 31.08333 C 20.0000 %
2691 28-05-2012 18:00:00 30 C 20.3333 %
2692 28-05-2012 19:00:00 27.58333 C 23.5000 %
2693 28-05-2012 20:00:00 23.81667 C 32.8333 %
2694 28-05-2012 21:00:00 20.41667 C 40.8333 %
2695 28-05-2012 22:00:00 18.83333 C 45.6667 %
2696 28-05-2012 23:00:00 18.13333 C 47.5000 %
2697 29-05-2012 00:00:00 17.13333 C 55.8333 %
2698 29-05-2012 01:00:00 16.05 C 56.6667 %
2699 29-05-2012 02:00:00 14 C 66.1667 %
2700 29-05-2012 03:00:00 12.01667 C 73.8333 %
Sensor: Nr:Datum:Temp:Feuchte:
Aussen-T/F 2701 29-05-2012 04:00:00 11.15 C 79.3333 %
2702 29-05-2012 05:00:00 10.58333 C 82.8333 %
2703 29-05-2012 06:00:00 10.73333 C 83.1667 %
2704 29-05-2012 07:00:00 12.21667 C 79.1667 %
2705 29-05-2012 08:00:00 14.26667 C 68.6667 %
2706 29-05-2012 09:00:00 16.8 C 56.6667 %
2707 29-05-2012 10:00:00 21.5 C 34.5000 %
2708 29-05-2012 11:00:00 21.45 C 33.8333 %
2709 29-05-2012 12:00:00 22.41667 C 33.3333 %
2710 29-05-2012 13:00:00 26.21667 C 25.0000 %
2711 29-05-2012 14:00:00 29.25 C 20.0000 %
2712 29-05-2012 15:00:00 28.91667 C 20.1667 %
2713 29-05-2012 16:00:00 28.26667 C 21.6667 %
2714 29-05-2012 17:00:00 27.41667 C 21.1667 %
2715 29-05-2012 18:00:00 25.45 C 26.3333 %
2716 29-05-2012 19:00:00 25.3 C 29.0000 %
2717 29-05-2012 20:00:00 21.46667 C 42.3333 %
2718 29-05-2012 21:00:00 18.53333 C 54.1667 %
2719 29-05-2012 22:00:00 17.71667 C 61.8333 %
2720 29-05-2012 23:00:00 15 C 84.8333 %
2721 30-05-2012 00:00:00 14.53333 C 87.5000 %
2722 30-05-2012 01:00:00 13.88333 C 88.0000 %
2723 30-05-2012 02:00:00 13.01667 C 88.6667 %
2724 30-05-2012 03:00:00 12.86667 C 89.5000 %
2725 30-05-2012 04:00:00 12.31667 C 90.0000 %
Sensor: Nr:Datum:Temp:Feuchte:
Aussen-T/F 2726 30-05-2012 05:00:00 12.96667 C 90.1667 %
2727 30-05-2012 06:00:00 13.41667 C 90.0000 %
2728 30-05-2012 07:00:00 14.1 C 89.1667 %
2729 30-05-2012 08:00:00 15.13333 C 84.3333 %
2730 30-05-2012 09:00:00 16.56667 C 73.8333 %
2731 30-05-2012 10:00:00 19.41667 C 61.0000 %
2732 30-05-2012 11:00:00 21.6 C 51.0000 %
2733 30-05-2012 12:00:00 22.81667 C 46.5000 %
2734 30-05-2012 13:00:00 24.75 C 39.0000 %
2735 30-05-2012 14:00:00 24.91667 C 37.8333 %
2736 30-05-2012 15:00:00 27.45 C 31.0000 %
2737 30-05-2012 16:00:00 26.15 C 31.1667 %
2738 30-05-2012 17:00:00 26.06667 C 31.0000 %
2739 30-05-2012 18:00:00 27.03333 C 27.8333 %
2740 30-05-2012 19:00:00 24.53333 C 33.0000 %
2741 30-05-2012 20:00:00 21.5 C 39.8333 %
2742 30-05-2012 21:00:00 17.48333 C 59.1667 %
2743 30-05-2012 22:00:00 15.75 C 65.0000 %
2744 30-05-2012 23:00:00 13.86667 C 73.8333 %
2745 31-05-2012 00:00:00 13.36667 C 76.3333 %
2746 31-05-2012 01:00:00 12.4 C 81.8333 %
2747 31-05-2012 02:00:00 11.68333 C 84.6667 %
2748 31-05-2012 03:00:00 11.23333 C 86.1667 %
2749 31-05-2012 04:00:00 10.93333 C 86.8333 %
2750 31-05-2012 05:00:00 10.8 C 88.1667 %
Sensor: Nr:Datum:Temp:Feuchte:
Aussen-T/F 2751 31-05-2012 06:00:00 11.76667 C 88.1667 %
2752 31-05-2012 07:00:00 13.61667 C 79.8333 %
2753 31-05-2012 08:00:00 16.61667 C 64.8333 %
2754 31-05-2012 09:00:00 18.71667 C 56.6667 %
2755 31-05-2012 10:00:00 19.5 C 55.0000 %
2756 31-05-2012 11:00:00 21.6 C 48.0000 %
2757 31-05-2012 12:00:00 22.15 C 46.0000 %
2758 31-05-2012 13:00:00 21.96667 C 45.6667 %
2759 31-05-2012 14:00:00 22.68333 C 42.0000 %
2760 31-05-2012 15:00:00 22.13333 C 43.3333 %
2761 31-05-2012 16:00:00 17.61667 C 78.8333 %
2762 31-05-2012 17:00:00 17.45 C 83.3333 %
2763 31-05-2012 18:00:00 18.48333 C 80.3333 %
2764 31-05-2012 19:00:00 17.3 C 75.0000 %
2765 31-05-2012 20:00:00 15.3 C 78.3333 %
2766 31-05-2012 21:00:00 14.76667 C 83.1667 %
2767 31-05-2012 22:00:00 15 C 78.8333 %
2768 31-05-2012 23:00:00 15.1 C 72.3333 %
2769 01-06-2012 00:00:00 15.38333 C 68.0000 %
2770 01-06-2012 01:00:00 13.83333 C 82.3333 %
2771 01-06-2012 02:00:00 13.95 C 79.8333 %
2772 01-06-2012 03:00:00 13.8 C 73.4000 %
2773 01-06-2012 04:00:00 13.18333 C 70.8333 %
2774 01-06-2012 05:00:00 13.21667 C 68.5000 %
2775 01-06-2012 06:00:00 12.46667 C 74.1667 %
Sensor: Nr:Datum:Temp:Feuchte:
Aussen-T/F 2776 01-06-2012 07:00:00 12.26667 C 83.3333 %
2777 01-06-2012 08:00:00 13.31667 C 82.0000 %
2778 01-06-2012 09:00:00 15.18333 C 66.0000 %
2779 01-06-2012 10:00:00 17.23333 C 52.6667 %
2780 01-06-2012 11:00:00 17.71667 C 48.5000 %
2781 01-06-2012 12:00:00 18.15 C 45.5000 %
2782 01-06-2012 13:00:00 21.15 C 38.1667 %
2783 01-06-2012 14:00:00 21.88333 C 35.0000 %
2784 01-06-2012 15:00:00 21.63333 C 35.0000 %
2785 01-06-2012 16:00:00 22.28333 C 32.3333 %
2786 01-06-2012 17:00:00 20.06667 C 40.8333 %
2787 01-06-2012 18:00:00 21.35 C 37.8333 %
2788 01-06-2012 19:00:00 18.91667 C 45.6667 %
2789 01-06-2012 20:00:00 17.4 C 52.6667 %
2790 01-06-2012 21:00:00 14.63333 C 67.0000 %
2791 01-06-2012 22:00:00 13.86667 C 74.0000 %
2792 01-06-2012 23:00:00 12.55 C 79.8333 %
2793 02-06-2012 00:00:00 12.18333 C 83.1667 %
2794 02-06-2012 01:00:00 11.53333 C 84.6667 %
2795 02-06-2012 02:00:00 12.18333 C 85.5000 %
2796 02-06-2012 03:00:00 12.28333 C 83.1667 %
2797 02-06-2012 04:00:00 12.08333 C 83.1667 %
2798 02-06-2012 05:00:00 11.63333 C 83.6667 %
2799 02-06-2012 06:00:00 12.48333 C 76.5000 %
2800 02-06-2012 07:00:00 12.96667 C 64.3333 %
Sensor: Nr:Datum:Temp:Feuchte:
Aussen-T/F 2801 02-06-2012 08:00:00 12.91667 C 63.5000 %
2802 02-06-2012 09:00:00 13.86667 C 59.0000 %
2803 02-06-2012 10:00:00 16.21667 C 47.3333 %
2804 02-06-2012 11:00:00 17.56667 C 37.6667 %
2805 02-06-2012 12:00:00 17.86667 C 37.6667 %
2806 02-06-2012 13:00:00 19.81667 C 33.8333 %
2807 02-06-2012 14:00:00 23.08333 C 25.6667 %
2808 02-06-2012 15:00:00 21.38333 C 29.0000 %
2809 02-06-2012 16:00:00 23.91667 C 23.6667 %
2810 02-06-2012 17:00:00 26.23333 C 20.6667 %
2811 02-06-2012 18:00:00 24.05 C 23.3333 %
2812 02-06-2012 19:00:00 22.56667 C 28.0000 %
2813 02-06-2012 20:00:00 18.61667 C 37.3333 %
2814 02-06-2012 21:00:00 16 C 48.1667 %
2815 02-06-2012 22:00:00 12.73333 C 60.1667 %
2816 02-06-2012 23:00:00 11.78333 C 65.0000 %
2817 03-06-2012 00:00:00 11.2 C 68.8333 %
2818 03-06-2012 01:00:00 10.98333 C 68.8333 %
2819 03-06-2012 02:00:00 10.96667 C 68.6667 %
2820 03-06-2012 03:00:00 11.81667 C 69.5000 %
2821 03-06-2012 04:00:00 11.11667 C 73.5000 %
2822 03-06-2012 05:00:00 10.43333 C 80.6667 %
2823 03-06-2012 06:00:00 10.75 C 81.5000 %
2824 03-06-2012 07:00:00 11.21667 C 80.6667 %
2825 03-06-2012 08:00:00 11.71667 C 74.5000 %
Sensor: Nr:Datum:Temp:Feuchte:
Aussen-T/F 2826 03-06-2012 09:00:00 12.05 C 68.8333 %
2827 03-06-2012 10:00:00 11.9 C 76.0000 %
2828 03-06-2012 11:00:00 12.11667 C 77.0000 %
2829 03-06-2012 12:00:00 13.86667 C 74.6667 %
2830 03-06-2012 13:00:00 14.01667 C 75.3333 %
2831 03-06-2012 14:00:00 14.03333 C 80.0000 %
2832 03-06-2012 15:00:00 14.28333 C 84.1667 %
2833 03-06-2012 16:00:00 15.13333 C 84.1667 %
2834 03-06-2012 17:00:00 15.13333 C 85.6667 %
2835 03-06-2012 18:00:00 15.53333 C 85.3333 %
2836 03-06-2012 19:00:00 15.41667 C 79.3333 %
2837 03-06-2012 20:00:00 14.73333 C 79.6667 %
2838 03-06-2012 21:00:00 13.11667 C 81.1667 %
2839 03-06-2012 22:00:00 12.08333 C 82.8333 %
2840 03-06-2012 23:00:00 11.5 C 86.0000 %
2841 04-06-2012 00:00:00 11.28333 C 87.3333 %
2842 04-06-2012 01:00:00 11.06667 C 88.0000 %
2843 04-06-2012 02:00:00 10.85 C 88.8333 %
2844 04-06-2012 03:00:00 10.78333 C 89.0000 %
2845 04-06-2012 04:00:00 10.66667 C 89.0000 %
2846 04-06-2012 05:00:00 10.45 C 89.1667 %
2847 04-06-2012 06:00:00 9.86667 C 89.6667 %
2848 04-06-2012 07:00:00 11.43333 C 88.8333 %
2849 04-06-2012 08:00:00 12.95 C 83.0000 %
2850 04-06-2012 09:00:00 15.43333 C 70.6667 %
Sensor: Nr:Datum:Temp:Feuchte:
Aussen-T/F 2851 04-06-2012 10:00:00 15.71667 C 67.8333 %
2852 04-06-2012 11:00:00 17.8 C 54.5000 %
2853 04-06-2012 12:00:00 19.1 C 49.3333 %
2854 04-06-2012 13:00:00 16.8 C 62.1667 %
2855 04-06-2012 14:00:00 20.78333 C 47.5000 %
2856 04-06-2012 15:00:00 21.43333 C 37.3333 %
2857 04-06-2012 16:00:00 18.36667 C 45.8333 %
2858 04-06-2012 17:00:00 15.35 C 66.3333 %
2859 04-06-2012 18:00:00 15.13333 C 69.0000 %
2860 04-06-2012 19:00:00 14.76667 C 70.6667 %
2861 04-06-2012 20:00:00 12.53333 C 76.8333 %
2862 04-06-2012 21:00:00 9.05 C 79.3333 %
2863 04-06-2012 22:00:00 8.63333 C 80.5000 %
2864 04-06-2012 23:00:00 8.63333 C 75.5000 %
2865 05-06-2012 00:00:00 8.73333 C 74.6667 %
2866 05-06-2012 01:00:00 8.65 C 74.3333 %
2867 05-06-2012 02:00:00 8.75 C 74.3333 %
2868 05-06-2012 03:00:00 8.76667 C 73.1667 %
2869 05-06-2012 04:00:00 8.55 C 73.6667 %
2870 05-06-2012 05:00:00 8.51667 C 73.5000 %
2871 05-06-2012 06:00:00 8.88333 C 71.5000 %
2872 05-06-2012 07:00:00 8.53333 C 71.5000 %
2873 05-06-2012 08:00:00 9.01667 C 70.0000 %
2874 05-06-2012 09:00:00 11.88333 C 54.3333 %
2875 05-06-2012 10:00:00 13.46667 C 45.5000 %
Sensor: Nr:Datum:Temp:Feuchte:
Aussen-T/F 2876 05-06-2012 11:00:00 13.93333 C 39.5000 %
2877 05-06-2012 12:00:00 15.05 C 34.6667 %
2878 05-06-2012 13:00:00 16.88333 C 29.1667 %
2879 05-06-2012 14:00:00 21.91667 C 21.1667 %
2880 05-06-2012 15:00:00 21.1 C 21.6667 %
2881 05-06-2012 16:00:00 22.58333 C 22.8333 %
2882 05-06-2012 17:00:00 21.31667 C 24.0000 %
2883 05-06-2012 18:00:00 21.01667 C 23.6667 %
2884 05-06-2012 19:00:00 17.26667 C 42.3333 %
2885 05-06-2012 20:00:00 15.41667 C 45.3333 %
2886 05-06-2012 21:00:00 11.5 C 62.1667 %
2887 05-06-2012 22:00:00 9.73333 C 67.8333 %
2888 05-06-2012 23:00:00 10 C 68.1667 %
2889 06-06-2012 00:00:00 9.85 C 66.1667 %
2890 06-06-2012 01:00:00 10.3 C 64.0000 %
2891 06-06-2012 02:00:00 11.06667 C 58.1667 %
2892 06-06-2012 03:00:00 11.48333 C 54.3333 %
2893 06-06-2012 04:00:00 10.5 C 66.0000 %
2894 06-06-2012 05:00:00 9.4 C 79.1667 %
2895 06-06-2012 06:00:00 9.63333 C 83.1667 %
2896 06-06-2012 07:00:00 10.56667 C 81.6667 %
2897 06-06-2012 08:00:00 11.53333 C 76.8333 %
2898 06-06-2012 09:00:00 11.35 C 79.5000 %
2899 06-06-2012 10:00:00 11.5 C 82.0000 %
2900 06-06-2012 11:00:00 12.31667 C 81.1667 %
Sensor: Nr:Datum:Temp:Feuchte:
Aussen-T/F 2901 06-06-2012 12:00:00 13.25 C 80.0000 %
2902 06-06-2012 13:00:00 17.51667 C 64.8333 %
2903 06-06-2012 14:00:00 21.68333 C 45.8333 %
2904 06-06-2012 15:00:00 20.15 C 51.1667 %
2905 06-06-2012 16:00:00 17.81667 C 68.5000 %
2906 06-06-2012 17:00:00 18.38333 C 67.8333 %
2907 06-06-2012 18:00:00 16.16667 C 76.5000 %
2908 06-06-2012 19:00:00 15.43333 C 80.3333 %
2909 06-06-2012 20:00:00 14.93333 C 82.8333 %
2910 06-06-2012 21:00:00 14.13333 C 85.8333 %
2911 06-06-2012 22:00:00 12.78333 C 87.6667 %
2912 06-06-2012 23:00:00 12.06667 C 88.8333 %
2913 07-06-2012 00:00:00 11.33333 C 89.0000 %
2914 07-06-2012 01:00:00 11.85 C 90.0000 %
2915 07-06-2012 02:00:00 12.1 C 90.0000 %
2916 07-06-2012 03:00:00 12.33333 C 90.1667 %
2917 07-06-2012 04:00:00 11.98333 C 90.1667 %
2918 07-06-2012 05:00:00 12.15 C 91.0000 %
2919 07-06-2012 06:00:00 12.68333 C 91.0000 %
2920 07-06-2012 07:00:00 13.41667 C 90.3333 %
2921 07-06-2012 08:00:00 14.36667 C 88.6667 %
2922 07-06-2012 09:00:00 15.85 C 83.3333 %
2923 07-06-2012 10:00:00 16.7 C 72.0000 %
2924 07-06-2012 11:00:00 20.18333 C 60.5000 %
2925 07-06-2012 12:00:00 22.25 C 50.6667 %
Sensor: Nr:Datum:Temp:Feuchte:
Aussen-T/F 2926 07-06-2012 13:00:00 24.16667 C 44.5000 %
2927 07-06-2012 14:00:00 26.78333 C 31.8333 %
2928 07-06-2012 15:00:00 27.56667 C 32.0000 %
2929 07-06-2012 16:00:00 27.46667 C 33.0000 %
2930 07-06-2012 17:00:00 23.11667 C 53.1667 %
2931 07-06-2012 18:00:00 18.53333 C 80.5000 %
2932 07-06-2012 19:00:00 18.68333 C 80.0000 %
2933 07-06-2012 20:00:00 18.81667 C 77.6667 %
2934 07-06-2012 21:00:00 17.48333 C 84.5000 %
2935 07-06-2012 22:00:00 16.68333 C 87.0000 %
2936 07-06-2012 23:00:00 16.26667 C 88.0000 %
2937 08-06-2012 00:00:00 16.01667 C 88.6667 %
2938 08-06-2012 01:00:00 15.7 C 87.8333 %
2939 08-06-2012 02:00:00 14.5 C 88.8333 %
2940 08-06-2012 03:00:00 13.81667 C 89.8333 %
2941 08-06-2012 04:00:00 13.31667 C 90.0000 %
2942 08-06-2012 05:00:00 13.06667 C 90.3333 %
2943 08-06-2012 06:00:00 12.8 C 90.8333 %
2944 08-06-2012 07:00:00 12.85 C 90.6667 %
2945 08-06-2012 08:00:00 15.35 C 75.1667 %
2946 08-06-2012 09:00:00 17.4 C 54.0000 %
2947 08-06-2012 10:00:00 19.16667 C 42.6667 %
2948 08-06-2012 11:00:00 18.66667 C 44.5000 %
2949 08-06-2012 12:00:00 19.88333 C 39.0000 %
2950 08-06-2012 13:00:00 22.16667 C 31.5000 %
Sensor: Nr:Datum:Temp:Feuchte:
Aussen-T/F 2951 08-06-2012 14:00:00 23.45 C 27.8333 %
2952 08-06-2012 15:00:00 24.43333 C 27.1667 %
2953 08-06-2012 16:00:00 25.91667 C 23.5000 %
2954 08-06-2012 17:00:00 26.06667 C 22.8333 %
2955 08-06-2012 18:00:00 24.4 C 26.3333 %
2956 08-06-2012 19:00:00 20.63333 C 38.6667 %
2957 08-06-2012 20:00:00 19.58333 C 42.3333 %
2958 08-06-2012 21:00:00 16.65 C 56.5000 %
2959 08-06-2012 22:00:00 13.76667 C 69.3333 %
2960 08-06-2012 23:00:00 12.26667 C 79.5000 %
2961 09-06-2012 00:00:00 11.76667 C 83.0000 %
2962 09-06-2012 01:00:00 11.61667 C 85.8333 %
2963 09-06-2012 02:00:00 12.11667 C 82.8333 %
2964 09-06-2012 03:00:00 10.85 C 86.3333 %
2965 09-06-2012 04:00:00 10.63333 C 88.0000 %
2966 09-06-2012 05:00:00 10.13333 C 89.3333 %
2967 09-06-2012 06:00:00 10.85 C 89.1667 %
2968 09-06-2012 07:00:00 11.25 C 85.8333 %
2969 09-06-2012 08:00:00 13.45 C 60.8333 %
2970 09-06-2012 09:00:00 14.12 C 48.0000 %
2971 09-06-2012 10:00:00 15.85 C 38.1667 %
2972 09-06-2012 11:00:00 16.5 C 36.3333 %
2973 09-06-2012 12:00:00 16.63333 C 36.0000 %
2974 09-06-2012 13:00:00 18.71667 C 28.5000 %
2975 09-06-2012 14:00:00 20.58333 C 22.8333 %
Sensor: Nr:Datum:Temp:Feuchte:
Aussen-T/F 2976 09-06-2012 15:00:00 19.61667 C 27.3333 %
2977 09-06-2012 16:00:00 19.61667 C 29.0000 %
2978 09-06-2012 17:00:00 18.93333 C 29.6667 %
2979 09-06-2012 18:00:00 20.93333 C 26.0000 %
2980 09-06-2012 19:00:00 19.2 C 28.5000 %
2981 09-06-2012 20:00:00 17.11667 C 36.1667 %
2982 09-06-2012 21:00:00 14.85 C 48.0000 %
2983 09-06-2012 22:00:00 12.18333 C 62.6667 %
2984 09-06-2012 23:00:00 11.23333 C 68.1667 %
2985 10-06-2012 00:00:00 11.36667 C 66.5000 %
2986 10-06-2012 01:00:00 10.76667 C 71.0000 %
2987 10-06-2012 02:00:00 11.16667 C 67.1667 %
2988 10-06-2012 03:00:00 10.11667 C 71.6667 %
2989 10-06-2012 04:00:00 9.8 C 76.5000 %
2990 10-06-2012 05:00:00 9.45 C 78.1667 %
2991 10-06-2012 06:00:00 10.26667 C 75.8333 %
2992 10-06-2012 07:00:00 12.31667 C 65.8333 %
2993 10-06-2012 08:00:00 14.4 C 55.8333 %
2994 10-06-2012 09:00:00 16.43333 C 46.8333 %
2995 10-06-2012 10:00:00 18.21667 C 41.1667 %
2996 10-06-2012 11:00:00 18.53333 C 40.3333 %
2997 10-06-2012 12:00:00 19.6 C 37.3333 %
2998 10-06-2012 13:00:00 22.18333 C 30.0000 %
2999 10-06-2012 14:00:00 22.5 C 28.5000 %
3000 10-06-2012 15:00:00 22.28333 C 29.0000 %
Sensor: Nr:Datum:Temp:Feuchte:
Aussen-T/F 3001 10-06-2012 16:00:00 23.33333 C 24.8333 %
3002 10-06-2012 17:00:00 25.68333 C 20.6667 %
3003 10-06-2012 18:00:00 24.36667 C 22.8333 %
3004 10-06-2012 19:00:00 22.73333 C 26.8333 %
3005 10-06-2012 20:00:00 19.03333 C 40.1667 %
3006 10-06-2012 21:00:00 15.41667 C 56.1667 %
3007 10-06-2012 22:00:00 14.08333 C 58.3333 %
3008 10-06-2012 23:00:00 13.8 C 60.8333 %
3009 11-06-2012 00:00:00 13.33333 C 65.5000 %
3010 11-06-2012 01:00:00 13.01667 C 63.5000 %
3011 11-06-2012 02:00:00 12.6 C 65.0000 %
3012 11-06-2012 03:00:00 12.68333 C 68.3333 %
3013 11-06-2012 04:00:00 12.51667 C 69.3333 %
3014 11-06-2012 05:00:00 12.4 C 71.0000 %
3015 11-06-2012 06:00:00 12.7 C 73.3333 %
3016 11-06-2012 07:00:00 14.15 C 68.1667 %
3017 11-06-2012 08:00:00 15.33333 C 62.5000 %
3018 11-06-2012 09:00:00 15.75 C 62.3333 %
3019 11-06-2012 10:00:00 15.31667 C 68.0000 %
3020 11-06-2012 11:00:00 15.38333 C 72.0000 %
3021 11-06-2012 12:00:00 15.93333 C 73.1667 %
3022 11-06-2012 13:00:00 18.71667 C 60.0000 %
3023 11-06-2012 14:00:00 16.78333 C 67.5000 %
3024 11-06-2012 15:00:00 15.83333 C 80.3333 %
3025 11-06-2012 16:00:00 19.93333 C 59.8333 %
Sensor: Nr:Datum:Temp:Feuchte:
Aussen-T/F 3026 11-06-2012 17:00:00 19.83333 C 55.8333 %
3027 11-06-2012 18:00:00 19.08333 C 51.6667 %
3028 11-06-2012 19:00:00 15.93333 C 65.8333 %
3029 11-06-2012 20:00:00 14.58333 C 76.0000 %
3030 11-06-2012 21:00:00 13.65 C 83.8333 %
3031 11-06-2012 22:00:00 13.01667 C 86.8333 %
3032 11-06-2012 23:00:00 12.83333 C 88.5000 %
3033 12-06-2012 00:00:00 12.71667 C 88.8333 %
3034 12-06-2012 01:00:00 11.53333 C 89.1667 %
3035 12-06-2012 02:00:00 12.1 C 89.0000 %
3036 12-06-2012 03:00:00 11.58333 C 89.0000 %
3037 12-06-2012 04:00:00 10.9 C 89.0000 %
3038 12-06-2012 05:00:00 10.05 C 89.5000 %
3039 12-06-2012 06:00:00 10.48333 C 90.0000 %
3040 12-06-2012 07:00:00 11.46667 C 88.6667 %
3041 12-06-2012 08:00:00 13.31667 C 80.6667 %
3042 12-06-2012 09:00:00 15.36667 C 66.8333 %
3043 12-06-2012 10:00:00 18.33333 C 53.6667 %
3044 12-06-2012 11:00:00 19.95 C 46.0000 %
3045 12-06-2012 12:00:00 18.05 C 56.5000 %
3046 12-06-2012 13:00:00 17.61667 C 56.8333 %
3047 12-06-2012 14:00:00 19.28333 C 47.5000 %
3048 12-06-2012 15:00:00 23.68333 C 33.3333 %
3049 12-06-2012 16:00:00 18.45 C 50.5000 %
3050 12-06-2012 17:00:00 18.35 C 51.8333 %
Sensor: Nr:Datum:Temp:Feuchte:
Aussen-T/F 3051 12-06-2012 18:00:00 15.75 C 72.1667 %
3052 12-06-2012 19:00:00 14.98333 C 81.3333 %
3053 12-06-2012 20:00:00 14.03333 C 82.1667 %
3054 12-06-2012 21:00:00 13.2 C 85.5000 %
3055 12-06-2012 22:00:00 12.58333 C 88.0000 %
3056 12-06-2012 23:00:00 12.96667 C 88.8333 %
3057 13-06-2012 00:00:00 13.18333 C 88.8333 %
3058 13-06-2012 01:00:00 13.13333 C 87.8333 %
3059 13-06-2012 02:00:00 13.21667 C 86.3333 %
3060 13-06-2012 03:00:00 13.28333 C 87.0000 %
3061 13-06-2012 04:00:00 13.3 C 85.3333 %
3062 13-06-2012 05:00:00 13.11667 C 86.3333 %
3063 13-06-2012 06:00:00 13.11667 C 86.8333 %
3064 13-06-2012 07:00:00 12.95 C 85.5000 %
3065 13-06-2012 08:00:00 12.31667 C 84.5000 %
3066 13-06-2012 09:00:00 11.75 C 83.8333 %
3067 13-06-2012 10:00:00 11.55 C 83.1667 %
3068 13-06-2012 11:00:00 11.85 C 82.0000 %
3069 13-06-2012 12:00:00 12.21667 C 79.1667 %
3070 13-06-2012 13:00:00 13.43333 C 75.0000 %
3071 13-06-2012 14:00:00 13.75 C 73.1667 %
3072 13-06-2012 15:00:00 13.93333 C 71.6667 %
3073 13-06-2012 16:00:00 13.76667 C 70.5000 %
3074 13-06-2012 17:00:00 14 C 67.5000 %
3075 13-06-2012 18:00:00 13.13333 C 72.1667 %
Sensor: Nr:Datum:Temp:Feuchte:
Aussen-T/F 3076 13-06-2012 19:00:00 12.88333 C 71.5000 %
3077 13-06-2012 20:00:00 12.18333 C 80.3333 %
3078 13-06-2012 21:00:00 11.61667 C 84.8333 %
3079 13-06-2012 22:00:00 11.15 C 86.5000 %
3080 13-06-2012 23:00:00 10.48333 C 87.6667 %
3081 14-06-2012 00:00:00 10.56667 C 88.8333 %
3082 14-06-2012 01:00:00 10.6 C 89.0000 %
3083 14-06-2012 02:00:00 10.5 C 89.1667 %
3084 14-06-2012 03:00:00 10.31667 C 89.0000 %
3085 14-06-2012 04:00:00 10.26667 C 89.8333 %
3086 14-06-2012 05:00:00 10.5 C 90.0000 %
3087 14-06-2012 06:00:00 10.63333 C 90.0000 %
3088 14-06-2012 07:00:00 11.76667 C 88.0000 %
3089 14-06-2012 08:00:00 12.88333 C 72.8333 %
3090 14-06-2012 09:00:00 13.91667 C 64.8333 %
3091 14-06-2012 10:00:00 15.86667 C 56.1667 %
3092 14-06-2012 11:00:00 17.81667 C 47.8333 %
3093 14-06-2012 12:00:00 18.78333 C 43.5000 %
3094 14-06-2012 13:00:00 20.5 C 36.5000 %
3095 14-06-2012 14:00:00 22.76667 C 31.8333 %
3096 14-06-2012 15:00:00 22.43333 C 33.3333 %
3097 14-06-2012 16:00:00 25.58333 C 26.3333 %
3098 14-06-2012 17:00:00 23.65 C 29.3333 %
3099 14-06-2012 18:00:00 20.31667 C 44.5000 %
3100 14-06-2012 19:00:00 21.66667 C 33.8333 %
Sensor: Nr:Datum:Temp:Feuchte:
Aussen-T/F 3101 14-06-2012 20:00:00 17.68333 C 56.3333 %
3102 14-06-2012 21:00:00 14.18333 C 69.1667 %
3103 14-06-2012 22:00:00 12.35 C 77.3333 %
3104 14-06-2012 23:00:00 11.45 C 81.5000 %
3105 15-06-2012 00:00:00 11.48333 C 84.5000 %
3106 15-06-2012 01:00:00 12.03333 C 84.1667 %
3107 15-06-2012 02:00:00 11.63333 C 84.5000 %
3108 15-06-2012 03:00:00 11.76667 C 85.1667 %
3109 15-06-2012 04:00:00 11.43333 C 85.8333 %
3110 15-06-2012 05:00:00 11.43333 C 87.0000 %
3111 15-06-2012 06:00:00 12.25 C 86.6667 %
3112 15-06-2012 07:00:00 13.51667 C 79.5000 %
3113 15-06-2012 08:00:00 16.6 C 62.8333 %
3114 15-06-2012 09:00:00 17.01667 C 66.5000 %
3115 15-06-2012 10:00:00 15.48333 C 76.0000 %
3116 15-06-2012 11:00:00 15.46667 C 77.1667 %
3117 15-06-2012 12:00:00 16.26667 C 74.0000 %
3118 15-06-2012 13:00:00 18 C 68.1667 %
3119 15-06-2012 14:00:00 23.21667 C 46.1667 %
3120 15-06-2012 15:00:00 23.31667 C 45.3333 %
3121 15-06-2012 16:00:00 23.35 C 43.3333 %
3122 15-06-2012 17:00:00 23.36667 C 45.6667 %
3123 15-06-2012 18:00:00 25.05 C 40.6667 %
3124 15-06-2012 19:00:00 22 C 52.3333 %
3125 15-06-2012 20:00:00 18.78333 C 68.0000 %
Sensor: Nr:Datum:Temp:Feuchte:
Aussen-T/F 3126 15-06-2012 21:00:00 17.88333 C 70.5000 %
3127 15-06-2012 22:00:00 17.2 C 72.8333 %
3128 15-06-2012 23:00:00 16.86667 C 75.1667 %
3129 16-06-2012 00:00:00 16.28333 C 77.1667 %
3130 16-06-2012 01:00:00 15.66667 C 80.8333 %
3131 16-06-2012 02:00:00 15.65 C 81.1667 %
3132 16-06-2012 03:00:00 15.4 C 82.5000 %
3133 16-06-2012 04:00:00 15.38333 C 84.8333 %
3134 16-06-2012 05:00:00 15.15 C 87.1667 %
3135 16-06-2012 06:00:00 15.16667 C 87.8333 %
3136 16-06-2012 07:00:00 15.86667 C 87.3333 %
3137 16-06-2012 08:00:00 16.01667 C 86.5000 %
3138 16-06-2012 09:00:00 16.43333 C 79.8333 %
3139 16-06-2012 10:00:00 16.38333 C 78.6667 %
3140 16-06-2012 11:00:00 16.55 C 79.0000 %
3141 16-06-2012 12:00:00 15.93333 C 80.1667 %
3142 16-06-2012 13:00:00 16.03333 C 82.0000 %
3143 16-06-2012 14:00:00 16.18333 C 81.0000 %
3144 16-06-2012 15:00:00 17.11667 C 78.8333 %
3145 16-06-2012 16:00:00 17.06667 C 78.1667 %
3146 16-06-2012 17:00:00 16.11667 C 78.8333 %
3147 16-06-2012 18:00:00 14.96667 C 82.3333 %
3148 16-06-2012 19:00:00 14.21667 C 84.1667 %
3149 16-06-2012 20:00:00 13.56667 C 85.0000 %
3150 16-06-2012 21:00:00 13.01667 C 87.1667 %
Sensor: Nr:Datum:Temp:Feuchte:
Aussen-T/F 3151 16-06-2012 22:00:00 12.83333 C 86.8333 %
3152 16-06-2012 23:00:00 13.43333 C 83.3333 %
3153 17-06-2012 00:00:00 13.13333 C 82.0000 %
3154 17-06-2012 01:00:00 13.45 C 79.3333 %
3155 17-06-2012 02:00:00 12.81667 C 84.3333 %
3156 17-06-2012 03:00:00 12.63333 C 85.3333 %
3157 17-06-2012 04:00:00 12.6 C 87.0000 %
3158 17-06-2012 05:00:00 12.51667 C 87.5000 %
3159 17-06-2012 06:00:00 12.36667 C 88.0000 %
3160 17-06-2012 07:00:00 13.75 C 85.5000 %
3161 17-06-2012 08:00:00 14.86667 C 75.0000 %
3162 17-06-2012 09:00:00 16.75 C 55.6667 %
3163 17-06-2012 10:00:00 18.05 C 44.0000 %
3164 17-06-2012 11:00:00 18.81667 C 40.5000 %
3165 17-06-2012 12:00:00 19.4 C 37.0000 %
3166 17-06-2012 13:00:00 23.15 C 29.6667 %
3167 17-06-2012 14:00:00 26.16667 C 22.0000 %
3168 17-06-2012 15:00:00 27.56667 C 21.1667 %
3169 17-06-2012 16:00:00 28.31667 C 20.0000 %
3170 17-06-2012 17:00:00 28.71667 C 20.0000 %
3171 17-06-2012 18:00:00 28.75 C 20.0000 %
3172 17-06-2012 19:00:00 26.2 C 22.3333 %
3173 17-06-2012 20:00:00 20.76667 C 40.0000 %
3174 17-06-2012 21:00:00 17.1 C 53.8333 %
3175 17-06-2012 22:00:00 15.11667 C 64.0000 %
Sensor: Nr:Datum:Temp:Feuchte:
Aussen-T/F 3176 17-06-2012 23:00:00 13.51667 C 72.6667 %
3177 18-06-2012 00:00:00 12.66667 C 77.3333 %
3178 18-06-2012 01:00:00 12 C 79.0000 %
3179 18-06-2012 02:00:00 11.41667 C 82.6667 %
3180 18-06-2012 03:00:00 11.05 C 84.5000 %
3181 18-06-2012 04:00:00 10.81667 C 86.1667 %
3182 18-06-2012 05:00:00 10.86667 C 87.0000 %
3183 18-06-2012 06:00:00 11.53333 C 87.1667 %
3184 18-06-2012 07:00:00 13.71667 C 86.1667 %
3185 18-06-2012 08:00:00 17.63333 C 69.3333 %
3186 18-06-2012 09:00:00 20.51667 C 58.8333 %
3187 18-06-2012 10:00:00 24.01667 C 51.1667 %
3188 18-06-2012 11:00:00 22.95 C 57.8333 %
3189 18-06-2012 12:00:00 25.08333 C 40.5000 %
3190 18-06-2012 13:00:00 26.96667 C 35.1667 %
3191 18-06-2012 14:00:00 28.08333 C 33.0000 %
3192 18-06-2012 15:00:00 28.98333 C 27.1667 %
3193 18-06-2012 16:00:00 29.18333 C 24.0000 %
3194 18-06-2012 17:00:00 27.16667 C 31.1667 %
3195 18-06-2012 18:00:00 23.03333 C 42.3333 %
3196 18-06-2012 19:00:00 22.21667 C 45.0000 %
3197 18-06-2012 20:00:00 20.86667 C 48.0000 %
3198 18-06-2012 21:00:00 19.63333 C 48.0000 %
3199 18-06-2012 22:00:00 18.01667 C 57.0000 %
3200 18-06-2012 23:00:00 15.28333 C 71.3333 %
Sensor: Nr:Datum:Temp:Feuchte:
Aussen-T/F 3201 19-06-2012 00:00:00 14.46667 C 77.1667 %
3202 19-06-2012 01:00:00 14.28333 C 77.3333 %
3203 19-06-2012 02:00:00 12.93333 C 80.6667 %
3204 19-06-2012 03:00:00 12.4 C 84.3333 %
3205 19-06-2012 04:00:00 11.63333 C 86.8333 %
3206 19-06-2012 05:00:00 12.23333 C 87.3333 %
3207 19-06-2012 06:00:00 13.13333 C 86.8333 %
3208 19-06-2012 07:00:00 15.1 C 75.8333 %
3209 19-06-2012 08:00:00 16.93333 C 64.3333 %
3210 19-06-2012 09:00:00 18.88333 C 56.5000 %
3211 19-06-2012 10:00:00 21.86667 C 46.5000 %
3212 19-06-2012 11:00:00 23.25 C 42.1667 %
3213 19-06-2012 12:00:00 23.73333 C 41.5000 %
3214 19-06-2012 13:00:00 24.53333 C 40.3333 %
3215 19-06-2012 14:00:00 23.28333 C 44.0000 %
3216 19-06-2012 15:00:00 23.98333 C 42.6667 %
3217 19-06-2012 16:00:00 23.38333 C 46.3333 %
3218 19-06-2012 17:00:00 23.93333 C 45.1667 %
3219 19-06-2012 18:00:00 22.38333 C 53.3333 %
3220 19-06-2012 19:00:00 19.68333 C 67.6667 %
3221 19-06-2012 20:00:00 17.35 C 82.8333 %
3222 19-06-2012 21:00:00 16.93333 C 86.5000 %
3223 19-06-2012 22:00:00 16.95 C 87.3333 %
3224 19-06-2012 23:00:00 16.8 C 88.0000 %
3225 20-06-2012 00:00:00 16.71667 C 88.0000 %
Sensor: Nr:Datum:Temp:Feuchte:
Aussen-T/F 3226 20-06-2012 01:00:00 16.43333 C 88.0000 %
3227 20-06-2012 02:00:00 16.18333 C 88.0000 %
3228 20-06-2012 03:00:00 16.26 C 88.8000 %
3229 20-06-2012 04:00:00 16.05 C 89.0000 %
3230 20-06-2012 05:00:00 15.85 C 89.0000 %
3231 20-06-2012 06:00:00 15.68333 C 89.3333 %
3232 20-06-2012 07:00:00 15.48333 C 89.5000 %
3233 20-06-2012 08:00:00 15.65 C 90.0000 %
3234 20-06-2012 09:00:00 16.01667 C 89.1667 %
3235 20-06-2012 10:00:00 16.28333 C 89.0000 %
3236 20-06-2012 11:00:00 16.45 C 87.8333 %
3237 20-06-2012 12:00:00 16.5 C 86.3333 %
3238 20-06-2012 13:00:00 16.56667 C 86.0000 %
3239 20-06-2012 14:00:00 17.06667 C 84.1667 %
3240 20-06-2012 15:00:00 17.58333 C 83.3333 %
3241 20-06-2012 16:00:00 17.68333 C 82.6667 %
3242 20-06-2012 17:00:00 18.08333 C 81.5000 %
3243 20-06-2012 18:00:00 17.65 C 85.0000 %
3244 20-06-2012 19:00:00 17.71667 C 87.0000 %
3245 20-06-2012 20:00:00 17.61667 C 87.6667 %
3246 20-06-2012 21:00:00 17.43333 C 88.0000 %
3247 20-06-2012 22:00:00 16.73333 C 88.3333 %
3248 20-06-2012 23:00:00 16.05 C 89.0000 %
3249 21-06-2012 00:00:00 15.13333 C 89.3333 %
3250 21-06-2012 01:00:00 14.71667 C 89.8333 %
Sensor: Nr:Datum:Temp:Feuchte:
Aussen-T/F 3251 21-06-2012 02:00:00 15.15 C 90.0000 %
3252 21-06-2012 03:00:00 15.6 C 90.0000 %
3253 21-06-2012 04:00:00 15.55 C 90.0000 %
3254 21-06-2012 05:00:00 15.61667 C 90.3333 %
3255 21-06-2012 06:00:00 15.95 C 90.5000 %
3256 21-06-2012 07:00:00 16.75 C 90.0000 %
3257 21-06-2012 08:00:00 17.83333 C 89.3333 %
3258 21-06-2012 09:00:00 19.5 C 75.6667 %
3259 21-06-2012 10:00:00 20.73333 C 64.0000 %
3260 21-06-2012 11:00:00 22.01429 C 57.2857 %
3261 21-06-2012 12:00:00 23.16 C 53.2000 %
3262 21-06-2012 13:00:00 24.58333 C 46.8333 %
3263 21-06-2012 14:00:00 25.3 C 44.8333 %
3264 21-06-2012 15:00:00 25.05 C 46.5000 %
3265 21-06-2012 16:00:00 24.9 C 48.5000 %
3266 21-06-2012 17:00:00 25.85 C 45.5000 %
3267 21-06-2012 18:00:00 26.05 C 45.1667 %
3268 21-06-2012 19:00:00 23.23333 C 59.8333 %
3269 21-06-2012 20:00:00 20.5 C 72.3333 %
3270 21-06-2012 21:00:00 18.43333 C 78.1667 %
3271 21-06-2012 22:00:00 15.86667 C 85.0000 %
3272 21-06-2012 23:00:00 15.28333 C 87.1667 %
3273 22-06-2012 00:00:00 14.96667 C 88.1667 %
3274 22-06-2012 01:00:00 14.43333 C 89.0000 %
3275 22-06-2012 02:00:00 13.85 C 89.8333 %
Sensor: Nr:Datum:Temp:Feuchte:
Aussen-T/F 3276 22-06-2012 03:00:00 13.43333 C 90.0000 %
3277 22-06-2012 04:00:00 12.68333 C 90.1667 %
3278 22-06-2012 05:00:00 12.56667 C 91.0000 %
3279 22-06-2012 06:00:00 11.9 C 91.0000 %
3280 22-06-2012 07:00:00 12.33333 C 88.6667 %
3281 22-06-2012 08:00:00 14.21667 C 68.8333 %
3282 22-06-2012 09:00:00 15.21667 C 58.5000 %
3283 22-06-2012 10:00:00 16.68333 C 50.0000 %
3284 22-06-2012 11:00:00 18 C 43.1667 %
3285 22-06-2012 12:00:00 18.4 C 42.5000 %
3286 22-06-2012 13:00:00 19.15 C 41.3333 %
3287 22-06-2012 14:00:00 20.81667 C 37.6667 %
3288 22-06-2012 15:00:00 21.2 C 37.5000 %
3289 22-06-2012 16:00:00 21.53333 C 36.8333 %
3290 22-06-2012 17:00:00 23.63333 C 31.5000 %
3291 22-06-2012 18:00:00 23.45 C 29.3333 %
3292 22-06-2012 19:00:00 22.01667 C 33.3333 %
3293 22-06-2012 20:00:00 19.03333 C 45.6667 %
3294 22-06-2012 21:00:00 16.35 C 59.3333 %
3295 22-06-2012 22:00:00 14.5 C 71.0000 %
3296 22-06-2012 23:00:00 13.3 C 74.1667 %
3297 23-06-2012 00:00:00 11.61667 C 81.0000 %
3298 23-06-2012 01:00:00 10.75 C 84.0000 %
3299 23-06-2012 02:00:00 10.2 C 86.0000 %
3300 23-06-2012 03:00:00 9.88333 C 87.1667 %
Sensor: Nr:Datum:Temp:Feuchte:
Aussen-T/F 3301 23-06-2012 04:00:00 9.61667 C 89.0000 %
3302 23-06-2012 05:00:00 9.93333 C 89.0000 %
3303 23-06-2012 06:00:00 11.43333 C 84.5000 %
3304 23-06-2012 07:00:00 12.61667 C 73.6667 %
3305 23-06-2012 08:00:00 14.5 C 68.8333 %
3306 23-06-2012 09:00:00 17.51667 C 53.1667 %
3307 23-06-2012 10:00:00 19.8 C 42.5000 %
3308 23-06-2012 11:00:00 20.56667 C 39.6667 %
3309 23-06-2012 12:00:00 21.08333 C 37.3333 %
3310 23-06-2012 13:00:00 23.01667 C 30.3333 %
3311 23-06-2012 14:00:00 22.83333 C 30.6667 %
3312 23-06-2012 15:00:00 24.68333 C 26.1667 %
3313 23-06-2012 16:00:00 24.71667 C 26.0000 %
3314 23-06-2012 17:00:00 24.66667 C 26.0000 %
3315 23-06-2012 18:00:00 22.95 C 32.3333 %
3316 23-06-2012 19:00:00 22.96667 C 32.3333 %
3317 23-06-2012 20:00:00 20.28333 C 45.0000 %
3318 23-06-2012 21:00:00 16.4 C 64.1667 %
3319 23-06-2012 22:00:00 14.78333 C 69.6667 %
3320 23-06-2012 23:00:00 13.18333 C 76.3333 %
3321 24-06-2012 00:00:00 12.13333 C 80.5000 %
3322 24-06-2012 01:00:00 11.71667 C 83.8333 %
3323 24-06-2012 02:00:00 10.86667 C 85.5000 %
3324 24-06-2012 03:00:00 10.16667 C 87.1667 %
3325 24-06-2012 04:00:00 9.65 C 88.0000 %
Sensor: Nr:Datum:Temp:Feuchte:
Aussen-T/F 3326 24-06-2012 05:00:00 9.35 C 89.0000 %
3327 24-06-2012 06:00:00 10.43333 C 88.8333 %
3328 24-06-2012 07:00:00 11.81667 C 87.0000 %
3329 24-06-2012 08:00:00 14.91667 C 69.0000 %
3330 24-06-2012 09:00:00 17.28333 C 58.5000 %
3331 24-06-2012 10:00:00 19.9 C 47.0000 %
3332 24-06-2012 11:00:00 20.41667 C 40.5000 %
3333 24-06-2012 12:00:00 20.53333 C 40.1667 %
3334 24-06-2012 13:00:00 20.15 C 41.6667 %
3335 24-06-2012 14:00:00 20.65 C 39.6667 %
3336 24-06-2012 15:00:00 20.36667 C 44.0000 %
3337 24-06-2012 16:00:00 16.95 C 60.6667 %
3338 24-06-2012 17:00:00 15.15 C 78.1667 %
3339 24-06-2012 18:00:00 14.75 C 82.3333 %
3340 24-06-2012 19:00:00 14.33333 C 82.8333 %
3341 24-06-2012 20:00:00 13.65 C 79.1667 %
3342 24-06-2012 21:00:00 13.5 C 74.5000 %
3343 24-06-2012 22:00:00 12.78333 C 79.5000 %
3344 24-06-2012 23:00:00 12.58333 C 79.6667 %
3345 25-06-2012 00:00:00 12.65 C 79.3333 %
3346 25-06-2012 01:00:00 11.9 C 82.0000 %
3347 25-06-2012 02:00:00 11.86667 C 82.5000 %
3348 25-06-2012 03:00:00 11.91667 C 82.0000 %
3349 25-06-2012 04:00:00 12.05 C 80.1667 %
3350 25-06-2012 05:00:00 12.4 C 76.8333 %
Sensor: Nr:Datum:Temp:Feuchte:
Aussen-T/F 3351 25-06-2012 06:00:00 12.93333 C 73.5000 %
3352 25-06-2012 07:00:00 12.6 C 75.5000 %
3353 25-06-2012 08:00:00 12.83333 C 79.0000 %
3354 25-06-2012 09:00:00 14.83333 C 68.3333 %
3355 25-06-2012 10:00:00 16.31667 C 60.5000 %
3356 25-06-2012 11:00:00 17.55 C 55.3333 %
3357 25-06-2012 12:00:00 18.25 C 50.5000 %
3358 25-06-2012 13:00:00 18.78333 C 48.6667 %
3359 25-06-2012 14:00:00 18.56667 C 45.3333 %
3360 25-06-2012 15:00:00 19.13333 C 41.8333 %
3361 25-06-2012 16:00:00 19.55 C 40.1667 %
3362 25-06-2012 17:00:00 19.25 C 43.5000 %
3363 25-06-2012 18:00:00 19.41667 C 43.5000 %
3364 25-06-2012 19:00:00 18.36667 C 46.3333 %
3365 25-06-2012 20:00:00 17.28333 C 53.5000 %
3366 25-06-2012 21:00:00 14.83333 C 71.1667 %
3367 25-06-2012 22:00:00 13.1 C 79.6667 %
3368 26-06-2012 14:00:00 24.25 C 30.7500 %
3369 26-06-2012 15:00:00 26.5 C 26.8333 %
3370 26-06-2012 16:00:00 28.63333 C 21.3333 %
3371 26-06-2012 17:00:00 27.25 C 24.1667 %
3372 26-06-2012 18:00:00 26.91667 C 24.3333 %
3373 26-06-2012 19:00:00 24.23333 C 37.0000 %
3374 26-06-2012 20:00:00 20.73333 C 49.3333 %
3375 26-06-2012 21:00:00 17.43333 C 58.8333 %
Sensor: Nr:Datum:Temp:Feuchte:
Aussen-T/F 3376 26-06-2012 22:00:00 15.55 C 67.0000 %
3377 26-06-2012 23:00:00 13.76667 C 73.8333 %
3378 27-06-2012 00:00:00 12.88333 C 76.6667 %
3379 27-06-2012 01:00:00 12.1 C 80.8333 %
3380 27-06-2012 02:00:00 11.46667 C 83.3333 %
3381 27-06-2012 03:00:00 11.28333 C 84.6667 %
3382 27-06-2012 04:00:00 11.95 C 86.0000 %
3383 27-06-2012 05:00:00 12.65 C 84.8333 %
3384 27-06-2012 06:00:00 13.73333 C 78.0000 %
3385 27-06-2012 07:00:00 14.3 C 78.3333 %
3386 27-06-2012 08:00:00 17.93333 C 63.5000 %
3387 27-06-2012 09:00:00 19.93333 C 55.8333 %
3388 27-06-2012 10:00:00 20.93333 C 53.0000 %
3389 27-06-2012 11:00:00 22.05 C 51.1667 %
3390 27-06-2012 12:00:00 22.91667 C 51.1667 %
3391 27-06-2012 13:00:00 24.33333 C 48.0000 %
3392 27-06-2012 14:00:00 24.6 C 47.5000 %
3393 27-06-2012 15:00:00 25.46667 C 44.0000 %
3394 27-06-2012 16:00:00 23.48333 C 65.0000 %
3395 27-06-2012 17:00:00 22.96667 C 66.0000 %
3396 27-06-2012 18:00:00 24.4 C 60.0000 %
3397 27-06-2012 19:00:00 23.21667 C 63.6667 %
3398 27-06-2012 20:00:00 21.1 C 74.8333 %
3399 27-06-2012 21:00:00 19.56667 C 78.8333 %
3400 27-06-2012 22:00:00 18.85 C 81.8333 %
Sensor: Nr:Datum:Temp:Feuchte:
Aussen-T/F 3401 27-06-2012 23:00:00 18.38333 C 83.8333 %
3402 28-06-2012 00:00:00 18.31667 C 84.3333 %
3403 28-06-2012 01:00:00 17.56667 C 85.6667 %
3404 28-06-2012 02:00:00 16.78333 C 86.8333 %
3405 28-06-2012 03:00:00 16.46667 C 87.1667 %
3406 28-06-2012 04:00:00 16.53333 C 87.8333 %
3407 28-06-2012 05:00:00 16.68333 C 88.8333 %
3408 28-06-2012 06:00:00 16.85 C 89.0000 %
3409 28-06-2012 07:00:00 17.66667 C 88.6667 %
3410 28-06-2012 08:00:00 19.35 C 81.8333 %
3411 28-06-2012 09:00:00 22.71667 C 61.5000 %
3412 28-06-2012 10:00:00 25.76667 C 50.3333 %
3413 28-06-2012 11:00:00 26.31667 C 47.3333 %
3414 28-06-2012 12:00:00 27.01667 C 43.3333 %
3415 28-06-2012 13:00:00 31.6 C 32.0000 %
3416 28-06-2012 14:00:00 33.13333 C 30.5000 %
3417 28-06-2012 15:00:00 33.3 C 29.0000 %
3418 28-06-2012 16:00:00 34.21667 C 28.3333 %
3419 28-06-2012 17:00:00 31.43333 C 39.5000 %
3420 28-06-2012 18:00:00 25.96667 C 53.1667 %
3421 28-06-2012 19:00:00 26.58333 C 42.5000 %
3422 28-06-2012 20:00:00 23.55 C 56.1667 %
3423 28-06-2012 21:00:00 21.75 C 59.0000 %
3424 28-06-2012 22:00:00 19.45 C 70.0000 %
3425 28-06-2012 23:00:00 19.98333 C 68.3333 %
Sensor: Nr:Datum:Temp:Feuchte:
Aussen-T/F 3426 29-06-2012 00:00:00 19.11667 C 77.0000 %
3427 29-06-2012 01:00:00 18.25 C 81.1667 %
3428 29-06-2012 02:00:00 17.76667 C 80.3333 %
3429 29-06-2012 03:00:00 17.33333 C 84.3333 %
3430 29-06-2012 04:00:00 17.41667 C 85.1667 %
3431 29-06-2012 05:00:00 17.23333 C 85.1667 %
3432 29-06-2012 06:00:00 17.86667 C 85.5000 %
3433 29-06-2012 07:00:00 18.38333 C 86.0000 %
3434 29-06-2012 08:00:00 19.25 C 85.0000 %
3435 29-06-2012 09:00:00 21.8 C 74.8333 %
3436 29-06-2012 10:00:00 24.5 C 66.1667 %
3437 29-06-2012 11:00:00 26.23333 C 56.5000 %
3438 29-06-2012 12:00:00 27.33333 C 51.1667 %
3439 29-06-2012 13:00:00 23.93333 C 68.3333 %
3440 29-06-2012 14:00:00 21.35 C 80.8333 %
3441 29-06-2012 15:00:00 25.51667 C 65.8333 %
3442 29-06-2012 16:00:00 26.48333 C 57.8333 %
3443 29-06-2012 17:00:00 23.7 C 68.0000 %
3444 29-06-2012 18:00:00 25.15 C 57.0000 %
3445 29-06-2012 19:00:00 24.46667 C 59.5000 %
3446 29-06-2012 20:00:00 21.88333 C 71.6667 %
3447 29-06-2012 21:00:00 19.91667 C 77.5000 %
3448 29-06-2012 22:00:00 18.53333 C 82.6667 %
3449 29-06-2012 23:00:00 17.35 C 84.8333 %
3450 30-06-2012 00:00:00 16.38333 C 86.5000 %
Sensor: Nr:Datum:Temp:Feuchte:
Aussen-T/F 3451 30-06-2012 01:00:00 16.35 C 87.3333 %
3452 30-06-2012 02:00:00 16.45 C 88.0000 %
3453 30-06-2012 03:00:00 16.16667 C 84.3333 %
3454 30-06-2012 04:00:00 14.83333 C 85.0000 %
3455 30-06-2012 05:00:00 13.83333 C 87.1667 %
3456 30-06-2012 06:00:00 14.15 C 87.8333 %
3457 30-06-2012 07:00:00 15.01667 C 87.5000 %
3458 30-06-2012 08:00:00 17.75 C 79.0000 %
3459 30-06-2012 09:00:00 20.23333 C 63.5000 %
3460 30-06-2012 10:00:00 22.73333 C 52.3333 %
3461 30-06-2012 11:00:00 24.55 C 43.6667 %
3462 30-06-2012 12:00:00 25 C 39.6667 %
3463 30-06-2012 13:00:00 28.61667 C 32.5000 %
3464 30-06-2012 14:00:00 29.06667 C 30.6667 %
3465 30-06-2012 15:00:00 28.06667 C 34.3333 %
3466 30-06-2012 16:00:00 28.01667 C 39.0000 %
3467 30-06-2012 17:00:00 30.51667 C 28.0000 %
3468 30-06-2012 18:00:00 28.03333 C 32.3333 %
3469 30-06-2012 19:00:00 26.9 C 38.0000 %
3470 30-06-2012 20:00:00 22.86667 C 56.3333 %
3471 30-06-2012 21:00:00 20.53333 C 62.6667 %
3472 30-06-2012 22:00:00 19.13333 C 69.1667 %
3473 30-06-2012 23:00:00 18.5 C 66.8333 %
3474 01-07-2012 00:00:00 17.93333 C 73.8333 %
3475 01-07-2012 01:00:00 16.38333 C 84.8333 %
Sensor: Nr:Datum:Temp:Feuchte:
Aussen-T/F 3476 01-07-2012 02:00:00 16.53333 C 86.8333 %
3477 01-07-2012 03:00:00 16.3 C 87.3333 %
3478 01-07-2012 04:00:00 15.83333 C 87.8333 %
3479 01-07-2012 05:00:00 15.36667 C 87.0000 %
3480 01-07-2012 06:00:00 15.3 C 86.0000 %
3481 01-07-2012 07:00:00 16.48333 C 84.3333 %
3482 01-07-2012 08:00:00 18.76667 C 67.8333 %
3483 01-07-2012 09:00:00 18.66667 C 67.8333 %
3484 01-07-2012 10:00:00 19.1 C 67.5000 %
3485 01-07-2012 11:00:00 21.03333 C 51.5000 %
3486 01-07-2012 12:00:00 18.2 C 65.3333 %
3487 01-07-2012 13:00:00 20 C 60.6667 %
3488 01-07-2012 14:00:00 20.95 C 48.3333 %
3489 01-07-2012 15:00:00 23.91667 C 38.3333 %
3490 01-07-2012 16:00:00 24.63333 C 37.8333 %
3491 01-07-2012 17:00:00 24.08333 C 37.5000 %
3492 01-07-2012 18:00:00 22.41667 C 38.8333 %
3493 01-07-2012 19:00:00 20.71667 C 46.3333 %
3494 01-07-2012 20:00:00 19.08333 C 53.8333 %
3495 01-07-2012 21:00:00 17.45 C 61.1667 %
3496 01-07-2012 22:00:00 16.41667 C 64.6667 %
3497 01-07-2012 23:00:00 15.1 C 69.6667 %
3498 02-07-2012 00:00:00 13.66667 C 75.6667 %
3499 02-07-2012 01:00:00 12.28333 C 82.3333 %
3500 02-07-2012 02:00:00 10.83333 C 84.5000 %
Sensor: Nr:Datum:Temp:Feuchte:
Aussen-T/F 3501 02-07-2012 03:00:00 11.46667 C 86.1667 %
3502 02-07-2012 04:00:00 12 C 86.0000 %
3503 02-07-2012 05:00:00 12.1 C 85.6667 %
3504 02-07-2012 06:00:00 12.88333 C 84.5000 %
3505 02-07-2012 07:00:00 14.48333 C 73.3333 %
3506 02-07-2012 08:00:00 16.23333 C 65.3333 %
3507 02-07-2012 09:00:00 17.38333 C 59.5000 %
3508 02-07-2012 10:00:00 19.33333 C 49.1667 %
3509 02-07-2012 11:00:00 20.05 C 45.0000 %
3510 02-07-2012 12:00:00 20.33333 C 44.1667 %
3511 02-07-2012 13:00:00 19.71667 C 48.1667 %
3512 02-07-2012 14:00:00 17.86667 C 66.3333 %
3513 02-07-2012 15:00:00 17.91667 C 68.6667 %
3514 02-07-2012 16:00:00 17.18333 C 70.6667 %
3515 02-07-2012 17:00:00 16.73333 C 74.5000 %
3516 02-07-2012 18:00:00 16.53333 C 76.0000 %
3517 02-07-2012 19:00:00 16.08333 C 79.3333 %
3518 02-07-2012 20:00:00 15.96667 C 82.0000 %
3519 02-07-2012 21:00:00 15.36667 C 83.6667 %
3520 02-07-2012 22:00:00 14.56667 C 86.0000 %
3521 02-07-2012 23:00:00 13.41667 C 87.8333 %
3522 03-07-2012 00:00:00 12.61667 C 89.0000 %
3523 03-07-2012 01:00:00 12.06667 C 89.1667 %
3524 03-07-2012 02:00:00 13.05 C 89.6667 %
3525 03-07-2012 03:00:00 12.98333 C 90.5000 %
Sensor: Nr:Datum:Temp:Feuchte:
Aussen-T/F 3526 03-07-2012 04:00:00 12.6 C 91.0000 %
3527 03-07-2012 05:00:00 12.16667 C 90.0000 %
3528 03-07-2012 06:00:00 11.95 C 90.1667 %
3529 03-07-2012 07:00:00 13.5 C 86.8333 %
3530 03-07-2012 08:00:00 15.13333 C 76.0000 %
3531 03-07-2012 09:00:00 16.7 C 65.1667 %
3532 03-07-2012 10:00:00 18.36667 C 62.6667 %
3533 03-07-2012 11:00:00 19.56667 C 58.5000 %
3534 03-07-2012 12:00:00 21.25 C 54.0000 %
3535 03-07-2012 13:00:00 24.7 C 47.1667 %
3536 03-07-2012 14:00:00 30.23333 C 27.1667 %
3537 03-07-2012 15:00:00 30.81667 C 24.3333 %
3538 03-07-2012 16:00:00 31.56667 C 20.0000 %
3539 03-07-2012 17:00:00 32.7 C 20.0000 %
3540 03-07-2012 18:00:00 32.21667 C 20.0000 %
3541 03-07-2012 19:00:00 27.8 C 29.5000 %
3542 03-07-2012 20:00:00 22.18333 C 47.1667 %
3543 03-07-2012 21:00:00 19.01667 C 53.8333 %
3544 03-07-2012 22:00:00 16.83333 C 64.5000 %
3545 03-07-2012 23:00:00 15.13333 C 69.5000 %
3546 04-07-2012 00:00:00 14.4 C 73.8333 %
3547 04-07-2012 01:00:00 13.5 C 77.0000 %
3548 04-07-2012 02:00:00 12.88333 C 81.1667 %
3549 04-07-2012 03:00:00 12.4 C 82.3333 %
3550 04-07-2012 04:00:00 11.96667 C 84.1667 %
Sensor: Nr:Datum:Temp:Feuchte:
Aussen-T/F 3551 04-07-2012 05:00:00 11.66667 C 85.8333 %
3552 04-07-2012 06:00:00 12.13333 C 86.1667 %
3553 04-07-2012 07:00:00 14.48333 C 83.6667 %
3554 04-07-2012 08:00:00 17.13333 C 66.1667 %
3555 04-07-2012 09:00:00 20.6 C 54.6667 %
3556 04-07-2012 10:00:00 23.53333 C 49.6667 %
3557 04-07-2012 11:00:00 25.25 C 43.6667 %
3558 04-07-2012 12:00:00 26.43333 C 41.1667 %
3559 04-07-2012 13:00:00 28.3 C 34.8333 %
3560 04-07-2012 14:00:00 29.6 C 32.1667 %
3561 04-07-2012 15:00:00 29.06667 C 35.5000 %
3562 04-07-2012 16:00:00 31.13333 C 30.5000 %
3563 04-07-2012 17:00:00 31.41667 C 28.8333 %
3564 04-07-2012 18:00:00 32.21667 C 27.1667 %
3565 04-07-2012 19:00:00 29.16667 C 35.5000 %
3566 04-07-2012 20:00:00 23.33333 C 54.3333 %
3567 04-07-2012 21:00:00 21.26667 C 60.5000 %
3568 04-07-2012 22:00:00 20.03333 C 65.3333 %
3569 04-07-2012 23:00:00 19.11667 C 70.5000 %
3570 05-07-2012 00:00:00 17.5 C 76.5000 %
3571 05-07-2012 01:00:00 16.71667 C 80.3333 %
3572 05-07-2012 02:00:00 16.31667 C 82.0000 %
3573 05-07-2012 03:00:00 16.18333 C 83.1667 %
3574 05-07-2012 04:00:00 16.21667 C 84.6667 %
3575 05-07-2012 05:00:00 15.81667 C 85.3333 %
Sensor: Nr:Datum:Temp:Feuchte:
Aussen-T/F 3576 05-07-2012 06:00:00 16.13333 C 85.8333 %
3577 05-07-2012 07:00:00 16.91667 C 84.0000 %
3578 05-07-2012 08:00:00 18.26667 C 76.3333 %
3579 05-07-2012 09:00:00 21.55 C 61.5000 %
3580 05-07-2012 10:00:00 24.91667 C 52.6667 %
3581 05-07-2012 11:00:00 23.95 C 59.3333 %
3582 05-07-2012 12:00:00 21.06667 C 78.0000 %
3583 05-07-2012 13:00:00 22.16667 C 77.6667 %
3584 05-07-2012 14:00:00 25.93333 C 60.0000 %
3585 05-07-2012 15:00:00 23.33333 C 70.0000 %
3586 05-07-2012 16:00:00 20.81667 C 79.1667 %
3587 05-07-2012 17:00:00 22.01667 C 76.6667 %
3588 05-07-2012 18:00:00 22.85 C 71.6667 %
3589 05-07-2012 19:00:00 21.5 C 77.0000 %
3590 05-07-2012 20:00:00 19.85 C 83.3333 %
3591 05-07-2012 21:00:00 18.36667 C 85.1667 %
3592 05-07-2012 22:00:00 17.36667 C 87.0000 %
3593 05-07-2012 23:00:00 17.05 C 88.0000 %
3594 06-07-2012 00:00:00 16.43333 C 88.0000 %
3595 06-07-2012 01:00:00 15.61667 C 88.8333 %
3596 06-07-2012 02:00:00 15.4 C 89.0000 %
3597 06-07-2012 03:00:00 15.13333 C 89.1667 %
3598 06-07-2012 04:00:00 15.26667 C 89.3333 %
3599 06-07-2012 05:00:00 15.18333 C 89.1667 %
3600 06-07-2012 06:00:00 16.1 C 89.3333 %
Sensor: Nr:Datum:Temp:Feuchte:
Aussen-T/F 3601 06-07-2012 07:00:00 17.5 C 89.1667 %
3602 06-07-2012 08:00:00 18.96667 C 86.1667 %
3603 06-07-2012 09:00:00 20.13333 C 74.6667 %
3604 06-07-2012 10:00:00 20.63333 C 61.8333 %
3605 06-07-2012 11:00:00 21.28333 C 54.1667 %
3606 06-07-2012 12:00:00 22.31667 C 47.8333 %
3607 06-07-2012 13:00:00 23.06667 C 44.8333 %
3608 06-07-2012 14:00:00 26.66667 C 33.0000 %
3609 06-07-2012 15:00:00 27.3 C 30.3333 %
3610 06-07-2012 16:00:00 28.7 C 26.6667 %
3611 06-07-2012 17:00:00 30 C 24.8333 %
3612 06-07-2012 18:00:00 24.63333 C 49.3333 %
3613 06-07-2012 19:00:00 26.28333 C 39.8333 %
3614 06-07-2012 20:00:00 21.3 C 57.5000 %
3615 06-07-2012 21:00:00 19.21667 C 62.5000 %
3616 06-07-2012 22:00:00 16.75 C 79.3333 %
3617 06-07-2012 23:00:00 15.81667 C 84.0000 %
3618 07-07-2012 00:00:00 14.58333 C 85.0000 %
3619 07-07-2012 01:00:00 13.81667 C 86.0000 %
3620 07-07-2012 02:00:00 13.33333 C 87.0000 %
3621 07-07-2012 03:00:00 12.95 C 87.5000 %
3622 07-07-2012 04:00:00 12.46667 C 88.0000 %
3623 07-07-2012 05:00:00 12.1 C 88.3333 %
3624 07-07-2012 06:00:00 12.9 C 88.8333 %
3625 07-07-2012 07:00:00 14.2 C 87.3333 %
Sensor: Nr:Datum:Temp:Feuchte:
Aussen-T/F 3626 07-07-2012 08:00:00 16.43333 C 79.0000 %
3627 07-07-2012 09:00:00 18.28333 C 66.3333 %
3628 07-07-2012 10:00:00 21.75 C 48.5000 %
3629 07-07-2012 11:00:00 23.11667 C 43.8333 %
3630 07-07-2012 12:00:00 23.55 C 42.0000 %
3631 07-07-2012 13:00:00 27.43333 C 31.0000 %
3632 07-07-2012 14:00:00 28.18333 C 30.6667 %
3633 07-07-2012 15:00:00 30.18333 C 22.3333 %
3634 07-07-2012 16:00:00 30.36667 C 22.8333 %
3635 07-07-2012 17:00:00 29.95 C 21.6667 %
3636 07-07-2012 18:00:00 30.66667 C 20.8333 %
3637 07-07-2012 19:00:00 28.61667 C 24.1667 %
3638 07-07-2012 20:00:00 25.05 C 37.8333 %
3639 07-07-2012 21:00:00 20.98333 C 54.5000 %
3640 07-07-2012 22:00:00 18.36667 C 58.1667 %
3641 07-07-2012 23:00:00 16.58333 C 65.8333 %
3642 08-07-2012 00:00:00 15.46667 C 72.8333 %
3643 08-07-2012 01:00:00 14.35 C 77.5000 %
3644 08-07-2012 02:00:00 13.66667 C 81.3333 %
3645 08-07-2012 03:00:00 13.35 C 83.5000 %
3646 08-07-2012 04:00:00 13.88333 C 84.8333 %
3647 08-07-2012 05:00:00 14.28333 C 84.6667 %
3648 08-07-2012 06:00:00 15.01667 C 83.5000 %
3649 08-07-2012 07:00:00 15.98333 C 79.6667 %
3650 08-07-2012 08:00:00 17.6 C 71.3333 %
Sensor: Nr:Datum:Temp:Feuchte:
Aussen-T/F 3651 08-07-2012 09:00:00 17.15 C 76.0000 %
3652 08-07-2012 10:00:00 16.9 C 79.6667 %
3653 08-07-2012 11:00:00 19.86667 C 65.0000 %
3654 08-07-2012 12:00:00 22.18333 C 50.6667 %
3655 08-07-2012 13:00:00 21.71667 C 56.1667 %
3656 08-07-2012 14:00:00 22.5 C 49.1667 %
3657 08-07-2012 15:00:00 23.66667 C 49.6667 %
3658 08-07-2012 16:00:00 26.35 C 37.1667 %
3659 08-07-2012 17:00:00 23.78333 C 41.8333 %
3660 08-07-2012 18:00:00 20.68333 C 60.6667 %
3661 08-07-2012 19:00:00 19.21667 C 65.3333 %
3662 08-07-2012 20:00:00 19.95 C 56.5000 %
3663 08-07-2012 21:00:00 18.25 C 58.1667 %
3664 08-07-2012 22:00:00 17.76667 C 56.6667 %
3665 08-07-2012 23:00:00 18 C 54.0000 %
3666 09-07-2012 00:00:00 18 C 54.0000 %
3667 09-07-2012 01:00:00 18 C 54.0000 %
3668 09-07-2012 02:00:00 18 C 54.0000 %
3669 09-07-2012 03:00:00 18 C 54.0000 %
3670 09-07-2012 04:00:00 18 C 54.0000 %
3671 09-07-2012 05:00:00 18 C 54.0000 %
3672 09-07-2012 06:00:00 15.71667 C 66.6667 %
3673 09-07-2012 07:00:00 13.88333 C 81.5000 %
3674 09-07-2012 08:00:00 16.16667 C 69.1667 %
3675 09-07-2012 09:00:00 18.35 C 57.8333 %
Sensor: Nr:Datum:Temp:Feuchte:
Aussen-T/F 3676 09-07-2012 10:00:00 19.91667 C 50.8333 %
3677 09-07-2012 11:00:00 21.36667 C 45.6667 %
3678 09-07-2012 12:00:00 22.51667 C 39.0000 %
3679 09-07-2012 13:00:00 22.8 C 37.0000 %
3680 09-07-2012 14:00:00 22.9 C 39.3333 %
3681 09-07-2012 15:00:00 23.4 C 38.0000 %
3682 09-07-2012 16:00:00 23.4 C 38.0000 %
3683 09-07-2012 17:00:00 23.4 C 38.0000 %
3684 09-07-2012 18:00:00 24.6 C 38.5000 %
3685 09-07-2012 19:00:00 21.7 C 45.6667 %
3686 09-07-2012 20:00:00 20.11667 C 52.6667 %
3687 09-07-2012 21:00:00 18.08333 C 64.3333 %
3688 09-07-2012 22:00:00 17.81667 C 65.5000 %
3689 09-07-2012 23:00:00 17.28333 C 69.8333 %
3690 10-07-2012 00:00:00 16.31667 C 77.0000 %
3691 10-07-2012 01:00:00 15.75 C 78.5000 %
3692 10-07-2012 02:00:00 15.76667 C 78.8333 %
3693 10-07-2012 03:00:00 15.3 C 81.6667 %
3694 10-07-2012 04:00:00 14.98333 C 85.1667 %
3695 10-07-2012 05:00:00 14.88333 C 86.5000 %
3696 10-07-2012 06:00:00 14.75 C 87.0000 %
3697 10-07-2012 07:00:00 15.73333 C 85.0000 %
3698 10-07-2012 08:00:00 17.65 C 70.8333 %
3699 10-07-2012 09:00:00 19.6 C 61.5000 %
3700 10-07-2012 10:00:00 21.4 C 53.1667 %
Sensor: Nr:Datum:Temp:Feuchte:
Aussen-T/F 3701 10-07-2012 11:00:00 22.4 C 50.5000 %
3702 10-07-2012 12:00:00 22.23333 C 50.0000 %
3703 10-07-2012 13:00:00 24.9 C 38.3333 %
3704 10-07-2012 14:00:00 27.1 C 30.1667 %
3705 10-07-2012 15:00:00 27.98333 C 25.6667 %
3706 10-07-2012 16:00:00 23.81667 C 38.0000 %
3707 10-07-2012 17:00:00 21.76667 C 50.3333 %
3708 10-07-2012 18:00:00 29 C 29.6667 %
3709 10-07-2012 19:00:00 27.15 C 34.0000 %
3710 10-07-2012 20:00:00 23.01667 C 48.0000 %
3711 10-07-2012 21:00:00 19.55 C 62.0000 %
3712 10-07-2012 22:00:00 18.66667 C 64.1667 %
3713 10-07-2012 23:00:00 16.88333 C 67.5000 %
3714 11-07-2012 00:00:00 15.06667 C 76.6667 %
3715 11-07-2012 01:00:00 14.23333 C 81.3333 %
3716 11-07-2012 02:00:00 13.33333 C 84.3333 %
3717 11-07-2012 03:00:00 14.05 C 85.5000 %
3718 11-07-2012 04:00:00 14.55 C 80.6667 %
3719 11-07-2012 05:00:00 14.63333 C 76.5000 %
3720 11-07-2012 06:00:00 14.8 C 73.3333 %
3721 11-07-2012 07:00:00 15.73333 C 65.0000 %
3722 11-07-2012 08:00:00 16.45 C 57.1667 %
3723 11-07-2012 09:00:00 17.41667 C 52.5000 %
3724 11-07-2012 10:00:00 18.78333 C 49.5000 %
3725 11-07-2012 11:00:00 18.86667 C 48.6667 %
Sensor: Nr:Datum:Temp:Feuchte:
Aussen-T/F 3726 11-07-2012 12:00:00 18.9 C 47.1667 %
3727 11-07-2012 13:00:00 20.06667 C 39.0000 %
3728 11-07-2012 14:00:00 20.63333 C 39.6667 %
3729 11-07-2012 15:00:00 16.51667 C 62.8333 %
3730 11-07-2012 16:00:00 18.26667 C 63.0000 %
3731 11-07-2012 17:00:00 19 C 57.1667 %
3732 11-07-2012 18:00:00 18.31667 C 55.8333 %
3733 11-07-2012 19:00:00 18.98333 C 53.1667 %
3734 11-07-2012 20:00:00 16.66667 C 63.8333 %
3735 11-07-2012 21:00:00 14.15 C 77.0000 %
3736 11-07-2012 22:00:00 13.28333 C 85.0000 %
3737 11-07-2012 23:00:00 12.63333 C 84.0000 %
3738 12-07-2012 00:00:00 12.1 C 85.1667 %
3739 12-07-2012 01:00:00 12.45 C 81.0000 %
3740 12-07-2012 02:00:00 12.6 C 76.6667 %
3741 12-07-2012 03:00:00 12.25 C 76.0000 %
3742 12-07-2012 04:00:00 12.38333 C 76.0000 %
3743 12-07-2012 05:00:00 12.16667 C 78.5000 %
3744 12-07-2012 06:00:00 12.33333 C 78.8333 %
3745 12-07-2012 07:00:00 12.83333 C 74.8333 %
3746 12-07-2012 08:00:00 14.51667 C 66.5000 %
3747 12-07-2012 09:00:00 15.48333 C 57.8333 %
3748 12-07-2012 10:00:00 16.21667 C 53.5000 %
3749 12-07-2012 11:00:00 13.5 C 73.8333 %
3750 12-07-2012 12:00:00 13.83333 C 66.3333 %
Sensor: Nr:Datum:Temp:Feuchte:
Aussen-T/F 3751 12-07-2012 13:00:00 15.1 C 60.3333 %
3752 12-07-2012 14:00:00 16.23333 C 55.3333 %
3753 12-07-2012 15:00:00 20.91667 C 41.3333 %
3754 12-07-2012 16:00:00 22.96667 C 30.1667 %
3755 12-07-2012 17:00:00 21.9 C 30.5000 %
3756 12-07-2012 18:00:00 18.95 C 41.0000 %
3757 12-07-2012 19:00:00 18.83333 C 44.3333 %
3758 12-07-2012 20:00:00 17.8 C 48.5000 %
3759 12-07-2012 21:00:00 15.43333 C 64.1667 %
3760 12-07-2012 22:00:00 14.2 C 69.6667 %
3761 12-07-2012 23:00:00 13.71667 C 76.1667 %
3762 13-07-2012 00:00:00 14.1 C 74.6667 %
3763 13-07-2012 01:00:00 13.65 C 82.5000 %
3764 13-07-2012 02:00:00 13.46667 C 85.0000 %
3765 13-07-2012 03:00:00 13.5 C 86.5000 %
3766 13-07-2012 04:00:00 13.43333 C 87.3333 %
3767 13-07-2012 05:00:00 13.48333 C 88.0000 %
3768 13-07-2012 06:00:00 13.56667 C 87.3333 %
3769 13-07-2012 07:00:00 13.45 C 86.5000 %
3770 13-07-2012 08:00:00 13.63333 C 84.8333 %
3771 13-07-2012 09:00:00 13.95 C 83.6667 %
3772 13-07-2012 10:00:00 14.53333 C 81.5000 %
3773 13-07-2012 11:00:00 15.98333 C 74.8333 %
3774 13-07-2012 12:00:00 16.65 C 69.3333 %
3775 13-07-2012 13:00:00 18.95 C 58.6667 %
Sensor: Nr:Datum:Temp:Feuchte:
Aussen-T/F 3776 13-07-2012 14:00:00 19.31667 C 53.1667 %
3777 13-07-2012 15:00:00 21.85 C 46.5000 %
3778 13-07-2012 16:00:00 20.76667 C 50.3333 %
3779 13-07-2012 17:00:00 20.35 C 52.6667 %
3780 13-07-2012 18:00:00 17.55 C 75.3333 %
3781 13-07-2012 19:00:00 17.76667 C 77.0000 %
3782 13-07-2012 20:00:00 16.38333 C 82.5000 %
3783 13-07-2012 21:00:00 15.73333 C 85.6667 %
3784 13-07-2012 22:00:00 15.45 C 86.8333 %
3785 13-07-2012 23:00:00 15.03333 C 87.1667 %
3786 14-07-2012 00:00:00 14.66667 C 88.3333 %
3787 14-07-2012 01:00:00 14.4 C 89.0000 %
3788 14-07-2012 02:00:00 14.1 C 89.0000 %
3789 14-07-2012 03:00:00 13.86667 C 89.8333 %
3790 14-07-2012 04:00:00 13.73333 C 90.0000 %
3791 14-07-2012 05:00:00 13.6 C 90.0000 %
3792 14-07-2012 06:00:00 13.51667 C 90.0000 %
3793 14-07-2012 07:00:00 13.15 C 90.1667 %
3794 14-07-2012 08:00:00 13.8 C 89.3333 %
3795 14-07-2012 09:00:00 14.71667 C 81.5000 %
3796 14-07-2012 10:00:00 14.85 C 78.1667 %
3797 14-07-2012 11:00:00 15.85 C 70.0000 %
3798 14-07-2012 12:00:00 15.95 C 71.0000 %
3799 14-07-2012 13:00:00 16.36667 C 70.8333 %
3800 14-07-2012 14:00:00 19.85 C 49.6667 %
Sensor: Nr:Datum:Temp:Feuchte:
Aussen-T/F 3801 14-07-2012 15:00:00 21.58333 C 43.6667 %
3802 14-07-2012 16:00:00 21.11667 C 43.6667 %
3803 14-07-2012 17:00:00 19.81667 C 46.1667 %
3804 14-07-2012 18:00:00 21.98333 C 40.1667 %
3805 14-07-2012 19:00:00 19.3 C 51.3333 %
3806 14-07-2012 20:00:00 15.41667 C 70.3333 %
3807 14-07-2012 21:00:00 12.88333 C 83.6667 %
3808 14-07-2012 22:00:00 12.15 C 87.0000 %
3809 14-07-2012 23:00:00 12.63333 C 88.8333 %
3810 15-07-2012 00:00:00 12.45 C 89.0000 %
3811 15-07-2012 01:00:00 12.36667 C 87.8333 %
3812 15-07-2012 02:00:00 11.98333 C 86.8333 %
3813 15-07-2012 03:00:00 12.23333 C 87.0000 %
3814 15-07-2012 04:00:00 12.1 C 87.1667 %
3815 15-07-2012 05:00:00 12.1 C 87.5000 %
3816 15-07-2012 06:00:00 11.71667 C 88.0000 %
3817 15-07-2012 07:00:00 12.56667 C 88.0000 %
3818 15-07-2012 08:00:00 14.21667 C 77.5000 %
3819 15-07-2012 09:00:00 16.1 C 62.1667 %
3820 15-07-2012 10:00:00 16.8 C 55.8333 %
3821 15-07-2012 11:00:00 16.9 C 56.0000 %
3822 15-07-2012 12:00:00 17.13333 C 60.1667 %
3823 15-07-2012 13:00:00 17.43333 C 60.1667 %
3824 15-07-2012 14:00:00 20.36667 C 44.8333 %
3825 15-07-2012 15:00:00 17.91667 C 58.5000 %
Sensor: Nr:Datum:Temp:Feuchte:
Aussen-T/F 3826 15-07-2012 16:00:00 16.33333 C 65.8333 %
3827 15-07-2012 17:00:00 15.88333 C 68.3333 %
3828 15-07-2012 18:00:00 15.63333 C 67.3333 %
3829 15-07-2012 19:00:00 17.4 C 64.6667 %
3830 15-07-2012 20:00:00 15.15 C 77.0000 %
3831 15-07-2012 21:00:00 14.38333 C 76.8333 %
3832 15-07-2012 22:00:00 12.95 C 81.1667 %
3833 15-07-2012 23:00:00 13.06667 C 84.6667 %
3834 16-07-2012 00:00:00 13 C 81.3333 %
3835 16-07-2012 01:00:00 12.73333 C 83.3333 %
3836 16-07-2012 02:00:00 12.98333 C 80.1667 %
3837 16-07-2012 03:00:00 12.86667 C 79.3333 %
3838 16-07-2012 04:00:00 12.43333 C 77.3333 %
3839 16-07-2012 05:00:00 12.8 C 75.0000 %
3840 16-07-2012 06:00:00 12.65 C 73.8333 %
3841 16-07-2012 07:00:00 13.01667 C 69.5000 %
3842 16-07-2012 08:00:00 13.76667 C 61.6667 %
3843 16-07-2012 09:00:00 14.71667 C 57.0000 %
3844 16-07-2012 10:00:00 15.28333 C 54.1667 %
3845 16-07-2012 11:00:00 16.9 C 48.6667 %
3846 16-07-2012 12:00:00 17.65 C 45.5000 %
3847 16-07-2012 13:00:00 20.25 C 38.8333 %
3848 16-07-2012 14:00:00 19.48333 C 39.5000 %
3849 16-07-2012 15:00:00 19.68333 C 40.3333 %
3850 16-07-2012 16:00:00 20.71667 C 37.6667 %
Sensor: Nr:Datum:Temp:Feuchte:
Aussen-T/F 3851 16-07-2012 17:00:00 18.5 C 47.0000 %
3852 16-07-2012 18:00:00 15.38333 C 72.0000 %
3853 16-07-2012 19:00:00 14.36667 C 81.3333 %
3854 16-07-2012 20:00:00 14.16667 C 82.3333 %
3855 16-07-2012 21:00:00 14.28333 C 81.8333 %
3856 16-07-2012 22:00:00 14.9 C 73.0000 %
3857 16-07-2012 23:00:00 15.33333 C 68.6667 %
3858 17-07-2012 00:00:00 15.53333 C 66.0000 %
3859 17-07-2012 01:00:00 15.43333 C 65.5000 %
3860 17-07-2012 02:00:00 16.46667 C 60.5000 %
3861 17-07-2012 03:00:00 16.53333 C 61.3333 %
3862 17-07-2012 04:00:00 16.48333 C 62.1667 %
3863 17-07-2012 05:00:00 16.4 C 63.6667 %
3864 17-07-2012 06:00:00 16.41667 C 64.6667 %
3865 17-07-2012 07:00:00 16.56667 C 64.1667 %
3866 17-07-2012 08:00:00 16.45 C 66.5000 %
3867 17-07-2012 09:00:00 17.48333 C 62.6667 %
3868 17-07-2012 10:00:00 18.2 C 58.0000 %
3869 17-07-2012 11:00:00 18.85 C 54.0000 %
3870 17-07-2012 12:00:00 18.81667 C 55.0000 %
3871 17-07-2012 13:00:00 19.56667 C 52.3333 %
3872 17-07-2012 14:00:00 19.93333 C 52.3333 %
3873 17-07-2012 15:00:00 19.8 C 52.0000 %
3874 17-07-2012 16:00:00 19.75 C 51.5000 %
3875 17-07-2012 17:00:00 20.05 C 51.1667 %
Sensor: Nr:Datum:Temp:Feuchte:
Aussen-T/F 3876 17-07-2012 18:00:00 21.35 C 47.1667 %
3877 17-07-2012 19:00:00 21.83333 C 44.3333 %
3878 17-07-2012 20:00:00 20.18333 C 51.0000 %
3879 17-07-2012 21:00:00 17.36667 C 66.6667 %
3880 17-07-2012 22:00:00 16.81667 C 70.6667 %
3881 17-07-2012 23:00:00 16.8 C 69.6667 %
3882 18-07-2012 00:00:00 17.1 C 65.3333 %
3883 18-07-2012 01:00:00 16.31667 C 70.6667 %
3884 18-07-2012 02:00:00 15.66667 C 77.1667 %
3885 18-07-2012 03:00:00 15.61667 C 74.1667 %
3886 18-07-2012 04:00:00 15.71667 C 73.5000 %
3887 18-07-2012 05:00:00 15.86667 C 71.8333 %
3888 18-07-2012 06:00:00 15.36667 C 77.0000 %
3889 18-07-2012 07:00:00 16.3 C 72.6667 %
3890 18-07-2012 08:00:00 18.41667 C 63.1667 %
3891 18-07-2012 09:00:00 19.16667 C 61.5000 %
3892 18-07-2012 10:00:00 20.55 C 55.8333 %
3893 18-07-2012 11:00:00 22.16667 C 48.1667 %
3894 18-07-2012 12:00:00 23.65 C 42.6667 %
3895 18-07-2012 13:00:00 24.8 C 40.5000 %
3896 18-07-2012 14:00:00 26.26667 C 35.0000 %
3897 18-07-2012 15:00:00 27.6 C 31.1667 %
3898 18-07-2012 16:00:00 26.78333 C 33.1667 %
3899 18-07-2012 17:00:00 26.68333 C 34.0000 %
3900 18-07-2012 18:00:00 27.41667 C 30.1667 %
Sensor: Nr:Datum:Temp:Feuchte:
Aussen-T/F 3901 18-07-2012 19:00:00 24.65 C 37.0000 %
3902 18-07-2012 20:00:00 22.85 C 43.1667 %
3903 18-07-2012 21:00:00 20.43333 C 55.5000 %
3904 18-07-2012 22:00:00 18.78333 C 63.6667 %
3905 18-07-2012 23:00:00 17.9 C 67.3333 %
3906 19-07-2012 00:00:00 17.23333 C 70.8333 %
3907 19-07-2012 01:00:00 17.36667 C 71.3333 %
3908 19-07-2012 02:00:00 17.61667 C 65.8333 %
3909 19-07-2012 03:00:00 17.66667 C 61.8333 %
3910 19-07-2012 04:00:00 16.95 C 66.0000 %
3911 19-07-2012 05:00:00 16.75 C 66.0000 %
3912 19-07-2012 06:00:00 16.9 C 64.5000 %
3913 19-07-2012 07:00:00 17.51667 C 60.0000 %
3914 19-07-2012 08:00:00 17.9 C 58.3333 %
3915 19-07-2012 09:00:00 18.5 C 54.1667 %
3916 19-07-2012 10:00:00 19.06667 C 49.1667 %
3917 19-07-2012 11:00:00 20.15 C 41.0000 %
3918 19-07-2012 12:00:00 20.65 C 39.8333 %
3919 19-07-2012 13:00:00 22.58333 C 33.0000 %
3920 19-07-2012 14:00:00 25.11667 C 26.0000 %
3921 19-07-2012 15:00:00 20.58333 C 39.3333 %
3922 19-07-2012 16:00:00 20.5 C 40.5000 %
3923 19-07-2012 17:00:00 20.8 C 38.8333 %
3924 19-07-2012 18:00:00 19.98333 C 40.8333 %
3925 19-07-2012 19:00:00 20.33333 C 42.0000 %
Sensor: Nr:Datum:Temp:Feuchte:
Aussen-T/F 3926 19-07-2012 20:00:00 18.51667 C 53.3333 %
3927 19-07-2012 21:00:00 16.91667 C 58.6667 %
3928 19-07-2012 22:00:00 15.28333 C 69.6667 %
3929 19-07-2012 23:00:00 14.3 C 76.1667 %
3930 20-07-2012 00:00:00 14.26667 C 76.0000 %
3931 20-07-2012 01:00:00 13.4 C 75.5000 %
3932 20-07-2012 02:00:00 11.71667 C 82.6667 %
3933 20-07-2012 03:00:00 11.11667 C 85.1667 %
3934 20-07-2012 04:00:00 10.9 C 86.3333 %
3935 20-07-2012 05:00:00 10.86667 C 87.1667 %
3936 20-07-2012 06:00:00 11.1 C 86.3333 %
3937 20-07-2012 07:00:00 12.23333 C 82.6667 %
3938 20-07-2012 08:00:00 14.73333 C 70.8333 %
3939 20-07-2012 09:00:00 16.4 C 57.0000 %
3940 20-07-2012 10:00:00 17.48333 C 52.3333 %
3941 20-07-2012 11:00:00 19.48333 C 45.3333 %
3942 20-07-2012 12:00:00 20.45 C 43.6667 %
3943 20-07-2012 13:00:00 21.06667 C 42.1667 %
3944 20-07-2012 14:00:00 17.63333 C 66.1667 %
3945 20-07-2012 15:00:00 19.31667 C 56.0000 %
3946 20-07-2012 16:00:00 16.4 C 78.3333 %
3947 20-07-2012 17:00:00 18.21667 C 71.8333 %
3948 20-07-2012 18:00:00 18.11667 C 67.5000 %
3949 20-07-2012 19:00:00 15.35 C 76.0000 %
3950 20-07-2012 20:00:00 14.25 C 84.6667 %
Sensor: Nr:Datum:Temp:Feuchte:
Aussen-T/F 3951 20-07-2012 21:00:00 13.86667 C 86.6667 %
3952 20-07-2012 22:00:00 13.3 C 88.0000 %
3953 20-07-2012 23:00:00 12.6 C 88.8333 %
3954 21-07-2012 00:00:00 12.53333 C 89.5000 %
3955 21-07-2012 01:00:00 12.68333 C 90.0000 %
3956 21-07-2012 02:00:00 12.83333 C 90.5000 %
3957 21-07-2012 03:00:00 12.9 C 90.6667 %
3958 21-07-2012 04:00:00 13.06667 C 90.0000 %
3959 21-07-2012 05:00:00 13.01667 C 90.0000 %
3960 21-07-2012 06:00:00 13 C 90.1667 %
3961 21-07-2012 07:00:00 13.05 C 90.0000 %
3962 21-07-2012 08:00:00 14.05 C 89.5000 %
3963 21-07-2012 09:00:00 15.68333 C 76.6667 %
3964 21-07-2012 10:00:00 16.88333 C 62.1667 %
3965 21-07-2012 11:00:00 17.8 C 54.6667 %
3966 21-07-2012 12:00:00 17.96667 C 50.5000 %
3967 21-07-2012 13:00:00 19.35 C 43.1667 %
3968 21-07-2012 14:00:00 22.98333 C 30.6667 %
3969 21-07-2012 15:00:00 21.71667 C 33.0000 %
3970 21-07-2012 16:00:00 22.31667 C 30.1667 %
3971 21-07-2012 17:00:00 19.55 C 36.1667 %
3972 21-07-2012 18:00:00 19.65 C 37.0000 %
3973 21-07-2012 19:00:00 18.23333 C 39.5000 %
3974 21-07-2012 20:00:00 15.98333 C 53.0000 %
3975 21-07-2012 21:00:00 13.58333 C 67.3333 %
Sensor: Nr:Datum:Temp:Feuchte:
Aussen-T/F 3976 21-07-2012 22:00:00 11.8 C 74.6667 %
3977 21-07-2012 23:00:00 10.81667 C 80.0000 %
3978 22-07-2012 00:00:00 9.66667 C 83.6667 %
3979 22-07-2012 01:00:00 8.75 C 86.6667 %
3980 22-07-2012 02:00:00 8.13333 C 87.3333 %
3981 22-07-2012 03:00:00 7.7 C 88.6667 %
3982 22-07-2012 04:00:00 7.38333 C 89.0000 %
3983 22-07-2012 05:00:00 6.93333 C 89.3333 %
3984 22-07-2012 06:00:00 7.4 C 89.8333 %
3985 22-07-2012 07:00:00 8.66667 C 89.6667 %
3986 22-07-2012 08:00:00 10 C 87.0000 %
3987 22-07-2012 09:00:00 11.2 C 80.1667 %
3988 22-07-2012 10:00:00 14.78333 C 63.8333 %
3989 22-07-2012 11:00:00 16.61667 C 49.3333 %
3990 22-07-2012 12:00:00 18.25 C 39.5000 %
3991 22-07-2012 13:00:00 22.36667 C 30.3333 %
3992 22-07-2012 14:00:00 28.65 C 20.0000 %
3993 22-07-2012 15:00:00 27.11667 C 20.6667 %
3994 22-07-2012 16:00:00 28.16667 C 20.0000 %
3995 22-07-2012 17:00:00 27.83333 C 21.1667 %
3996 22-07-2012 18:00:00 26.03333 C 24.6667 %
3997 22-07-2012 19:00:00 25.71667 C 26.1667 %
3998 22-07-2012 20:00:00 17.7 C 51.3333 %
3999 22-07-2012 21:00:00 15.01667 C 59.6667 %
4000 22-07-2012 22:00:00 13.33333 C 63.0000 %
Sensor: Nr:Datum:Temp:Feuchte:
Aussen-T/F 4001 22-07-2012 23:00:00 12.3 C 67.1667 %
4002 23-07-2012 00:00:00 10.78333 C 73.8333 %
4003 23-07-2012 01:00:00 9.76667 C 78.1667 %
4004 23-07-2012 02:00:00 9 C 81.6667 %
4005 23-07-2012 03:00:00 8.31667 C 84.3333 %
4006 23-07-2012 04:00:00 7.96667 C 86.5000 %
4007 23-07-2012 05:00:00 7.51667 C 88.0000 %
4008 23-07-2012 06:00:00 7.65 C 88.5000 %
4009 23-07-2012 07:00:00 8.31667 C 88.1667 %
4010 23-07-2012 08:00:00 9.63333 C 87.8333 %
4011 23-07-2012 09:00:00 12.23333 C 85.8333 %
4012 23-07-2012 10:00:00 16.06667 C 68.1667 %
4013 23-07-2012 11:00:00 18.9 C 46.6667 %
4014 23-07-2012 12:00:00 20.66667 C 39.0000 %
4015 23-07-2012 13:00:00 24.76667 C 26.1667 %
4016 23-07-2012 14:00:00 29.86667 C 20.0000 %
4017 23-07-2012 15:00:00 31.3 C 20.0000 %
4018 23-07-2012 16:00:00 31.9 C 20.0000 %
4019 23-07-2012 17:00:00 32.41667 C 20.0000 %
4020 23-07-2012 18:00:00 30.6 C 20.0000 %
4021 23-07-2012 19:00:00 29.3 C 21.8333 %
4022 23-07-2012 20:00:00 22 C 43.0000 %
4023 23-07-2012 21:00:00 18.01667 C 52.5000 %
4024 23-07-2012 22:00:00 16.08333 C 59.1667 %
4025 23-07-2012 23:00:00 14.21667 C 67.1667 %
Sensor: Nr:Datum:Temp:Feuchte:
Aussen-T/F 4026 24-07-2012 00:00:00 12.48333 C 73.6667 %
4027 24-07-2012 01:00:00 11.66667 C 78.3333 %
4028 24-07-2012 02:00:00 11.16667 C 80.8333 %
4029 24-07-2012 03:00:00 10.83333 C 83.5000 %
4030 24-07-2012 04:00:00 10.3 C 84.0000 %
4031 24-07-2012 05:00:00 9.76667 C 86.6667 %
4032 24-07-2012 06:00:00 9.91667 C 87.5000 %
4033 24-07-2012 07:00:00 10.51667 C 87.0000 %
4034 24-07-2012 08:00:00 12.26667 C 86.8333 %
4035 24-07-2012 09:00:00 15.23333 C 82.6667 %
4036 24-07-2012 10:00:00 19.71667 C 62.5000 %
4037 24-07-2012 11:00:00 22.18333 C 47.0000 %
4038 24-07-2012 12:00:00 24.36667 C 36.0000 %
4039 24-07-2012 13:00:00 28.45 C 25.8333 %
4040 24-07-2012 14:00:00 34.15 C 20.0000 %
4041 24-07-2012 15:00:00 34.28333 C 20.0000 %
4042 24-07-2012 16:00:00 34.78333 C 20.0000 %
4043 24-07-2012 17:00:00 35.16667 C 20.0000 %
4044 24-07-2012 18:00:00 34.33333 C 20.0000 %
4045 24-07-2012 19:00:00 32.4 C 26.6667 %
4046 24-07-2012 20:00:00 25.23333 C 46.8333 %
4047 24-07-2012 21:00:00 21.96667 C 55.8333 %
4048 24-07-2012 22:00:00 19.83333 C 63.1667 %
4049 24-07-2012 23:00:00 18.5 C 69.1667 %
4050 25-07-2012 00:00:00 17.21667 C 74.5000 %
Sensor: Nr:Datum:Temp:Feuchte:
Aussen-T/F 4051 25-07-2012 01:00:00 16.36667 C 78.5000 %
4052 25-07-2012 02:00:00 15.61667 C 81.8333 %
4053 25-07-2012 03:00:00 14.93333 C 83.5000 %
4054 25-07-2012 04:00:00 14.51667 C 84.5000 %
4055 25-07-2012 05:00:00 14.33333 C 86.0000 %
4056 25-07-2012 06:00:00 14.23333 C 86.8333 %
4057 25-07-2012 07:00:00 14.73333 C 86.8333 %
4058 25-07-2012 08:00:00 16.03333 C 86.0000 %
4059 25-07-2012 09:00:00 18.35 C 79.1667 %
4060 25-07-2012 10:00:00 21.53333 C 64.1667 %
4061 25-07-2012 11:00:00 23.45 C 57.1667 %
4062 25-07-2012 12:00:00 25.73333 C 45.5000 %
4063 25-07-2012 13:00:00 30.23333 C 32.1667 %
4064 25-07-2012 14:00:00 37.35 C 20.0000 %
4065 25-07-2012 15:00:00 37.33333 C 20.0000 %
4066 25-07-2012 16:00:00 38.35 C 20.0000 %
4067 25-07-2012 17:00:00 37.26667 C 20.0000 %
4068 25-07-2012 18:00:00 35.25 C 20.6667 %
4069 25-07-2012 19:00:00 32.61667 C 24.6667 %
4070 25-07-2012 20:00:00 26.71667 C 41.8333 %
4071 25-07-2012 21:00:00 23.08333 C 53.3333 %
4072 25-07-2012 22:00:00 21.48333 C 60.1667 %
4073 25-07-2012 23:00:00 19.68333 C 67.1667 %
4074 26-07-2012 00:00:00 18.46667 C 71.8333 %
4075 26-07-2012 01:00:00 17.7 C 75.1667 %
Sensor: Nr:Datum:Temp:Feuchte:
Aussen-T/F 4076 26-07-2012 02:00:00 16.98333 C 78.3333 %
4077 26-07-2012 03:00:00 16.63333 C 81.6667 %
4078 26-07-2012 04:00:00 16.33333 C 83.0000 %
4079 26-07-2012 05:00:00 15.8 C 84.6667 %
4080 26-07-2012 06:00:00 16.03333 C 85.0000 %
4081 26-07-2012 07:00:00 17.68333 C 80.0000 %
4082 26-07-2012 08:00:00 19.05 C 70.8333 %
4083 26-07-2012 09:00:00 21.23333 C 66.1667 %
4084 26-07-2012 10:00:00 24.33333 C 55.3333 %
4085 26-07-2012 11:00:00 25.63333 C 49.5000 %
4086 26-07-2012 12:00:00 26.9 C 43.1667 %
4087 26-07-2012 13:00:00 30.96667 C 33.1667 %
4088 26-07-2012 14:00:00 38.01667 C 20.0000 %
4089 26-07-2012 15:00:00 38.2 C 20.1667 %
4090 26-07-2012 16:00:00 36.63333 C 24.1667 %
4091 26-07-2012 17:00:00 36.98333 C 21.1667 %
4092 26-07-2012 18:00:00 36.31667 C 22.3333 %
4093 26-07-2012 19:00:00 32.7 C 32.5000 %
4094 26-07-2012 20:00:00 26.68333 C 49.0000 %
4095 26-07-2012 21:00:00 23.93333 C 56.1667 %
4096 26-07-2012 22:00:00 22.7 C 60.6667 %
4097 26-07-2012 23:00:00 21.3 C 67.0000 %
4098 27-07-2012 00:00:00 20.43333 C 72.6667 %
4099 27-07-2012 01:00:00 20.08333 C 74.1667 %
4100 27-07-2012 02:00:00 19.6 C 75.6667 %
Sensor: Nr:Datum:Temp:Feuchte:
Aussen-T/F 4101 27-07-2012 03:00:00 18.06667 C 80.3333 %
4102 27-07-2012 04:00:00 17.18333 C 83.3333 %
4103 27-07-2012 05:00:00 16.68333 C 84.8333 %
4104 27-07-2012 06:00:00 16.73333 C 85.1667 %
4105 27-07-2012 07:00:00 17.55 C 84.8333 %
4106 27-07-2012 08:00:00 19.25 C 83.0000 %
4107 27-07-2012 09:00:00 21.65 C 72.8333 %
4108 27-07-2012 10:00:00 24.9 C 62.3333 %
4109 27-07-2012 11:00:00 26.66667 C 57.1667 %
4110 27-07-2012 12:00:00 28.85 C 45.8333 %
4111 27-07-2012 13:00:00 32.51667 C 39.6667 %
4112 27-07-2012 14:00:00 33.98333 C 36.3333 %
4113 27-07-2012 15:00:00 38.76667 C 21.0000 %
4114 27-07-2012 16:00:00 38.33333 C 23.3333 %
4115 27-07-2012 17:00:00 31.4 C 36.8333 %
4116 27-07-2012 18:00:00 22.18333 C 68.3333 %
4117 27-07-2012 19:00:00 22.88333 C 72.1667 %
4118 27-07-2012 20:00:00 20.95 C 77.1667 %
4119 27-07-2012 21:00:00 19.08333 C 83.6667 %
4120 27-07-2012 22:00:00 18.65 C 86.0000 %
4121 27-07-2012 23:00:00 18.73333 C 86.1667 %
4122 28-07-2012 00:00:00 18.3 C 78.5000 %
4123 28-07-2012 01:00:00 17.55 C 85.1667 %
4124 28-07-2012 02:00:00 17.2 C 86.6667 %
4125 28-07-2012 03:00:00 16.78333 C 87.8333 %
Sensor: Nr:Datum:Temp:Feuchte:
Aussen-T/F 4126 28-07-2012 04:00:00 16.26667 C 88.0000 %
4127 28-07-2012 05:00:00 15.93333 C 88.5000 %
4128 28-07-2012 06:00:00 16.63333 C 88.6667 %
4129 28-07-2012 07:00:00 18.61667 C 78.8333 %
4130 28-07-2012 08:00:00 20.21667 C 68.8333 %
4131 28-07-2012 09:00:00 19.88333 C 72.0000 %
4132 28-07-2012 10:00:00 20.08333 C 74.0000 %
4133 28-07-2012 11:00:00 20.6 C 73.0000 %
4134 28-07-2012 12:00:00 20.33333 C 76.8333 %
4135 28-07-2012 13:00:00 21.35 C 72.3333 %
4136 28-07-2012 14:00:00 21.16667 C 75.5000 %
4137 28-07-2012 15:00:00 24.26667 C 64.0000 %
4138 28-07-2012 16:00:00 21.6 C 73.5000 %
4139 28-07-2012 17:00:00 27.01667 C 48.6667 %
4140 28-07-2012 18:00:00 25.13333 C 55.8333 %
4141 28-07-2012 19:00:00 22.7 C 66.8333 %
4142 28-07-2012 20:00:00 19.71667 C 82.3333 %
4143 28-07-2012 21:00:00 19.15 C 85.8333 %
4144 28-07-2012 22:00:00 18.05 C 86.6667 %
4145 28-07-2012 23:00:00 17.5 C 87.8333 %
4146 29-07-2012 00:00:00 17.08333 C 88.0000 %
4147 29-07-2012 01:00:00 17.18333 C 88.3333 %
4148 29-07-2012 02:00:00 17.25 C 89.0000 %
4149 29-07-2012 03:00:00 17.23333 C 89.0000 %
4150 29-07-2012 04:00:00 17.01667 C 89.0000 %
Sensor: Nr:Datum:Temp:Feuchte:
Aussen-T/F 4151 29-07-2012 05:00:00 16.66667 C 89.0000 %
4152 29-07-2012 06:00:00 16.55 C 89.0000 %
4153 29-07-2012 07:00:00 16.71667 C 89.0000 %
4154 29-07-2012 08:00:00 17.21667 C 89.0000 %
4155 29-07-2012 09:00:00 16.68333 C 79.8333 %
4156 29-07-2012 10:00:00 17.2 C 57.5000 %
4157 29-07-2012 11:00:00 18.95 C 43.3333 %
4158 29-07-2012 12:00:00 18.91667 C 39.1667 %
4159 29-07-2012 13:00:00 20.18333 C 35.8333 %
4160 29-07-2012 14:00:00 22.71667 C 28.0000 %
4161 29-07-2012 15:00:00 22.61667 C 28.3333 %
4162 29-07-2012 16:00:00 21.43333 C 35.3333 %
4163 29-07-2012 17:00:00 21.9 C 34.0000 %
4164 29-07-2012 18:00:00 22.83333 C 29.1667 %
4165 29-07-2012 19:00:00 21.38333 C 32.1667 %
4166 29-07-2012 20:00:00 18.06667 C 49.0000 %
4167 29-07-2012 21:00:00 14.66667 C 63.6667 %
4168 29-07-2012 22:00:00 12.96667 C 71.3333 %
4169 29-07-2012 23:00:00 12.38333 C 74.5000 %
4170 30-07-2012 00:00:00 13.16667 C 67.3333 %
4171 30-07-2012 01:00:00 13.65 C 63.6667 %
4172 30-07-2012 02:00:00 12.83333 C 68.0000 %
4173 30-07-2012 03:00:00 11.98333 C 77.5000 %
4174 30-07-2012 04:00:00 12.28333 C 81.5000 %
4175 30-07-2012 05:00:00 12.76667 C 84.0000 %
Sensor: Nr:Datum:Temp:Feuchte:
Aussen-T/F 4176 30-07-2012 06:00:00 12.85 C 85.0000 %
4177 30-07-2012 07:00:00 12.73333 C 86.6667 %
4178 30-07-2012 08:00:00 13.78333 C 79.8333 %
4179 30-07-2012 09:00:00 15.66667 C 63.5000 %
4180 30-07-2012 10:00:00 17.43333 C 50.3333 %
4181 30-07-2012 11:00:00 17.78333 C 47.3333 %
4182 30-07-2012 12:00:00 18.61667 C 42.1667 %
4183 30-07-2012 13:00:00 20.55 C 32.6667 %
4184 30-07-2012 14:00:00 21.91667 C 28.0000 %
4185 30-07-2012 15:00:00 23.71667 C 24.5000 %
4186 30-07-2012 16:00:00 23.76667 C 21.3333 %
4187 30-07-2012 17:00:00 22.55 C 25.1667 %
4188 30-07-2012 18:00:00 21.2 C 32.1667 %
4189 30-07-2012 19:00:00 20.66667 C 37.1667 %
4190 30-07-2012 20:00:00 17.01667 C 54.6667 %
4191 30-07-2012 21:00:00 14.85 C 61.5000 %
4192 30-07-2012 22:00:00 13.81667 C 68.3333 %
4193 30-07-2012 23:00:00 12.71667 C 74.6667 %
4194 31-07-2012 00:00:00 12.53333 C 78.3333 %
4195 31-07-2012 01:00:00 11.3 C 80.5000 %
4196 31-07-2012 02:00:00 11.05 C 83.5000 %
4197 31-07-2012 03:00:00 10.56667 C 85.0000 %
4198 31-07-2012 04:00:00 11.56667 C 85.1667 %
4199 31-07-2012 05:00:00 11.63333 C 82.6667 %
4200 31-07-2012 06:00:00 11.13333 C 84.8333 %
Sensor: Nr:Datum:Temp:Feuchte:
Aussen-T/F 4201 31-07-2012 07:00:00 12.08333 C 85.1667 %
4202 31-07-2012 08:00:00 14.06667 C 79.5000 %
4203 31-07-2012 09:00:00 16.58333 C 64.3333 %
4204 31-07-2012 10:00:00 18.11667 C 53.1667 %
4205 31-07-2012 11:00:00 19.8 C 46.6667 %
4206 31-07-2012 12:00:00 21.95 C 38.3333 %
4207 31-07-2012 13:00:00 22.6 C 36.0000 %
4208 31-07-2012 14:00:00 23.76667 C 32.8333 %
4209 31-07-2012 15:00:00 23.4 C 37.1667 %
4210 31-07-2012 16:00:00 22.33333 C 45.5000 %
4211 31-07-2012 17:00:00 20.5 C 56.0000 %
4212 31-07-2012 18:00:00 20.51667 C 57.5000 %
4213 31-07-2012 19:00:00 19.65 C 61.0000 %
4214 31-07-2012 20:00:00 18.9 C 62.3333 %
4215 31-07-2012 21:00:00 16.98333 C 68.1667 %
4216 31-07-2012 22:00:00 15.55 C 75.8333 %
4217 31-07-2012 23:00:00 14.23333 C 79.8333 %
4218 01-08-2012 00:00:00 13.28333 C 81.6667 %
4219 01-08-2012 01:00:00 13.03333 C 83.5000 %
4220 01-08-2012 02:00:00 12.68333 C 85.6667 %
4221 01-08-2012 03:00:00 12 C 86.5000 %
4222 01-08-2012 04:00:00 11.65 C 87.3333 %
4223 01-08-2012 05:00:00 11.3 C 88.0000 %
4224 01-08-2012 06:00:00 11.05 C 88.0000 %
4225 01-08-2012 07:00:00 11.55 C 88.1667 %
Sensor: Nr:Datum:Temp:Feuchte:
Aussen-T/F 4226 01-08-2012 08:00:00 12.6 C 88.1667 %
4227 01-08-2012 09:00:00 14.55 C 87.6667 %
4228 01-08-2012 10:00:00 17.76667 C 82.6667 %
4229 01-08-2012 11:00:00 21.48333 C 59.5000 %
4230 01-08-2012 12:00:00 24.03333 C 43.6667 %
4231 01-08-2012 13:00:00 28.15 C 33.0000 %
4232 01-08-2012 14:00:00 33.85 C 21.6667 %
4233 01-08-2012 15:00:00 35.43333 C 20.0000 %
4234 01-08-2012 16:00:00 36.08333 C 20.0000 %
4235 01-08-2012 17:00:00 35.6 C 20.1667 %
4236 01-08-2012 18:00:00 36 C 20.8333 %
4237 01-08-2012 19:00:00 27.8 C 39.8333 %
4238 01-08-2012 20:00:00 23.43333 C 51.1667 %
4239 01-08-2012 21:00:00 21.98333 C 55.6667 %
4240 01-08-2012 22:00:00 21.1 C 60.3333 %
4241 01-08-2012 23:00:00 20.55 C 62.5000 %
4242 02-08-2012 00:00:00 19.48333 C 68.1667 %
4243 02-08-2012 01:00:00 18.58333 C 71.8333 %
4244 02-08-2012 02:00:00 18.4 C 74.6667 %
4245 02-08-2012 03:00:00 18.23333 C 77.1667 %
4246 02-08-2012 04:00:00 20.13333 C 68.5000 %
4247 02-08-2012 05:00:00 21.03333 C 62.6667 %
4248 02-08-2012 06:00:00 20.43333 C 64.8333 %
4249 02-08-2012 07:00:00 19.51667 C 69.8333 %
4250 02-08-2012 08:00:00 20.45 C 66.5000 %
Sensor: Nr:Datum:Temp:Feuchte:
Aussen-T/F 4251 02-08-2012 09:00:00 21.83333 C 57.0000 %
4252 02-08-2012 10:00:00 23.03333 C 48.5000 %
4253 02-08-2012 11:00:00 24.18333 C 43.8333 %
4254 02-08-2012 12:00:00 24.31667 C 41.3333 %
4255 02-08-2012 13:00:00 25.26667 C 38.0000 %
4256 02-08-2012 14:00:00 23.21667 C 45.6667 %
4257 02-08-2012 15:00:00 23.5 C 44.1667 %
4258 02-08-2012 16:00:00 24.08333 C 40.3333 %
4259 02-08-2012 17:00:00 24.85 C 40.3333 %
4260 02-08-2012 18:00:00 22.31667 C 51.3333 %
4261 02-08-2012 19:00:00 21.83333 C 55.8333 %
4262 02-08-2012 20:00:00 20.18333 C 62.1667 %
4263 02-08-2012 21:00:00 19 C 65.8333 %
4264 02-08-2012 22:00:00 17.75 C 71.5000 %
4265 02-08-2012 23:00:00 16.83333 C 75.8333 %
4266 03-08-2012 00:00:00 16.31667 C 77.0000 %
4267 03-08-2012 01:00:00 16.18333 C 78.1667 %
4268 03-08-2012 02:00:00 15.58333 C 79.6667 %
4269 03-08-2012 03:00:00 15.31667 C 79.5000 %
4270 03-08-2012 04:00:00 13.7 C 83.8333 %
4271 03-08-2012 05:00:00 12.86667 C 86.5000 %
4272 03-08-2012 06:00:00 12.46667 C 87.5000 %
4273 03-08-2012 07:00:00 13.03333 C 87.3333 %
4274 03-08-2012 08:00:00 13.83333 C 87.5000 %
4275 03-08-2012 09:00:00 15.51667 C 86.8333 %
Sensor: Nr:Datum:Temp:Feuchte:
Aussen-T/F 4276 03-08-2012 10:00:00 19.61667 C 65.5000 %
4277 03-08-2012 11:00:00 22.51667 C 42.5000 %
4278 03-08-2012 12:00:00 24 C 32.6667 %
4279 03-08-2012 13:00:00 27.01667 C 27.5000 %
4280 03-08-2012 14:00:00 25.83333 C 28.8333 %
4281 03-08-2012 15:00:00 29.93333 C 21.6667 %
4282 03-08-2012 16:00:00 28.41667 C 23.8333 %
4283 03-08-2012 17:00:00 27.7 C 26.0000 %
4284 03-08-2012 18:00:00 25.8 C 33.0000 %
4285 03-08-2012 19:00:00 22.9 C 44.3333 %
4286 03-08-2012 20:00:00 21.51667 C 46.5000 %
4287 03-08-2012 21:00:00 18.6 C 55.6667 %
4288 03-08-2012 22:00:00 16.16667 C 66.3333 %
4289 03-08-2012 23:00:00 14.73333 C 72.3333 %
4290 04-08-2012 00:00:00 13.9 C 76.5000 %
4291 04-08-2012 01:00:00 13.38333 C 79.3333 %
4292 04-08-2012 02:00:00 13 C 81.6667 %
4293 04-08-2012 03:00:00 12.63333 C 84.1667 %
4294 04-08-2012 04:00:00 12.98333 C 84.5000 %
4295 04-08-2012 05:00:00 12.01667 C 85.0000 %
4296 04-08-2012 06:00:00 11.9 C 86.8333 %
4297 04-08-2012 07:00:00 12.46667 C 87.0000 %
4298 04-08-2012 08:00:00 15 C 78.3333 %
4299 04-08-2012 09:00:00 17.73333 C 64.3333 %
4300 04-08-2012 10:00:00 20.83333 C 50.3333 %
Sensor: Nr:Datum:Temp:Feuchte:
Aussen-T/F 4301 04-08-2012 11:00:00 21.7 C 45.0000 %
4302 04-08-2012 12:00:00 24 C 37.1667 %
4303 04-08-2012 13:00:00 26.5 C 29.5000 %
4304 04-08-2012 14:00:00 28.81667 C 22.8333 %
4305 04-08-2012 15:00:00 31.65 C 20.8333 %
4306 04-08-2012 16:00:00 28.48333 C 30.0000 %
4307 04-08-2012 17:00:00 29.88333 C 25.6667 %
4308 04-08-2012 18:00:00 25.96667 C 40.0000 %
4309 04-08-2012 19:00:00 23.93333 C 45.1667 %
4310 04-08-2012 20:00:00 20.76667 C 54.5000 %
4311 04-08-2012 21:00:00 19.25 C 59.0000 %
4312 04-08-2012 22:00:00 18.21667 C 63.8333 %
4313 04-08-2012 23:00:00 16.46667 C 69.3333 %
4314 05-08-2012 00:00:00 16.33333 C 71.3333 %
4315 05-08-2012 01:00:00 16.96667 C 71.0000 %
4316 05-08-2012 02:00:00 16.55 C 76.6667 %
4317 05-08-2012 03:00:00 16.38333 C 83.1667 %
4318 05-08-2012 04:00:00 15.88333 C 86.3333 %
4319 05-08-2012 05:00:00 16.06667 C 86.8333 %
4320 05-08-2012 06:00:00 16.08333 C 87.1667 %
4321 05-08-2012 07:00:00 16.26667 C 87.0000 %
4322 05-08-2012 08:00:00 16.85 C 86.5000 %
4323 05-08-2012 09:00:00 17.1 C 84.0000 %
4324 05-08-2012 10:00:00 17.36667 C 83.5000 %
4325 05-08-2012 11:00:00 18.86667 C 75.8333 %
Sensor: Nr:Datum:Temp:Feuchte:
Aussen-T/F 4326 05-08-2012 12:00:00 22.45 C 58.5000 %
4327 05-08-2012 13:00:00 24.26667 C 48.6667 %
4328 05-08-2012 14:00:00 28.15 C 38.0000 %
4329 05-08-2012 15:00:00 30.11667 C 31.1667 %
4330 05-08-2012 16:00:00 30.91667 C 29.8333 %
4331 05-08-2012 17:00:00 30.05 C 31.8333 %
4332 05-08-2012 18:00:00 25.6 C 41.1667 %
4333 05-08-2012 19:00:00 24.1 C 47.6667 %
4334 05-08-2012 20:00:00 19.7 C 66.3333 %
4335 05-08-2012 21:00:00 18.46667 C 72.6667 %
4336 05-08-2012 22:00:00 18.08333 C 76.5000 %
4337 05-08-2012 23:00:00 17.9 C 77.6667 %
4338 06-08-2012 00:00:00 16.73333 C 86.0000 %
4339 06-08-2012 01:00:00 16.46667 C 87.6667 %
4340 06-08-2012 02:00:00 16.43333 C 88.1667 %
4341 06-08-2012 03:00:00 16.71667 C 89.0000 %
4342 06-08-2012 04:00:00 16.92 C 89.0000 %
4343 06-08-2012 05:00:00 16.55 C 89.0000 %
4344 06-08-2012 06:00:00 16.21667 C 89.1667 %
4345 06-08-2012 07:00:00 15.86667 C 89.6667 %
4346 06-08-2012 08:00:00 16.4 C 87.5000 %
4347 06-08-2012 09:00:00 17.06667 C 78.0000 %
4348 06-08-2012 10:00:00 17.88333 C 66.3333 %
4349 06-08-2012 11:00:00 19.88333 C 54.0000 %
4350 06-08-2012 12:00:00 21.66667 C 45.0000 %
Sensor: Nr:Datum:Temp:Feuchte:
Aussen-T/F 4351 06-08-2012 13:00:00 21.8 C 42.0000 %
4352 06-08-2012 14:00:00 24.51667 C 33.8333 %
4353 06-08-2012 15:00:00 23.06667 C 36.8333 %
4354 06-08-2012 16:00:00 24.48333 C 33.6667 %
4355 06-08-2012 17:00:00 25.11667 C 31.5000 %
4356 06-08-2012 18:00:00 24.66667 C 33.5000 %
4357 06-08-2012 19:00:00 21.38333 C 41.3333 %
4358 06-08-2012 20:00:00 19.85 C 48.0000 %
4359 06-08-2012 21:00:00 16.96667 C 63.1667 %
4360 06-08-2012 22:00:00 15.23333 C 73.8333 %
4361 06-08-2012 23:00:00 15.75 C 71.6667 %
4362 07-08-2012 00:00:00 15.61667 C 71.8333 %
4363 07-08-2012 01:00:00 16.01667 C 63.6667 %
4364 07-08-2012 02:00:00 15.43333 C 67.1667 %
4365 07-08-2012 03:00:00 15.55 C 66.8333 %
4366 07-08-2012 04:00:00 14.71667 C 70.8333 %
4367 07-08-2012 05:00:00 14.13333 C 75.1667 %
4368 07-08-2012 06:00:00 14.53333 C 72.1667 %
4369 07-08-2012 07:00:00 15.2 C 66.8333 %
4370 07-08-2012 08:00:00 16.03333 C 63.8333 %
4371 07-08-2012 09:00:00 17.23333 C 60.1667 %
4372 07-08-2012 10:00:00 18.06667 C 54.1667 %
4373 07-08-2012 11:00:00 19.2 C 47.7143 %
4374 07-08-2012 12:00:00 20.12 C 44.2000 %
4375 07-08-2012 13:00:00 19.43333 C 46.8333 %
Sensor: Nr:Datum:Temp:Feuchte:
Aussen-T/F 4376 07-08-2012 14:00:00 20.2 C 43.6667 %
4377 07-08-2012 15:00:00 20.81667 C 40.0000 %
4378 07-08-2012 16:00:00 22.43333 C 37.0000 %
4379 07-08-2012 17:00:00 21.95 C 37.1667 %
4380 07-08-2012 18:00:00 20.66667 C 42.5000 %
4381 07-08-2012 19:00:00 19.76667 C 43.5000 %
4382 07-08-2012 20:00:00 17.56667 C 54.3333 %
4383 07-08-2012 21:00:00 17.03333 C 55.0000 %
4384 07-08-2012 22:00:00 16.01667 C 62.1667 %
4385 07-08-2012 23:00:00 15.96667 C 62.6667 %
4386 08-08-2012 00:00:00 14.55 C 69.5000 %
4387 08-08-2012 01:00:00 13.21667 C 76.6667 %
4388 08-08-2012 02:00:00 11.95 C 81.3333 %
4389 08-08-2012 03:00:00 12.41667 C 81.6667 %
4390 08-08-2012 04:00:00 11.66667 C 83.1667 %
4391 08-08-2012 05:00:00 12.68333 C 82.0000 %
4392 08-08-2012 06:00:00 13.1 C 75.5000 %
4393 08-08-2012 07:00:00 13.51667 C 76.1667 %
4394 08-08-2012 08:00:00 15.16667 C 67.5000 %
4395 08-08-2012 09:00:00 16.93333 C 58.1667 %
4396 08-08-2012 10:00:00 17.41667 C 56.5000 %
4397 08-08-2012 11:00:00 19.88333 C 47.0000 %
4398 08-08-2012 12:00:00 21.5 C 41.6667 %
4399 08-08-2012 13:00:00 23.23333 C 35.8333 %
4400 08-08-2012 14:00:00 20.16667 C 55.0000 %
Sensor: Nr:Datum:Temp:Feuchte:
Aussen-T/F 4401 08-08-2012 15:00:00 20.95 C 50.0000 %
4402 08-08-2012 16:00:00 23.6 C 40.0000 %
4403 08-08-2012 17:00:00 25.1 C 36.1667 %
4404 08-08-2012 18:00:00 22.78333 C 47.0000 %
4405 08-08-2012 19:00:00 21.38333 C 52.3333 %
4406 08-08-2012 20:00:00 18.71667 C 62.0000 %
4407 08-08-2012 21:00:00 16.63333 C 69.3333 %
4408 08-08-2012 22:00:00 15.11667 C 76.5000 %
4409 08-08-2012 23:00:00 14.3 C 81.0000 %
4410 09-08-2012 00:00:00 14.01667 C 83.3333 %
4411 09-08-2012 01:00:00 14.08333 C 84.1667 %
4412 09-08-2012 02:00:00 14.25 C 85.3333 %
4413 09-08-2012 03:00:00 14.5 C 85.0000 %
4414 09-08-2012 04:00:00 15.11667 C 82.1667 %
4415 09-08-2012 05:00:00 15.33333 C 78.8333 %
4416 09-08-2012 06:00:00 15.1 C 83.1667 %
4417 09-08-2012 07:00:00 15.56667 C 86.0000 %
4418 09-08-2012 08:00:00 15.96667 C 85.5000 %
4419 09-08-2012 09:00:00 17.25 C 80.1667 %
4420 09-08-2012 10:00:00 19.36667 C 64.0000 %
4421 09-08-2012 11:00:00 20.51667 C 55.0000 %
4422 09-08-2012 12:00:00 21.18333 C 49.5000 %
4423 09-08-2012 13:00:00 22.95 C 42.0000 %
4424 09-08-2012 14:00:00 27.48333 C 30.3333 %
4425 09-08-2012 15:00:00 28.81667 C 26.5000 %
Sensor: Nr:Datum:Temp:Feuchte:
Aussen-T/F 4426 09-08-2012 16:00:00 30.01667 C 23.0000 %
4427 09-08-2012 17:00:00 29.65 C 22.1667 %
4428 09-08-2012 18:00:00 27.81667 C 26.6667 %
4429 09-08-2012 19:00:00 24.08333 C 36.6667 %
4430 09-08-2012 20:00:00 19.48333 C 55.6667 %
4431 09-08-2012 21:00:00 17.13333 C 66.5000 %
4432 09-08-2012 22:00:00 16 C 72.3333 %
4433 09-08-2012 23:00:00 15.31667 C 75.3333 %
4434 10-08-2012 00:00:00 15.1 C 77.1667 %
4435 10-08-2012 01:00:00 14.26667 C 79.5000 %
4436 10-08-2012 02:00:00 13.28333 C 81.8333 %
4437 10-08-2012 03:00:00 13.63333 C 81.6667 %
4438 10-08-2012 04:00:00 12.83333 C 83.1667 %
4439 10-08-2012 05:00:00 12.6 C 84.1667 %
4440 10-08-2012 06:00:00 12.13333 C 85.0000 %
4441 10-08-2012 07:00:00 11.83333 C 84.0000 %
4442 10-08-2012 08:00:00 12.11667 C 83.5000 %
4443 10-08-2012 09:00:00 13.68333 C 76.1667 %
4444 10-08-2012 10:00:00 16.15 C 63.3333 %
4445 10-08-2012 11:00:00 19.15 C 47.1667 %
4446 10-08-2012 12:00:00 19.8 C 41.6667 %
4447 10-08-2012 13:00:00 21.75 C 36.8333 %
4448 10-08-2012 14:00:00 27.2 C 24.6667 %
4449 10-08-2012 15:00:00 28.05 C 23.1667 %
4450 10-08-2012 16:00:00 29.43333 C 20.6667 %
Sensor: Nr:Datum:Temp:Feuchte:
Aussen-T/F 4451 10-08-2012 17:00:00 28.41667 C 22.0000 %
4452 10-08-2012 18:00:00 27.16667 C 23.0000 %
4453 10-08-2012 19:00:00 24.46667 C 29.0000 %
4454 10-08-2012 20:00:00 19.43333 C 42.1667 %
4455 10-08-2012 21:00:00 15.58333 C 58.0000 %
4456 10-08-2012 22:00:00 14.41667 C 63.8333 %
4457 10-08-2012 23:00:00 13.36667 C 69.0000 %
4458 11-08-2012 00:00:00 12.38333 C 72.1667 %
4459 11-08-2012 01:00:00 11.18333 C 79.1667 %
4460 11-08-2012 02:00:00 10.21667 C 81.6667 %
4461 11-08-2012 03:00:00 9.55 C 83.8333 %
4462 11-08-2012 04:00:00 9.21667 C 85.6667 %
4463 11-08-2012 05:00:00 8.85 C 87.5000 %
4464 11-08-2012 06:00:00 8.7 C 88.1667 %
4465 11-08-2012 07:00:00 9.25 C 88.1667 %
4466 11-08-2012 08:00:00 10.05 C 88.1667 %
4467 11-08-2012 09:00:00 11.53333 C 87.5000 %
4468 11-08-2012 10:00:00 14.33333 C 79.6667 %
4469 11-08-2012 11:00:00 18.15 C 52.1667 %
4470 11-08-2012 12:00:00 21.36667 C 39.1667 %
4471 11-08-2012 13:00:00 21.71667 C 36.0000 %
4472 11-08-2012 14:00:00 26.13333 C 27.6667 %
4473 11-08-2012 15:00:00 28.2 C 23.0000 %
4474 11-08-2012 16:00:00 28.53333 C 22.6667 %
4475 11-08-2012 17:00:00 29.28333 C 21.3333 %
Sensor: Nr:Datum:Temp:Feuchte:
Aussen-T/F 4476 11-08-2012 18:00:00 28.23333 C 23.1667 %
4477 11-08-2012 19:00:00 25.06667 C 29.5000 %
4478 11-08-2012 20:00:00 19.56667 C 48.5000 %
4479 11-08-2012 21:00:00 16.15 C 59.1667 %
4480 11-08-2012 22:00:00 14.9 C 65.1667 %
4481 11-08-2012 23:00:00 13.81667 C 71.0000 %
4482 12-08-2012 00:00:00 12.75 C 75.0000 %
4483 12-08-2012 01:00:00 12.25 C 76.5000 %
4484 12-08-2012 02:00:00 12.03333 C 77.6667 %
4485 12-08-2012 03:00:00 11.41667 C 79.6667 %
4486 12-08-2012 04:00:00 10.78333 C 81.6667 %
4487 12-08-2012 05:00:00 10.4 C 83.3333 %
4488 12-08-2012 06:00:00 10.2 C 84.0000 %
4489 12-08-2012 07:00:00 10.46667 C 84.3333 %
4490 12-08-2012 08:00:00 11.25 C 83.0000 %
4491 12-08-2012 09:00:00 12.65 C 80.8333 %
4492 12-08-2012 10:00:00 16.06667 C 65.5000 %
4493 12-08-2012 11:00:00 19.45 C 44.8333 %
4494 12-08-2012 12:00:00 21.11667 C 36.1667 %
4495 12-08-2012 13:00:00 23.06667 C 31.6667 %
4496 12-08-2012 14:00:00 27.68333 C 21.8333 %
4497 12-08-2012 15:00:00 29.81667 C 20.0000 %
4498 12-08-2012 16:00:00 30.18333 C 20.0000 %
4499 12-08-2012 17:00:00 30.31667 C 20.0000 %
4500 12-08-2012 18:00:00 28.6 C 22.6667 %
Sensor: Nr:Datum:Temp:Feuchte:
Aussen-T/F 4501 12-08-2012 19:00:00 27.78333 C 25.6667 %
4502 12-08-2012 20:00:00 20.58333 C 45.6667 %
4503 12-08-2012 21:00:00 17.43333 C 50.8333 %